<?xml version="1.0" encoding="UTF-8" standalone="no" ?>
<gpx xmlns="http://www.topografix.com/GPX/1/1" xmlns:xsi="http://www.w3.org/2001/XMLSchema-instance" xsi:schemaLocation="http://www.topografix.com/GPX/1/1 http://www.topografix.com/GPX/1/1/gpx.xsd" version="1.1" creator="VisuGPX - https://www.visugpx.com">
  <metadata>
    <name>rando VTTHN</name>
    <desc><![CDATA[Forêt de la Londe]]></desc>
  </metadata>
  <trk>
    <name><![CDATA[Tracé]]></name>
    <trkseg>
      <trkpt lat="49.32195" lon="0.98619">
        <ele>39.21875</ele>
      </trkpt>
      <trkpt lat="49.32182" lon="0.98613">
        <ele>37.73828125</ele>
      </trkpt>
      <trkpt lat="49.32167" lon="0.98599">
        <ele>37.0390625</ele>
      </trkpt>
      <trkpt lat="49.32159" lon="0.98591">
        <ele>38.826378</ele>
        <time>2012-03-11T10:43:29Z</time>
      </trkpt>
      <trkpt lat="49.3213" lon="0.98536">
        <ele>42.059338</ele>
        <time>2012-03-11T10:43:45Z</time>
      </trkpt>
      <trkpt lat="49.32088" lon="0.98487">
        <ele>41.931938</ele>
        <time>2012-03-11T10:43:58Z</time>
      </trkpt>
      <trkpt lat="49.32041" lon="0.98454">
        <ele>41.662857</ele>
        <time>2012-03-11T10:44:18Z</time>
      </trkpt>
      <trkpt lat="49.31986" lon="0.98464">
        <ele>39.83849</ele>
        <time>2012-03-11T10:44:39Z</time>
      </trkpt>
      <trkpt lat="49.31957" lon="0.98475">
        <ele>39.219604</ele>
        <time>2012-03-11T10:44:49Z</time>
      </trkpt>
      <trkpt lat="49.31921" lon="0.98486">
        <ele>37.706562</ele>
        <time>2012-03-11T10:44:59Z</time>
      </trkpt>
      <trkpt lat="49.31892" lon="0.98497">
        <ele>33.917999</ele>
        <time>2012-03-11T10:45:07Z</time>
      </trkpt>
      <trkpt lat="49.31865" lon="0.98498">
        <ele>27.715076</ele>
        <time>2012-03-11T10:45:15Z</time>
      </trkpt>
      <trkpt lat="49.31852" lon="0.98493">
        <ele>24.603109</ele>
        <time>2012-03-11T10:45:23Z</time>
      </trkpt>
      <trkpt lat="49.31833" lon="0.98483">
        <ele>19.466431</ele>
        <time>2012-03-11T10:45:31Z</time>
      </trkpt>
      <trkpt lat="49.31856" lon="0.98433">
        <ele>21.561682</ele>
        <time>2012-03-11T10:45:47Z</time>
      </trkpt>
      <trkpt lat="49.31893" lon="0.98361">
        <ele>24.002302</ele>
        <time>2012-03-11T10:46:06Z</time>
      </trkpt>
      <trkpt lat="49.31974" lon="0.9825">
        <ele>22.560509</ele>
        <time>2012-03-11T10:46:42Z</time>
      </trkpt>
      <trkpt lat="49.32042" lon="0.9816">
        <ele>19.999987</ele>
        <time>2012-03-11T10:47:08Z</time>
      </trkpt>
      <trkpt lat="49.32077" lon="0.98141">
        <ele>20.05024</ele>
        <time>2012-03-11T10:47:27Z</time>
      </trkpt>
      <trkpt lat="49.32114" lon="0.98086">
        <ele>19.279686</ele>
        <time>2012-03-11T10:47:40Z</time>
      </trkpt>
      <trkpt lat="49.32174" lon="0.98056">
        <ele>19.960684</ele>
        <time>2012-03-11T10:47:58Z</time>
      </trkpt>
      <trkpt lat="49.3225" lon="0.98054">
        <ele>20.611633</ele>
        <time>2012-03-11T10:48:22Z</time>
      </trkpt>
      <trkpt lat="49.32324" lon="0.98116">
        <ele>22.995708</ele>
        <time>2012-03-11T10:48:53Z</time>
      </trkpt>
      <trkpt lat="49.32415" lon="0.98132">
        <ele>18.71928</ele>
        <time>2012-03-11T10:49:21Z</time>
      </trkpt>
      <trkpt lat="49.32446" lon="0.9809">
        <ele>18</ele>
        <time>2012-03-11T10:49:37Z</time>
      </trkpt>
      <trkpt lat="49.32478" lon="0.98046">
        <ele>19.595785</ele>
        <time>2012-03-11T10:49:54Z</time>
      </trkpt>
      <trkpt lat="49.32497" lon="0.98019">
        <ele>23.406301</ele>
        <time>2012-03-11T10:50:08Z</time>
      </trkpt>
      <trkpt lat="49.32516" lon="0.97996">
        <ele>26.666605</ele>
        <time>2012-03-11T10:50:19Z</time>
      </trkpt>
      <trkpt lat="49.32533" lon="0.97975">
        <ele>28.173792</ele>
        <time>2012-03-11T10:50:29Z</time>
      </trkpt>
      <trkpt lat="49.32558" lon="0.9794">
        <ele>29.510235</ele>
        <time>2012-03-11T10:50:40Z</time>
      </trkpt>
      <trkpt lat="49.32611" lon="0.97891">
        <ele>28.575165</ele>
        <time>2012-03-11T10:51:01Z</time>
      </trkpt>
      <trkpt lat="49.32634" lon="0.97851">
        <ele>26.047333</ele>
        <time>2012-03-11T10:51:13Z</time>
      </trkpt>
      <trkpt lat="49.32647" lon="0.97807">
        <ele>23.225452</ele>
        <time>2012-03-11T10:51:26Z</time>
      </trkpt>
      <trkpt lat="49.32577" lon="0.97774">
        <ele>28.38203</ele>
        <time>2012-03-11T10:51:51Z</time>
      </trkpt>
      <trkpt lat="49.32522" lon="0.97759">
        <ele>32.409946</ele>
        <time>2012-03-11T10:52:12Z</time>
      </trkpt>
      <trkpt lat="49.325" lon="0.97752">
        <ele>35.577221</ele>
        <time>2012-03-11T10:52:27Z</time>
      </trkpt>
      <trkpt lat="49.3249" lon="0.97748">
        <ele>37.263515</ele>
        <time>2012-03-11T10:52:37Z</time>
      </trkpt>
      <trkpt lat="49.32475" lon="0.97741">
        <ele>39.980675</ele>
        <time>2012-03-11T10:52:48Z</time>
      </trkpt>
      <trkpt lat="49.32457" lon="0.97736">
        <ele>43.160469</ele>
        <time>2012-03-11T10:53:00Z</time>
      </trkpt>
      <trkpt lat="49.32439" lon="0.97735">
        <ele>46.64352</ele>
        <time>2012-03-11T10:53:14Z</time>
      </trkpt>
      <trkpt lat="49.32426" lon="0.97731">
        <ele>49.230869</ele>
        <time>2012-03-11T10:53:24Z</time>
      </trkpt>
      <trkpt lat="49.32411" lon="0.97725">
        <ele>51.844482</ele>
        <time>2012-03-11T10:53:34Z</time>
      </trkpt>
      <trkpt lat="49.32395" lon="0.97703">
        <ele>53.903656</ele>
        <time>2012-03-11T10:53:52Z</time>
      </trkpt>
      <trkpt lat="49.32395" lon="0.97678">
        <ele>51.638462</ele>
        <time>2012-03-11T10:54:01Z</time>
      </trkpt>
      <trkpt lat="49.32375" lon="0.97632">
        <ele>50.933208</ele>
        <time>2012-03-11T10:54:11Z</time>
      </trkpt>
      <trkpt lat="49.32352" lon="0.97609">
        <ele>52.099659</ele>
        <time>2012-03-11T10:54:26Z</time>
      </trkpt>
      <trkpt lat="49.3233" lon="0.97594">
        <ele>54.107677</ele>
        <time>2012-03-11T10:54:44Z</time>
      </trkpt>
      <trkpt lat="49.32308" lon="0.97589">
        <ele>56.853672</ele>
        <time>2012-03-11T10:55:00Z</time>
      </trkpt>
      <trkpt lat="49.32297" lon="0.97589">
        <ele>58.465092</ele>
        <time>2012-03-11T10:55:10Z</time>
      </trkpt>
      <trkpt lat="49.32296" lon="0.97593">
        <ele>58.995407</ele>
        <time>2012-03-11T10:55:25Z</time>
      </trkpt>
      <trkpt lat="49.32298" lon="0.97602">
        <ele>59.981861</ele>
        <time>2012-03-11T10:55:38Z</time>
      </trkpt>
      <trkpt lat="49.32302" lon="0.97616">
        <ele>61.258026</ele>
        <time>2012-03-11T10:56:00Z</time>
      </trkpt>
      <trkpt lat="49.32298" lon="0.97649">
        <ele>66.291771</ele>
        <time>2012-03-11T10:56:18Z</time>
      </trkpt>
      <trkpt lat="49.32282" lon="0.97654">
        <ele>68.265434</ele>
        <time>2012-03-11T10:56:29Z</time>
      </trkpt>
      <trkpt lat="49.32266" lon="0.97653">
        <ele>70.404358</ele>
        <time>2012-03-11T10:56:42Z</time>
      </trkpt>
      <trkpt lat="49.32245" lon="0.97642">
        <ele>72.414337</ele>
        <time>2012-03-11T10:56:59Z</time>
      </trkpt>
      <trkpt lat="49.32221" lon="0.97607">
        <ele>72.398331</ele>
        <time>2012-03-11T10:57:17Z</time>
      </trkpt>
      <trkpt lat="49.32175" lon="0.9754">
        <ele>71.944305</ele>
        <time>2012-03-11T10:57:43Z</time>
      </trkpt>
      <trkpt lat="49.32159" lon="0.97532">
        <ele>73.784866</ele>
        <time>2012-03-11T10:57:55Z</time>
      </trkpt>
      <trkpt lat="49.32145" lon="0.97531">
        <ele>75.657181</ele>
        <time>2012-03-11T10:58:06Z</time>
      </trkpt>
      <trkpt lat="49.32129" lon="0.97533">
        <ele>78.252632</ele>
        <time>2012-03-11T10:58:18Z</time>
      </trkpt>
      <trkpt lat="49.32109" lon="0.97537">
        <ele>81.467957</ele>
        <time>2012-03-11T10:58:34Z</time>
      </trkpt>
      <trkpt lat="49.32083" lon="0.97535">
        <ele>84.13517</ele>
        <time>2012-03-11T10:58:51Z</time>
      </trkpt>
      <trkpt lat="49.32052" lon="0.9753">
        <ele>86.887978</ele>
        <time>2012-03-11T10:59:09Z</time>
      </trkpt>
      <trkpt lat="49.32015" lon="0.9752">
        <ele>89.495789</ele>
        <time>2012-03-11T10:59:28Z</time>
      </trkpt>
      <trkpt lat="49.31975" lon="0.97512">
        <ele>91.300774</ele>
        <time>2012-03-11T10:59:50Z</time>
      </trkpt>
      <trkpt lat="49.31947" lon="0.97503">
        <ele>91.991821</ele>
        <time>2012-03-11T11:00:04Z</time>
      </trkpt>
      <trkpt lat="49.31905" lon="0.97486">
        <ele>93.708214</ele>
        <time>2012-03-11T11:00:22Z</time>
      </trkpt>
      <trkpt lat="49.31838" lon="0.97452">
        <ele>96.908447</ele>
        <time>2012-03-11T11:00:47Z</time>
      </trkpt>
      <trkpt lat="49.31793" lon="0.97449">
        <ele>98.935234</ele>
        <time>2012-03-11T11:01:06Z</time>
      </trkpt>
      <trkpt lat="49.31743" lon="0.97397">
        <ele>101.681686</ele>
        <time>2012-03-11T11:01:26Z</time>
      </trkpt>
      <trkpt lat="49.31678" lon="0.97276">
        <ele>103.035759</ele>
        <time>2012-03-11T11:01:51Z</time>
      </trkpt>
      <trkpt lat="49.31625" lon="0.97178">
        <ele>105.480064</ele>
        <time>2012-03-11T11:02:13Z</time>
      </trkpt>
      <trkpt lat="49.31592" lon="0.9711">
        <ele>127.511963</ele>
        <time>2009-06-28T09:08:12Z</time>
      </trkpt>
      <trkpt lat="49.3159" lon="0.97096">
        <ele>128.954102</ele>
        <time>2009-06-28T09:08:18Z</time>
      </trkpt>
      <trkpt lat="49.31589" lon="0.97093">
        <ele>128.954102</ele>
        <time>2009-06-28T09:08:19Z</time>
      </trkpt>
      <trkpt lat="49.31588" lon="0.97087">
        <ele>129.434692</ele>
        <time>2009-06-28T09:08:21Z</time>
      </trkpt>
      <trkpt lat="49.31587" lon="0.97074">
        <ele>129.915283</ele>
        <time>2009-06-28T09:08:25Z</time>
      </trkpt>
      <trkpt lat="49.31586" lon="0.97056">
        <ele>129.915283</ele>
        <time>2009-06-28T09:08:30Z</time>
      </trkpt>
      <trkpt lat="49.31584" lon="0.97048">
        <ele>129.915283</ele>
        <time>2009-06-28T09:08:32Z</time>
      </trkpt>
      <trkpt lat="49.3158" lon="0.97033">
        <ele>129.434692</ele>
        <time>2009-06-28T09:08:37Z</time>
      </trkpt>
      <trkpt lat="49.31579" lon="0.9703">
        <ele>129.434692</ele>
        <time>2009-06-28T09:08:38Z</time>
      </trkpt>
      <trkpt lat="49.31579" lon="0.97024">
        <ele>129.434692</ele>
        <time>2009-06-28T09:08:40Z</time>
      </trkpt>
      <trkpt lat="49.31574" lon="0.97003">
        <ele>127.992554</ele>
        <time>2009-06-28T09:08:46Z</time>
      </trkpt>
      <trkpt lat="49.31573" lon="0.96999">
        <ele>127.031372</ele>
        <time>2009-06-28T09:08:47Z</time>
      </trkpt>
      <trkpt lat="49.31569" lon="0.96978">
        <ele>122.705444</ele>
        <time>2009-06-28T09:08:53Z</time>
      </trkpt>
      <trkpt lat="49.3157" lon="0.96959">
        <ele>119.821411</ele>
        <time>2009-06-28T09:08:58Z</time>
      </trkpt>
      <trkpt lat="49.31575" lon="0.96927">
        <ele>118.379395</ele>
        <time>2009-06-28T09:09:04Z</time>
      </trkpt>
      <trkpt lat="49.31575" lon="0.96922">
        <ele>118.379395</ele>
        <time>2009-06-28T09:09:05Z</time>
      </trkpt>
      <trkpt lat="49.31574" lon="0.96911">
        <ele>117.418213</ele>
        <time>2009-06-28T09:09:07Z</time>
      </trkpt>
      <trkpt lat="49.31578" lon="0.9688">
        <ele>115.495605</ele>
        <time>2009-06-28T09:09:13Z</time>
      </trkpt>
      <trkpt lat="49.31582" lon="0.96863">
        <ele>114.53418</ele>
        <time>2009-06-28T09:09:16Z</time>
      </trkpt>
      <trkpt lat="49.31583" lon="0.9684">
        <ele>113.092285</ele>
        <time>2009-06-28T09:09:20Z</time>
      </trkpt>
      <trkpt lat="49.3157" lon="0.96808">
        <ele>110.688843</ele>
        <time>2009-06-28T09:09:25Z</time>
      </trkpt>
      <trkpt lat="49.31564" lon="0.96791">
        <ele>108.285645</ele>
        <time>2009-06-28T09:09:28Z</time>
      </trkpt>
      <trkpt lat="49.31561" lon="0.96777">
        <ele>106.843628</ele>
        <time>2009-06-28T09:09:30Z</time>
      </trkpt>
      <trkpt lat="49.31551" lon="0.96752">
        <ele>103.959717</ele>
        <time>2009-06-28T09:09:35Z</time>
      </trkpt>
      <trkpt lat="49.31549" lon="0.96735">
        <ele>102.998291</ele>
        <time>2009-06-28T09:09:39Z</time>
      </trkpt>
      <trkpt lat="49.31552" lon="0.96715">
        <ele>102.998291</ele>
        <time>2009-06-28T09:09:42Z</time>
      </trkpt>
      <trkpt lat="49.31556" lon="0.96703">
        <ele>102.998291</ele>
        <time>2009-06-28T09:09:44Z</time>
      </trkpt>
      <trkpt lat="49.31554" lon="0.96674">
        <ele>100.595093</ele>
        <time>2009-06-28T09:09:51Z</time>
      </trkpt>
      <trkpt lat="49.31545" lon="0.96655">
        <ele>98.672485</ele>
        <time>2009-06-28T09:10:00Z</time>
      </trkpt>
      <trkpt lat="49.31541" lon="0.96649">
        <ele>99.633789</ele>
        <time>2009-06-28T09:10:07Z</time>
      </trkpt>
      <trkpt lat="49.31543" lon="0.96629">
        <ele>99.153076</ele>
        <time>2009-06-28T09:10:36Z</time>
      </trkpt>
      <trkpt lat="49.31543" lon="0.96623">
        <ele>98.672485</ele>
        <time>2009-06-28T09:10:42Z</time>
      </trkpt>
      <trkpt lat="49.31543" lon="0.96613">
        <ele>98.191895</ele>
        <time>2009-06-28T09:10:49Z</time>
      </trkpt>
      <trkpt lat="49.31544" lon="0.96598">
        <ele>102.998291</ele>
        <time>2009-06-28T09:11:22Z</time>
      </trkpt>
      <trkpt lat="49.31552" lon="0.96596">
        <ele>104.44043</ele>
        <time>2009-06-28T09:11:31Z</time>
      </trkpt>
      <trkpt lat="49.31553" lon="0.96596">
        <ele>103.959717</ele>
        <time>2009-06-28T09:11:33Z</time>
      </trkpt>
      <trkpt lat="49.31557" lon="0.96597">
        <ele>103.959717</ele>
        <time>2009-06-28T09:11:38Z</time>
      </trkpt>
      <trkpt lat="49.31563" lon="0.96599">
        <ele>102.998291</ele>
        <time>2009-06-28T09:11:45Z</time>
      </trkpt>
      <trkpt lat="49.3157" lon="0.96597">
        <ele>102.5177</ele>
        <time>2009-06-28T09:11:54Z</time>
      </trkpt>
      <trkpt lat="49.31573" lon="0.96597">
        <ele>102.037109</ele>
        <time>2009-06-28T09:11:57Z</time>
      </trkpt>
      <trkpt lat="49.31577" lon="0.96596">
        <ele>102.037109</ele>
        <time>2009-06-28T09:12:03Z</time>
      </trkpt>
      <trkpt lat="49.31581" lon="0.96597">
        <ele>101.075684</ele>
        <time>2009-06-28T09:12:07Z</time>
      </trkpt>
      <trkpt lat="49.31584" lon="0.96593">
        <ele>101.075684</ele>
        <time>2009-06-28T09:12:19Z</time>
      </trkpt>
      <trkpt lat="49.31592" lon="0.96593">
        <ele>102.998291</ele>
        <time>2009-06-28T09:12:33Z</time>
      </trkpt>
      <trkpt lat="49.31597" lon="0.96589">
        <ele>106.363037</ele>
        <time>2009-06-28T09:12:40Z</time>
      </trkpt>
      <trkpt lat="49.31605" lon="0.96594">
        <ele>107.324341</ele>
        <time>2009-06-28T09:12:45Z</time>
      </trkpt>
      <trkpt lat="49.31612" lon="0.96599">
        <ele>106.363037</ele>
        <time>2009-06-28T09:12:48Z</time>
      </trkpt>
      <trkpt lat="49.31619" lon="0.96606">
        <ele>106.843628</ele>
        <time>2009-06-28T09:12:54Z</time>
      </trkpt>
      <trkpt lat="49.31626" lon="0.9661">
        <ele>105.882446</ele>
        <time>2009-06-28T09:13:00Z</time>
      </trkpt>
      <trkpt lat="49.3163" lon="0.96611">
        <ele>105.401733</ele>
        <time>2009-06-28T09:13:02Z</time>
      </trkpt>
      <trkpt lat="49.31636" lon="0.96615">
        <ele>103.479004</ele>
        <time>2009-06-28T09:13:07Z</time>
      </trkpt>
      <trkpt lat="49.31639" lon="0.96615">
        <ele>102.037109</ele>
        <time>2009-06-28T09:13:11Z</time>
      </trkpt>
      <trkpt lat="49.31649" lon="0.96616">
        <ele>103.479004</ele>
        <time>2009-06-28T09:13:18Z</time>
      </trkpt>
      <trkpt lat="49.31651" lon="0.96618">
        <ele>103.479004</ele>
        <time>2009-06-28T09:13:20Z</time>
      </trkpt>
      <trkpt lat="49.31659" lon="0.96625">
        <ele>104.44043</ele>
        <time>2009-06-28T09:13:26Z</time>
      </trkpt>
      <trkpt lat="49.31666" lon="0.96632">
        <ele>105.882446</ele>
        <time>2009-06-28T09:13:31Z</time>
      </trkpt>
      <trkpt lat="49.31679" lon="0.96639">
        <ele>105.882446</ele>
        <time>2009-06-28T09:13:37Z</time>
      </trkpt>
      <trkpt lat="49.31683" lon="0.96644">
        <ele>105.882446</ele>
        <time>2009-06-28T09:13:40Z</time>
      </trkpt>
      <trkpt lat="49.31692" lon="0.96654">
        <ele>104.44043</ele>
        <time>2009-06-28T09:13:45Z</time>
      </trkpt>
      <trkpt lat="49.317" lon="0.96665">
        <ele>102.998291</ele>
        <time>2009-06-28T09:13:50Z</time>
      </trkpt>
      <trkpt lat="49.31704" lon="0.96677">
        <ele>102.998291</ele>
        <time>2009-06-28T09:13:53Z</time>
      </trkpt>
      <trkpt lat="49.31713" lon="0.96688">
        <ele>102.037109</ele>
        <time>2009-06-28T09:13:58Z</time>
      </trkpt>
      <trkpt lat="49.31717" lon="0.96697">
        <ele>101.075684</ele>
        <time>2009-06-28T09:14:01Z</time>
      </trkpt>
      <trkpt lat="49.31723" lon="0.96707">
        <ele>100.595093</ele>
        <time>2009-06-28T09:14:04Z</time>
      </trkpt>
      <trkpt lat="49.31732" lon="0.96715">
        <ele>99.153076</ele>
        <time>2009-06-28T09:14:09Z</time>
      </trkpt>
      <trkpt lat="49.31742" lon="0.96732">
        <ele>97.711182</ele>
        <time>2009-06-28T09:14:15Z</time>
      </trkpt>
      <trkpt lat="49.31744" lon="0.96735">
        <ele>97.230469</ele>
        <time>2009-06-28T09:14:16Z</time>
      </trkpt>
      <trkpt lat="49.31758" lon="0.96759">
        <ele>92.42395</ele>
        <time>2009-06-28T09:14:24Z</time>
      </trkpt>
      <trkpt lat="49.31763" lon="0.96771">
        <ele>90.501343</ele>
        <time>2009-06-28T09:14:27Z</time>
      </trkpt>
      <trkpt lat="49.31778" lon="0.96791">
        <ele>85.213989</ele>
        <time>2009-06-28T09:14:33Z</time>
      </trkpt>
      <trkpt lat="49.31787" lon="0.9681">
        <ele>79.926636</ele>
        <time>2009-06-28T09:14:38Z</time>
      </trkpt>
      <trkpt lat="49.31792" lon="0.96822">
        <ele>75.60083</ele>
        <time>2009-06-28T09:14:41Z</time>
      </trkpt>
      <trkpt lat="49.31795" lon="0.96827">
        <ele>74.158813</ele>
        <time>2009-06-28T09:14:43Z</time>
      </trkpt>
      <trkpt lat="49.31802" lon="0.96831">
        <ele>69.352295</ele>
        <time>2009-06-28T09:14:49Z</time>
      </trkpt>
      <trkpt lat="49.31805" lon="0.96834">
        <ele>67.910278</ele>
        <time>2009-06-28T09:14:54Z</time>
      </trkpt>
      <trkpt lat="49.3181" lon="0.96839">
        <ele>64.545654</ele>
        <time>2009-06-28T09:15:02Z</time>
      </trkpt>
      <trkpt lat="49.31812" lon="0.9684">
        <ele>64.545654</ele>
        <time>2009-06-28T09:15:07Z</time>
      </trkpt>
      <trkpt lat="49.31818" lon="0.96842">
        <ele>64.065063</ele>
        <time>2009-06-28T09:15:11Z</time>
      </trkpt>
      <trkpt lat="49.31821" lon="0.96849">
        <ele>63.103638</ele>
        <time>2009-06-28T09:15:15Z</time>
      </trkpt>
      <trkpt lat="49.31832" lon="0.96858">
        <ele>62.142334</ele>
        <time>2009-06-28T09:15:20Z</time>
      </trkpt>
      <trkpt lat="49.31847" lon="0.96864">
        <ele>62.622925</ele>
        <time>2009-06-28T09:15:26Z</time>
      </trkpt>
      <trkpt lat="49.31857" lon="0.96878">
        <ele>61.661743</ele>
        <time>2009-06-28T09:15:31Z</time>
      </trkpt>
      <trkpt lat="49.3186" lon="0.96887">
        <ele>61.18103</ele>
        <time>2009-06-28T09:15:33Z</time>
      </trkpt>
      <trkpt lat="49.31876" lon="0.96917">
        <ele>58.77771</ele>
        <time>2009-06-28T09:15:40Z</time>
      </trkpt>
      <trkpt lat="49.31894" lon="0.96927">
        <ele>55.893799</ele>
        <time>2009-06-28T09:15:45Z</time>
      </trkpt>
      <trkpt lat="49.31906" lon="0.96943">
        <ele>53.490479</ele>
        <time>2009-06-28T09:15:49Z</time>
      </trkpt>
      <trkpt lat="49.31915" lon="0.96976">
        <ele>51.567871</ele>
        <time>2009-06-28T09:15:53Z</time>
      </trkpt>
      <trkpt lat="49.31929" lon="0.97001">
        <ele>51.087158</ele>
        <time>2009-06-28T09:15:57Z</time>
      </trkpt>
      <trkpt lat="49.31949" lon="0.9703">
        <ele>49.645264</ele>
        <time>2009-06-28T09:16:03Z</time>
      </trkpt>
      <trkpt lat="49.31953" lon="0.97037">
        <ele>49.645264</ele>
        <time>2009-06-28T09:16:04Z</time>
      </trkpt>
      <trkpt lat="49.31964" lon="0.97053">
        <ele>49.645264</ele>
        <time>2009-06-28T09:16:06Z</time>
      </trkpt>
      <trkpt lat="49.31984" lon="0.97082">
        <ele>50.125977</ele>
        <time>2009-06-28T09:16:10Z</time>
      </trkpt>
      <trkpt lat="49.31991" lon="0.97104">
        <ele>50.125977</ele>
        <time>2009-06-28T09:16:14Z</time>
      </trkpt>
      <trkpt lat="49.31992" lon="0.97113">
        <ele>51.087158</ele>
        <time>2009-06-28T09:16:17Z</time>
      </trkpt>
      <trkpt lat="49.31999" lon="0.9713">
        <ele>53.490479</ele>
        <time>2009-06-28T09:16:22Z</time>
      </trkpt>
      <trkpt lat="49.32004" lon="0.97142">
        <ele>55.893799</ele>
        <time>2009-06-28T09:16:26Z</time>
      </trkpt>
      <trkpt lat="49.32008" lon="0.97156">
        <ele>56.855103</ele>
        <time>2009-06-28T09:16:30Z</time>
      </trkpt>
      <trkpt lat="49.32017" lon="0.97167">
        <ele>57.335815</ele>
        <time>2009-06-28T09:16:35Z</time>
      </trkpt>
      <trkpt lat="49.3202" lon="0.97173">
        <ele>57.816528</ele>
        <time>2009-06-28T09:16:37Z</time>
      </trkpt>
      <trkpt lat="49.32026" lon="0.97177">
        <ele>56.374512</ele>
        <time>2009-06-28T09:16:41Z</time>
      </trkpt>
      <trkpt lat="49.32035" lon="0.97177">
        <ele>56.855103</ele>
        <time>2009-06-28T09:16:46Z</time>
      </trkpt>
      <trkpt lat="49.32041" lon="0.97169">
        <ele>54.932373</ele>
        <time>2009-06-28T09:16:51Z</time>
      </trkpt>
      <trkpt lat="49.32043" lon="0.97162">
        <ele>53.971191</ele>
        <time>2009-06-28T09:16:53Z</time>
      </trkpt>
      <trkpt lat="49.32049" lon="0.9715">
        <ele>52.048584</ele>
        <time>2009-06-28T09:16:56Z</time>
      </trkpt>
      <trkpt lat="49.32054" lon="0.97136">
        <ele>49.164551</ele>
        <time>2009-06-28T09:17:02Z</time>
      </trkpt>
      <trkpt lat="49.32058" lon="0.97125">
        <ele>48.203369</ele>
        <time>2009-06-28T09:17:06Z</time>
      </trkpt>
      <trkpt lat="49.32065" lon="0.97106">
        <ele>46.76123</ele>
        <time>2009-06-28T09:17:11Z</time>
      </trkpt>
      <trkpt lat="49.3207" lon="0.97092">
        <ele>46.28064</ele>
        <time>2009-06-28T09:17:14Z</time>
      </trkpt>
      <trkpt lat="49.32081" lon="0.97063">
        <ele>46.76123</ele>
        <time>2009-06-28T09:17:21Z</time>
      </trkpt>
      <trkpt lat="49.32083" lon="0.97059">
        <ele>46.76123</ele>
        <time>2009-06-28T09:17:22Z</time>
      </trkpt>
      <trkpt lat="49.32094" lon="0.97049">
        <ele>45.799927</ele>
        <time>2009-06-28T09:17:26Z</time>
      </trkpt>
      <trkpt lat="49.32106" lon="0.97041">
        <ele>44.358032</ele>
        <time>2009-06-28T09:17:30Z</time>
      </trkpt>
      <trkpt lat="49.32109" lon="0.97035">
        <ele>43.396606</ele>
        <time>2009-06-28T09:17:32Z</time>
      </trkpt>
      <trkpt lat="49.3212" lon="0.97022">
        <ele>41.473999</ele>
        <time>2009-06-28T09:17:37Z</time>
      </trkpt>
      <trkpt lat="49.32128" lon="0.9701">
        <ele>39.55127</ele>
        <time>2009-06-28T09:17:42Z</time>
      </trkpt>
      <trkpt lat="49.32137" lon="0.97">
        <ele>39.070679</ele>
        <time>2009-06-28T09:17:45Z</time>
      </trkpt>
      <trkpt lat="49.32138" lon="0.96991">
        <ele>39.070679</ele>
        <time>2009-06-28T09:17:48Z</time>
      </trkpt>
      <trkpt lat="49.3214" lon="0.96988">
        <ele>38.590088</ele>
        <time>2009-06-28T09:17:50Z</time>
      </trkpt>
      <trkpt lat="49.32149" lon="0.9697">
        <ele>40.032104</ele>
        <time>2009-06-28T09:17:57Z</time>
      </trkpt>
      <trkpt lat="49.32151" lon="0.96964">
        <ele>40.993408</ele>
        <time>2009-06-28T09:17:59Z</time>
      </trkpt>
      <trkpt lat="49.32155" lon="0.96953">
        <ele>41.473999</ele>
        <time>2009-06-28T09:18:03Z</time>
      </trkpt>
      <trkpt lat="49.32163" lon="0.96941">
        <ele>41.954712</ele>
        <time>2009-06-28T09:18:07Z</time>
      </trkpt>
      <trkpt lat="49.32169" lon="0.96927">
        <ele>41.954712</ele>
        <time>2009-06-28T09:18:13Z</time>
      </trkpt>
      <trkpt lat="49.32171" lon="0.9692">
        <ele>41.473999</ele>
        <time>2009-06-28T09:18:16Z</time>
      </trkpt>
      <trkpt lat="49.32174" lon="0.96906">
        <ele>40.993408</ele>
        <time>2009-06-28T09:18:20Z</time>
      </trkpt>
      <trkpt lat="49.32181" lon="0.96891">
        <ele>40.032104</ele>
        <time>2009-06-28T09:18:26Z</time>
      </trkpt>
      <trkpt lat="49.32182" lon="0.9689">
        <ele>39.55127</ele>
        <time>2009-06-28T09:18:27Z</time>
      </trkpt>
      <trkpt lat="49.3219" lon="0.96869">
        <ele>37.628662</ele>
        <time>2009-06-28T09:18:34Z</time>
      </trkpt>
      <trkpt lat="49.32193" lon="0.96859">
        <ele>36.66748</ele>
        <time>2009-06-28T09:18:38Z</time>
      </trkpt>
      <trkpt lat="49.32193" lon="0.96847">
        <ele>37.628662</ele>
        <time>2009-06-28T09:18:43Z</time>
      </trkpt>
      <trkpt lat="49.32194" lon="0.96836">
        <ele>37.148071</ele>
        <time>2009-06-28T09:18:47Z</time>
      </trkpt>
      <trkpt lat="49.32196" lon="0.96821">
        <ele>37.628662</ele>
        <time>2009-06-28T09:18:51Z</time>
      </trkpt>
      <trkpt lat="49.32195" lon="0.96815">
        <ele>35.706055</ele>
        <time>2009-06-28T09:18:54Z</time>
      </trkpt>
      <trkpt lat="49.32194" lon="0.96811">
        <ele>35.225464</ele>
        <time>2009-06-28T09:18:56Z</time>
      </trkpt>
      <trkpt lat="49.32192" lon="0.96807">
        <ele>33.783447</ele>
        <time>2009-06-28T09:18:58Z</time>
      </trkpt>
      <trkpt lat="49.32187" lon="0.968">
        <ele>32.341553</ele>
        <time>2009-06-28T09:19:02Z</time>
      </trkpt>
      <trkpt lat="49.32186" lon="0.96795">
        <ele>31.860718</ele>
        <time>2009-06-28T09:19:04Z</time>
      </trkpt>
      <trkpt lat="49.32182" lon="0.96777">
        <ele>30.418823</ele>
        <time>2009-06-28T09:19:11Z</time>
      </trkpt>
      <trkpt lat="49.32178" lon="0.96763">
        <ele>29.93811</ele>
        <time>2009-06-28T09:19:17Z</time>
      </trkpt>
      <trkpt lat="49.32177" lon="0.9676">
        <ele>29.45752</ele>
        <time>2009-06-28T09:19:18Z</time>
      </trkpt>
      <trkpt lat="49.32173" lon="0.9675">
        <ele>28.976929</ele>
        <time>2009-06-28T09:19:21Z</time>
      </trkpt>
      <trkpt lat="49.32178" lon="0.96729">
        <ele>27.054321</ele>
        <time>2009-06-28T09:19:27Z</time>
      </trkpt>
      <trkpt lat="49.32181" lon="0.96719">
        <ele>26.573608</ele>
        <time>2009-06-28T09:19:33Z</time>
      </trkpt>
      <trkpt lat="49.32183" lon="0.9671">
        <ele>33.302856</ele>
        <time>2009-06-28T09:19:40Z</time>
      </trkpt>
      <trkpt lat="49.32182" lon="0.96702">
        <ele>46.76123</ele>
        <time>2009-06-28T09:20:01Z</time>
      </trkpt>
      <trkpt lat="49.32184" lon="0.96699">
        <ele>48.203369</ele>
        <time>2009-06-28T09:20:42Z</time>
      </trkpt>
      <trkpt lat="49.32188" lon="0.96701">
        <ele>48.203369</ele>
        <time>2009-06-28T09:20:49Z</time>
      </trkpt>
      <trkpt lat="49.32192" lon="0.967">
        <ele>47.722534</ele>
        <time>2009-06-28T09:21:00Z</time>
      </trkpt>
      <trkpt lat="49.32198" lon="0.96701">
        <ele>48.68396</ele>
        <time>2009-06-28T09:21:07Z</time>
      </trkpt>
      <trkpt lat="49.32203" lon="0.96699">
        <ele>49.645264</ele>
        <time>2009-06-28T09:21:13Z</time>
      </trkpt>
      <trkpt lat="49.32209" lon="0.96698">
        <ele>50.125977</ele>
        <time>2009-06-28T09:21:19Z</time>
      </trkpt>
      <trkpt lat="49.32214" lon="0.96698">
        <ele>51.567871</ele>
        <time>2009-06-28T09:21:26Z</time>
      </trkpt>
      <trkpt lat="49.32215" lon="0.96694">
        <ele>57.335815</ele>
        <time>2009-06-28T09:21:40Z</time>
      </trkpt>
      <trkpt lat="49.32215" lon="0.96692">
        <ele>58.297119</ele>
        <time>2009-06-28T09:21:41Z</time>
      </trkpt>
      <trkpt lat="49.32213" lon="0.96687">
        <ele>60.219727</ele>
        <time>2009-06-28T09:21:45Z</time>
      </trkpt>
      <trkpt lat="49.32214" lon="0.9668">
        <ele>61.661743</ele>
        <time>2009-06-28T09:21:49Z</time>
      </trkpt>
      <trkpt lat="49.32214" lon="0.96665">
        <ele>64.545654</ele>
        <time>2009-06-28T09:21:59Z</time>
      </trkpt>
      <trkpt lat="49.32213" lon="0.96648">
        <ele>66.948975</ele>
        <time>2009-06-28T09:22:09Z</time>
      </trkpt>
      <trkpt lat="49.32211" lon="0.96635">
        <ele>68.390869</ele>
        <time>2009-06-28T09:22:17Z</time>
      </trkpt>
      <trkpt lat="49.32208" lon="0.96622">
        <ele>70.794189</ele>
        <time>2009-06-28T09:22:26Z</time>
      </trkpt>
      <trkpt lat="49.32207" lon="0.96615">
        <ele>72.716919</ele>
        <time>2009-06-28T09:22:32Z</time>
      </trkpt>
      <trkpt lat="49.32207" lon="0.96612">
        <ele>76.081421</ele>
        <time>2009-06-28T09:22:40Z</time>
      </trkpt>
      <trkpt lat="49.32206" lon="0.96607">
        <ele>77.042847</ele>
        <time>2009-06-28T09:22:45Z</time>
      </trkpt>
      <trkpt lat="49.32205" lon="0.96605">
        <ele>77.042847</ele>
        <time>2009-06-28T09:22:46Z</time>
      </trkpt>
      <trkpt lat="49.32204" lon="0.966">
        <ele>77.523438</ele>
        <time>2009-06-28T09:22:49Z</time>
      </trkpt>
      <trkpt lat="49.32203" lon="0.96592">
        <ele>78.484741</ele>
        <time>2009-06-28T09:22:54Z</time>
      </trkpt>
      <trkpt lat="49.32201" lon="0.96569">
        <ele>78.484741</ele>
        <time>2009-06-28T09:23:00Z</time>
      </trkpt>
      <trkpt lat="49.322" lon="0.96547">
        <ele>78.965454</ele>
        <time>2009-06-28T09:23:05Z</time>
      </trkpt>
      <trkpt lat="49.32202" lon="0.96525">
        <ele>78.484741</ele>
        <time>2009-06-28T09:23:10Z</time>
      </trkpt>
      <trkpt lat="49.32204" lon="0.96509">
        <ele>78.484741</ele>
        <time>2009-06-28T09:23:16Z</time>
      </trkpt>
      <trkpt lat="49.32206" lon="0.96502">
        <ele>77.523438</ele>
        <time>2009-06-28T09:23:19Z</time>
      </trkpt>
      <trkpt lat="49.32212" lon="0.96487">
        <ele>77.523438</ele>
        <time>2009-06-28T09:23:25Z</time>
      </trkpt>
      <trkpt lat="49.32213" lon="0.96476">
        <ele>76.562134</ele>
        <time>2009-06-28T09:23:30Z</time>
      </trkpt>
      <trkpt lat="49.32216" lon="0.96461">
        <ele>76.562134</ele>
        <time>2009-06-28T09:23:36Z</time>
      </trkpt>
      <trkpt lat="49.32222" lon="0.9644">
        <ele>75.60083</ele>
        <time>2009-06-28T09:23:43Z</time>
      </trkpt>
      <trkpt lat="49.32224" lon="0.96432">
        <ele>76.562134</ele>
        <time>2009-06-28T09:23:47Z</time>
      </trkpt>
      <trkpt lat="49.32224" lon="0.96427">
        <ele>77.042847</ele>
        <time>2009-06-28T09:23:49Z</time>
      </trkpt>
      <trkpt lat="49.32226" lon="0.96414">
        <ele>78.004028</ele>
        <time>2009-06-28T09:23:55Z</time>
      </trkpt>
      <trkpt lat="49.32228" lon="0.96401">
        <ele>78.484741</ele>
        <time>2009-06-28T09:24:01Z</time>
      </trkpt>
      <trkpt lat="49.3223" lon="0.96393">
        <ele>78.484741</ele>
        <time>2009-06-28T09:24:05Z</time>
      </trkpt>
      <trkpt lat="49.32233" lon="0.96384">
        <ele>78.965454</ele>
        <time>2009-06-28T09:24:09Z</time>
      </trkpt>
      <trkpt lat="49.32237" lon="0.96369">
        <ele>78.965454</ele>
        <time>2009-06-28T09:24:15Z</time>
      </trkpt>
      <trkpt lat="49.32241" lon="0.96353">
        <ele>80.888184</ele>
        <time>2009-06-28T09:24:22Z</time>
      </trkpt>
      <trkpt lat="49.32241" lon="0.96351">
        <ele>81.368774</ele>
        <time>2009-06-28T09:24:23Z</time>
      </trkpt>
      <trkpt lat="49.32243" lon="0.96338">
        <ele>83.291382</ele>
        <time>2009-06-28T09:24:30Z</time>
      </trkpt>
      <trkpt lat="49.32248" lon="0.96326">
        <ele>85.69458</ele>
        <time>2009-06-28T09:24:37Z</time>
      </trkpt>
      <trkpt lat="49.3225" lon="0.96316">
        <ele>86.175293</ele>
        <time>2009-06-28T09:24:46Z</time>
      </trkpt>
      <trkpt lat="49.32252" lon="0.96312">
        <ele>85.69458</ele>
        <time>2009-06-28T09:24:51Z</time>
      </trkpt>
      <trkpt lat="49.32254" lon="0.96307">
        <ele>86.175293</ele>
        <time>2009-06-28T09:24:57Z</time>
      </trkpt>
      <trkpt lat="49.32256" lon="0.96295">
        <ele>86.656006</ele>
        <time>2009-06-28T09:25:04Z</time>
      </trkpt>
      <trkpt lat="49.32257" lon="0.96283">
        <ele>88.098022</ele>
        <time>2009-06-28T09:25:11Z</time>
      </trkpt>
      <trkpt lat="49.32258" lon="0.9627">
        <ele>89.539917</ele>
        <time>2009-06-28T09:25:19Z</time>
      </trkpt>
      <trkpt lat="49.32259" lon="0.96263">
        <ele>90.981934</ele>
        <time>2009-06-28T09:25:25Z</time>
      </trkpt>
      <trkpt lat="49.32258" lon="0.96257">
        <ele>92.904541</ele>
        <time>2009-06-28T09:25:32Z</time>
      </trkpt>
      <trkpt lat="49.32258" lon="0.96248">
        <ele>93.385132</ele>
        <time>2009-06-28T09:25:37Z</time>
      </trkpt>
      <trkpt lat="49.32258" lon="0.96244">
        <ele>94.346558</ele>
        <time>2009-06-28T09:25:46Z</time>
      </trkpt>
      <trkpt lat="49.3226" lon="0.96235">
        <ele>94.346558</ele>
        <time>2009-06-28T09:25:50Z</time>
      </trkpt>
      <trkpt lat="49.32261" lon="0.96219">
        <ele>92.904541</ele>
        <time>2009-06-28T09:25:56Z</time>
      </trkpt>
      <trkpt lat="49.32261" lon="0.96217">
        <ele>92.904541</ele>
        <time>2009-06-28T09:25:57Z</time>
      </trkpt>
      <trkpt lat="49.32257" lon="0.96203">
        <ele>94.827148</ele>
        <time>2009-06-28T09:26:04Z</time>
      </trkpt>
      <trkpt lat="49.32254" lon="0.96194">
        <ele>98.191895</ele>
        <time>2009-06-28T09:26:09Z</time>
      </trkpt>
      <trkpt lat="49.32248" lon="0.96182">
        <ele>102.5177</ele>
        <time>2009-06-28T09:26:16Z</time>
      </trkpt>
      <trkpt lat="49.32248" lon="0.96179">
        <ele>102.998291</ele>
        <time>2009-06-28T09:26:17Z</time>
      </trkpt>
      <trkpt lat="49.32247" lon="0.96172">
        <ele>102.998291</ele>
        <time>2009-06-28T09:26:19Z</time>
      </trkpt>
      <trkpt lat="49.3224" lon="0.96158">
        <ele>102.5177</ele>
        <time>2009-06-28T09:26:24Z</time>
      </trkpt>
      <trkpt lat="49.32237" lon="0.96149">
        <ele>102.5177</ele>
        <time>2009-06-28T09:26:26Z</time>
      </trkpt>
      <trkpt lat="49.32237" lon="0.96127">
        <ele>102.998291</ele>
        <time>2009-06-28T09:26:33Z</time>
      </trkpt>
      <trkpt lat="49.32237" lon="0.96117">
        <ele>104.921021</ele>
        <time>2009-06-28T09:26:40Z</time>
      </trkpt>
      <trkpt lat="49.32239" lon="0.96108">
        <ele>105.882446</ele>
        <time>2009-06-28T09:26:47Z</time>
      </trkpt>
      <trkpt lat="49.32242" lon="0.961">
        <ele>106.363037</ele>
        <time>2009-06-28T09:26:54Z</time>
      </trkpt>
      <trkpt lat="49.32245" lon="0.96095">
        <ele>106.843628</ele>
        <time>2009-06-28T09:27:00Z</time>
      </trkpt>
      <trkpt lat="49.32247" lon="0.96088">
        <ele>106.363037</ele>
        <time>2009-06-28T09:27:06Z</time>
      </trkpt>
      <trkpt lat="49.3225" lon="0.96083">
        <ele>106.363037</ele>
        <time>2009-06-28T09:27:12Z</time>
      </trkpt>
      <trkpt lat="49.32254" lon="0.96079">
        <ele>106.363037</ele>
        <time>2009-06-28T09:27:19Z</time>
      </trkpt>
      <trkpt lat="49.32258" lon="0.96077">
        <ele>106.843628</ele>
        <time>2009-06-28T09:27:25Z</time>
      </trkpt>
      <trkpt lat="49.32261" lon="0.96072">
        <ele>105.882446</ele>
        <time>2009-06-28T09:27:31Z</time>
      </trkpt>
      <trkpt lat="49.32268" lon="0.96064">
        <ele>105.401733</ele>
        <time>2009-06-28T09:27:39Z</time>
      </trkpt>
      <trkpt lat="49.32269" lon="0.96063">
        <ele>105.401733</ele>
        <time>2009-06-28T09:27:40Z</time>
      </trkpt>
      <trkpt lat="49.32271" lon="0.96061">
        <ele>105.401733</ele>
        <time>2009-06-28T09:27:42Z</time>
      </trkpt>
      <trkpt lat="49.32273" lon="0.96059">
        <ele>107.805054</ele>
        <time>2009-06-28T09:27:51Z</time>
      </trkpt>
      <trkpt lat="49.32272" lon="0.96059">
        <ele>107.805054</ele>
        <time>2009-06-28T09:27:53Z</time>
      </trkpt>
      <trkpt lat="49.32275" lon="0.96056">
        <ele>108.285645</ele>
        <time>2009-06-28T09:27:57Z</time>
      </trkpt>
      <trkpt lat="49.32277" lon="0.96054">
        <ele>109.246948</ele>
        <time>2009-06-28T09:28:00Z</time>
      </trkpt>
      <trkpt lat="49.32281" lon="0.96048">
        <ele>110.208252</ele>
        <time>2009-06-28T09:28:06Z</time>
      </trkpt>
      <trkpt lat="49.32285" lon="0.96044">
        <ele>110.688843</ele>
        <time>2009-06-28T09:28:13Z</time>
      </trkpt>
      <trkpt lat="49.32287" lon="0.96044">
        <ele>110.688843</ele>
        <time>2009-06-28T09:28:18Z</time>
      </trkpt>
      <trkpt lat="49.32292" lon="0.96036">
        <ele>110.208252</ele>
        <time>2009-06-28T09:28:23Z</time>
      </trkpt>
      <trkpt lat="49.32295" lon="0.96029">
        <ele>110.208252</ele>
        <time>2009-06-28T09:28:27Z</time>
      </trkpt>
      <trkpt lat="49.32301" lon="0.96019">
        <ele>110.208252</ele>
        <time>2009-06-28T09:28:33Z</time>
      </trkpt>
      <trkpt lat="49.32306" lon="0.96011">
        <ele>109.246948</ele>
        <time>2009-06-28T09:28:39Z</time>
      </trkpt>
      <trkpt lat="49.32312" lon="0.96003">
        <ele>108.285645</ele>
        <time>2009-06-28T09:28:45Z</time>
      </trkpt>
      <trkpt lat="49.32316" lon="0.95997">
        <ele>107.805054</ele>
        <time>2009-06-28T09:28:50Z</time>
      </trkpt>
      <trkpt lat="49.32326" lon="0.95982">
        <ele>109.727661</ele>
        <time>2009-06-28T09:28:58Z</time>
      </trkpt>
      <trkpt lat="49.32333" lon="0.95969">
        <ele>111.169556</ele>
        <time>2009-06-28T09:29:06Z</time>
      </trkpt>
      <trkpt lat="49.32341" lon="0.95959">
        <ele>112.130981</ele>
        <time>2009-06-28T09:29:14Z</time>
      </trkpt>
      <trkpt lat="49.32344" lon="0.95954">
        <ele>112.130981</ele>
        <time>2009-06-28T09:29:18Z</time>
      </trkpt>
      <trkpt lat="49.32348" lon="0.95945">
        <ele>112.130981</ele>
        <time>2009-06-28T09:29:24Z</time>
      </trkpt>
      <trkpt lat="49.32355" lon="0.95932">
        <ele>113.092285</ele>
        <time>2009-06-28T09:29:33Z</time>
      </trkpt>
      <trkpt lat="49.32358" lon="0.95921">
        <ele>115.495605</ele>
        <time>2009-06-28T09:29:41Z</time>
      </trkpt>
      <trkpt lat="49.32364" lon="0.9591">
        <ele>117.418213</ele>
        <time>2009-06-28T09:29:48Z</time>
      </trkpt>
      <trkpt lat="49.32366" lon="0.95904">
        <ele>118.379395</ele>
        <time>2009-06-28T09:29:52Z</time>
      </trkpt>
      <trkpt lat="49.32367" lon="0.959">
        <ele>118.379395</ele>
        <time>2009-06-28T09:29:55Z</time>
      </trkpt>
      <trkpt lat="49.32371" lon="0.95891">
        <ele>120.302124</ele>
        <time>2009-06-28T09:30:03Z</time>
      </trkpt>
      <trkpt lat="49.32373" lon="0.95889">
        <ele>120.302124</ele>
        <time>2009-06-28T09:30:05Z</time>
      </trkpt>
      <trkpt lat="49.32378" lon="0.95879">
        <ele>120.302124</ele>
        <time>2009-06-28T09:30:12Z</time>
      </trkpt>
      <trkpt lat="49.32382" lon="0.95873">
        <ele>120.782837</ele>
        <time>2009-06-28T09:30:18Z</time>
      </trkpt>
      <trkpt lat="49.32387" lon="0.95863">
        <ele>127.511963</ele>
        <time>2009-06-28T09:31:02Z</time>
      </trkpt>
      <trkpt lat="49.3239" lon="0.95858">
        <ele>127.511963</ele>
        <time>2009-06-28T09:31:09Z</time>
      </trkpt>
      <trkpt lat="49.32397" lon="0.9585">
        <ele>127.511963</ele>
        <time>2009-06-28T09:31:16Z</time>
      </trkpt>
      <trkpt lat="49.32402" lon="0.95842">
        <ele>128.473389</ele>
        <time>2009-06-28T09:31:23Z</time>
      </trkpt>
      <trkpt lat="49.3241" lon="0.95841">
        <ele>129.915283</ele>
        <time>2009-06-28T09:31:31Z</time>
      </trkpt>
      <trkpt lat="49.32414" lon="0.95842">
        <ele>130.395996</ele>
        <time>2009-06-28T09:31:36Z</time>
      </trkpt>
      <trkpt lat="49.32416" lon="0.95843">
        <ele>130.395996</ele>
        <time>2009-06-28T09:31:38Z</time>
      </trkpt>
      <trkpt lat="49.32422" lon="0.95852">
        <ele>130.876709</ele>
        <time>2009-06-28T09:31:46Z</time>
      </trkpt>
      <trkpt lat="49.32422" lon="0.95852">
        <ele>131.3573</ele>
        <time>2009-06-28T09:31:50Z</time>
      </trkpt>
      <trkpt lat="49.32424" lon="0.95855">
        <ele>131.3573</ele>
        <time>2009-06-28T09:31:57Z</time>
      </trkpt>
      <trkpt lat="49.32424" lon="0.95855">
        <ele>131.3573</ele>
        <time>2009-06-28T09:31:58Z</time>
      </trkpt>
      <trkpt lat="49.32429" lon="0.95864">
        <ele>131.837891</ele>
        <time>2009-06-28T09:32:06Z</time>
      </trkpt>
      <trkpt lat="49.32434" lon="0.95881">
        <ele>131.3573</ele>
        <time>2009-06-28T09:32:13Z</time>
      </trkpt>
      <trkpt lat="49.32434" lon="0.95901">
        <ele>131.3573</ele>
        <time>2009-06-28T09:32:18Z</time>
      </trkpt>
      <trkpt lat="49.32431" lon="0.95919">
        <ele>132.318604</ele>
        <time>2009-06-28T09:32:23Z</time>
      </trkpt>
      <trkpt lat="49.32429" lon="0.95932">
        <ele>132.318604</ele>
        <time>2009-06-28T09:32:26Z</time>
      </trkpt>
      <trkpt lat="49.32431" lon="0.95956">
        <ele>132.318604</ele>
        <time>2009-06-28T09:32:30Z</time>
      </trkpt>
      <trkpt lat="49.32429" lon="0.95985">
        <ele>132.318604</ele>
        <time>2009-06-28T09:32:34Z</time>
      </trkpt>
      <trkpt lat="49.32419" lon="0.96022">
        <ele>132.799316</ele>
        <time>2009-06-28T09:32:40Z</time>
      </trkpt>
      <trkpt lat="49.32407" lon="0.96058">
        <ele>134.721924</ele>
        <time>2009-06-28T09:32:45Z</time>
      </trkpt>
      <trkpt lat="49.32406" lon="0.96083">
        <ele>136.644653</ele>
        <time>2009-06-28T09:32:48Z</time>
      </trkpt>
      <trkpt lat="49.32397" lon="0.96121">
        <ele>140.489868</ele>
        <time>2009-06-28T09:32:53Z</time>
      </trkpt>
      <trkpt lat="49.32392" lon="0.96143">
        <ele>142.893066</ele>
        <time>2009-06-28T09:32:56Z</time>
      </trkpt>
      <trkpt lat="49.32389" lon="0.96166">
        <ele>145.7771</ele>
        <time>2009-06-28T09:32:59Z</time>
      </trkpt>
      <trkpt lat="49.32386" lon="0.96184">
        <ele>147.699707</ele>
        <time>2009-06-28T09:33:01Z</time>
      </trkpt>
      <trkpt lat="49.32383" lon="0.96223">
        <ele>152.025757</ele>
        <time>2009-06-28T09:33:06Z</time>
      </trkpt>
      <trkpt lat="49.32376" lon="0.96256">
        <ele>154.909546</ele>
        <time>2009-06-28T09:33:10Z</time>
      </trkpt>
      <trkpt lat="49.32364" lon="0.96297">
        <ele>155.390259</ele>
        <time>2009-06-28T09:33:15Z</time>
      </trkpt>
      <trkpt lat="49.32356" lon="0.96336">
        <ele>155.870972</ele>
        <time>2009-06-28T09:33:20Z</time>
      </trkpt>
      <trkpt lat="49.3235" lon="0.96366">
        <ele>156.351563</ele>
        <time>2009-06-28T09:33:24Z</time>
      </trkpt>
      <trkpt lat="49.32346" lon="0.96383">
        <ele>156.832153</ele>
        <time>2009-06-28T09:33:26Z</time>
      </trkpt>
      <trkpt lat="49.32343" lon="0.96409">
        <ele>157.793579</ele>
        <time>2009-06-28T09:33:29Z</time>
      </trkpt>
      <trkpt lat="49.32342" lon="0.96433">
        <ele>158.754761</ele>
        <time>2009-06-28T09:33:32Z</time>
      </trkpt>
      <trkpt lat="49.32337" lon="0.96476">
        <ele>160.196899</ele>
        <time>2009-06-28T09:33:37Z</time>
      </trkpt>
      <trkpt lat="49.32337" lon="0.96543">
        <ele>158.754761</ele>
        <time>2009-06-28T09:33:44Z</time>
      </trkpt>
      <trkpt lat="49.32342" lon="0.96579">
        <ele>156.832153</ele>
        <time>2009-06-28T09:33:48Z</time>
      </trkpt>
      <trkpt lat="49.32345" lon="0.96615">
        <ele>153.467651</ele>
        <time>2009-06-28T09:33:53Z</time>
      </trkpt>
      <trkpt lat="49.32346" lon="0.96639">
        <ele>150.103027</ele>
        <time>2009-06-28T09:33:57Z</time>
      </trkpt>
      <trkpt lat="49.32346" lon="0.96646">
        <ele>149.141602</ele>
        <time>2009-06-28T09:33:58Z</time>
      </trkpt>
      <trkpt lat="49.32351" lon="0.96675">
        <ele>145.296387</ele>
        <time>2009-06-28T09:34:04Z</time>
      </trkpt>
      <trkpt lat="49.32355" lon="0.9671">
        <ele>141.45105</ele>
        <time>2009-06-28T09:34:10Z</time>
      </trkpt>
      <trkpt lat="49.32356" lon="0.96734">
        <ele>137.605835</ele>
        <time>2009-06-28T09:34:30Z</time>
      </trkpt>
      <trkpt lat="49.32355" lon="0.96736">
        <ele>137.605835</ele>
        <time>2009-06-28T09:34:31Z</time>
      </trkpt>
      <trkpt lat="49.32352" lon="0.96746">
        <ele>137.125244</ele>
        <time>2009-06-28T09:34:36Z</time>
      </trkpt>
      <trkpt lat="49.32351" lon="0.9676">
        <ele>137.125244</ele>
        <time>2009-06-28T09:34:46Z</time>
      </trkpt>
      <trkpt lat="49.32353" lon="0.96777">
        <ele>135.202515</ele>
        <time>2009-06-28T09:34:51Z</time>
      </trkpt>
      <trkpt lat="49.32356" lon="0.96786">
        <ele>133.760498</ele>
        <time>2009-06-28T09:34:56Z</time>
      </trkpt>
      <trkpt lat="49.32358" lon="0.96794">
        <ele>130.876709</ele>
        <time>2009-06-28T09:35:03Z</time>
      </trkpt>
      <trkpt lat="49.32359" lon="0.968">
        <ele>129.434692</ele>
        <time>2009-06-28T09:35:08Z</time>
      </trkpt>
      <trkpt lat="49.32356" lon="0.96807">
        <ele>127.992554</ele>
        <time>2009-06-28T09:35:13Z</time>
      </trkpt>
      <trkpt lat="49.32354" lon="0.96811">
        <ele>127.511963</ele>
        <time>2009-06-28T09:35:18Z</time>
      </trkpt>
      <trkpt lat="49.32354" lon="0.96812">
        <ele>127.511963</ele>
        <time>2009-06-28T09:35:19Z</time>
      </trkpt>
      <trkpt lat="49.3235" lon="0.96823">
        <ele>126.069946</ele>
        <time>2009-06-28T09:35:26Z</time>
      </trkpt>
      <trkpt lat="49.32349" lon="0.96829">
        <ele>125.589355</ele>
        <time>2009-06-28T09:35:35Z</time>
      </trkpt>
      <trkpt lat="49.32347" lon="0.96836">
        <ele>124.628052</ele>
        <time>2009-06-28T09:35:43Z</time>
      </trkpt>
      <trkpt lat="49.32345" lon="0.96846">
        <ele>123.186157</ele>
        <time>2009-06-28T09:35:48Z</time>
      </trkpt>
      <trkpt lat="49.32346" lon="0.96854">
        <ele>123.666748</ele>
        <time>2009-06-28T09:35:52Z</time>
      </trkpt>
      <trkpt lat="49.32345" lon="0.96861">
        <ele>123.666748</ele>
        <time>2009-06-28T09:35:56Z</time>
      </trkpt>
      <trkpt lat="49.32344" lon="0.9687">
        <ele>124.628052</ele>
        <time>2009-06-28T09:36:02Z</time>
      </trkpt>
      <trkpt lat="49.32344" lon="0.96879">
        <ele>125.108765</ele>
        <time>2009-06-28T09:36:07Z</time>
      </trkpt>
      <trkpt lat="49.32343" lon="0.96885">
        <ele>125.108765</ele>
        <time>2009-06-28T09:36:10Z</time>
      </trkpt>
      <trkpt lat="49.32334" lon="0.96903">
        <ele>125.589355</ele>
        <time>2009-06-28T09:36:16Z</time>
      </trkpt>
      <trkpt lat="49.32332" lon="0.96913">
        <ele>126.069946</ele>
        <time>2009-06-28T09:36:20Z</time>
      </trkpt>
      <trkpt lat="49.3233" lon="0.96923">
        <ele>126.069946</ele>
        <time>2009-06-28T09:36:24Z</time>
      </trkpt>
      <trkpt lat="49.3233" lon="0.96929">
        <ele>127.031372</ele>
        <time>2009-06-28T09:36:28Z</time>
      </trkpt>
      <trkpt lat="49.32329" lon="0.96935">
        <ele>128.473389</ele>
        <time>2009-06-28T09:36:37Z</time>
      </trkpt>
      <trkpt lat="49.32327" lon="0.96947">
        <ele>128.473389</ele>
        <time>2009-06-28T09:36:48Z</time>
      </trkpt>
      <trkpt lat="49.32327" lon="0.9695">
        <ele>128.473389</ele>
        <time>2009-06-28T09:36:50Z</time>
      </trkpt>
      <trkpt lat="49.32326" lon="0.96962">
        <ele>128.954102</ele>
        <time>2009-06-28T09:36:56Z</time>
      </trkpt>
      <trkpt lat="49.32328" lon="0.9697">
        <ele>128.954102</ele>
        <time>2009-06-28T09:37:01Z</time>
      </trkpt>
      <trkpt lat="49.32326" lon="0.96979">
        <ele>127.992554</ele>
        <time>2009-06-28T09:37:05Z</time>
      </trkpt>
      <trkpt lat="49.32325" lon="0.96995">
        <ele>127.511963</ele>
        <time>2009-06-28T09:37:11Z</time>
      </trkpt>
      <trkpt lat="49.32323" lon="0.97004">
        <ele>126.550659</ele>
        <time>2009-06-28T09:37:15Z</time>
      </trkpt>
      <trkpt lat="49.32325" lon="0.97022">
        <ele>123.666748</ele>
        <time>2009-06-28T09:37:21Z</time>
      </trkpt>
      <trkpt lat="49.32327" lon="0.97034">
        <ele>119.821411</ele>
        <time>2009-06-28T09:37:25Z</time>
      </trkpt>
      <trkpt lat="49.32326" lon="0.9704">
        <ele>118.379395</ele>
        <time>2009-06-28T09:37:27Z</time>
      </trkpt>
      <trkpt lat="49.32325" lon="0.97052">
        <ele>115.495605</ele>
        <time>2009-06-28T09:37:31Z</time>
      </trkpt>
      <trkpt lat="49.32325" lon="0.97069">
        <ele>111.650269</ele>
        <time>2009-06-28T09:37:36Z</time>
      </trkpt>
      <trkpt lat="49.32331" lon="0.97095">
        <ele>105.882446</ele>
        <time>2009-06-28T09:37:41Z</time>
      </trkpt>
      <trkpt lat="49.32334" lon="0.97104">
        <ele>103.479004</ele>
        <time>2009-06-28T09:37:43Z</time>
      </trkpt>
      <trkpt lat="49.32337" lon="0.97113">
        <ele>101.556396</ele>
        <time>2009-06-28T09:37:45Z</time>
      </trkpt>
      <trkpt lat="49.32344" lon="0.97128">
        <ele>97.230469</ele>
        <time>2009-06-28T09:37:49Z</time>
      </trkpt>
      <trkpt lat="49.32352" lon="0.97146">
        <ele>92.42395</ele>
        <time>2009-06-28T09:37:53Z</time>
      </trkpt>
      <trkpt lat="49.32361" lon="0.9716">
        <ele>87.136597</ele>
        <time>2009-06-28T09:37:58Z</time>
      </trkpt>
      <trkpt lat="49.32365" lon="0.97166">
        <ele>83.771973</ele>
        <time>2009-06-28T09:38:03Z</time>
      </trkpt>
      <trkpt lat="49.32371" lon="0.97176">
        <ele>82.330078</ele>
        <time>2009-06-28T09:38:08Z</time>
      </trkpt>
      <trkpt lat="49.32373" lon="0.97184">
        <ele>79.926636</ele>
        <time>2009-06-28T09:38:13Z</time>
      </trkpt>
      <trkpt lat="49.32374" lon="0.97186">
        <ele>79.926636</ele>
        <time>2009-06-28T09:38:14Z</time>
      </trkpt>
      <trkpt lat="49.32377" lon="0.9719">
        <ele>78.965454</ele>
        <time>2009-06-28T09:38:17Z</time>
      </trkpt>
      <trkpt lat="49.32386" lon="0.97195">
        <ele>77.523438</ele>
        <time>2009-06-28T09:38:22Z</time>
      </trkpt>
      <trkpt lat="49.3239" lon="0.97203">
        <ele>76.562134</ele>
        <time>2009-06-28T09:38:26Z</time>
      </trkpt>
      <trkpt lat="49.32391" lon="0.97207">
        <ele>75.60083</ele>
        <time>2009-06-28T09:38:28Z</time>
      </trkpt>
      <trkpt lat="49.32398" lon="0.97218">
        <ele>72.236206</ele>
        <time>2009-06-28T09:38:33Z</time>
      </trkpt>
      <trkpt lat="49.32407" lon="0.97235">
        <ele>69.352295</ele>
        <time>2009-06-28T09:38:38Z</time>
      </trkpt>
      <trkpt lat="49.32409" lon="0.97238">
        <ele>68.871582</ele>
        <time>2009-06-28T09:38:39Z</time>
      </trkpt>
      <trkpt lat="49.32413" lon="0.97245">
        <ele>67.910278</ele>
        <time>2009-06-28T09:38:41Z</time>
      </trkpt>
      <trkpt lat="49.3242" lon="0.97264">
        <ele>64.545654</ele>
        <time>2009-06-28T09:38:46Z</time>
      </trkpt>
      <trkpt lat="49.32433" lon="0.97291">
        <ele>61.661743</ele>
        <time>2009-06-28T09:38:55Z</time>
      </trkpt>
      <trkpt lat="49.32436" lon="0.97294">
        <ele>61.661743</ele>
        <time>2009-06-28T09:38:56Z</time>
      </trkpt>
      <trkpt lat="49.32443" lon="0.97312">
        <ele>62.142334</ele>
        <time>2009-06-28T09:39:01Z</time>
      </trkpt>
      <trkpt lat="49.32451" lon="0.97336">
        <ele>61.661743</ele>
        <time>2009-06-28T09:39:06Z</time>
      </trkpt>
      <trkpt lat="49.32455" lon="0.97343">
        <ele>60.700317</ele>
        <time>2009-06-28T09:39:09Z</time>
      </trkpt>
      <trkpt lat="49.32465" lon="0.9735">
        <ele>58.297119</ele>
        <time>2009-06-28T09:39:14Z</time>
      </trkpt>
      <trkpt lat="49.32467" lon="0.97351">
        <ele>58.77771</ele>
        <time>2009-06-28T09:39:20Z</time>
      </trkpt>
      <trkpt lat="49.32471" lon="0.97352">
        <ele>59.258423</ele>
        <time>2009-06-28T09:39:27Z</time>
      </trkpt>
      <trkpt lat="49.32474" lon="0.97348">
        <ele>61.661743</ele>
        <time>2009-06-28T09:39:33Z</time>
      </trkpt>
      <trkpt lat="49.32478" lon="0.9734">
        <ele>65.026367</ele>
        <time>2009-06-28T09:39:40Z</time>
      </trkpt>
      <trkpt lat="49.32481" lon="0.97337">
        <ele>66.948975</ele>
        <time>2009-06-28T09:39:45Z</time>
      </trkpt>
      <trkpt lat="49.32482" lon="0.97334">
        <ele>67.429688</ele>
        <time>2009-06-28T09:39:47Z</time>
      </trkpt>
      <trkpt lat="49.32484" lon="0.97332">
        <ele>69.832886</ele>
        <time>2009-06-28T09:39:54Z</time>
      </trkpt>
      <trkpt lat="49.3249" lon="0.97324">
        <ele>70.313477</ele>
        <time>2009-06-28T09:40:05Z</time>
      </trkpt>
      <trkpt lat="49.32495" lon="0.97318">
        <ele>71.274902</ele>
        <time>2009-06-28T09:40:07Z</time>
      </trkpt>
      <trkpt lat="49.32505" lon="0.97304">
        <ele>72.236206</ele>
        <time>2009-06-28T09:40:10Z</time>
      </trkpt>
      <trkpt lat="49.32517" lon="0.97288">
        <ele>73.197632</ele>
        <time>2009-06-28T09:40:13Z</time>
      </trkpt>
      <trkpt lat="49.32524" lon="0.97274">
        <ele>75.60083</ele>
        <time>2009-06-28T09:40:17Z</time>
      </trkpt>
      <trkpt lat="49.32528" lon="0.97268">
        <ele>77.523438</ele>
        <time>2009-06-28T09:40:21Z</time>
      </trkpt>
      <trkpt lat="49.32538" lon="0.97253">
        <ele>80.888184</ele>
        <time>2009-06-28T09:40:29Z</time>
      </trkpt>
      <trkpt lat="49.32544" lon="0.97241">
        <ele>82.330078</ele>
        <time>2009-06-28T09:40:34Z</time>
      </trkpt>
      <trkpt lat="49.32554" lon="0.97231">
        <ele>82.810791</ele>
        <time>2009-06-28T09:40:40Z</time>
      </trkpt>
      <trkpt lat="49.32565" lon="0.97212">
        <ele>79.926636</ele>
        <time>2009-06-28T09:40:45Z</time>
      </trkpt>
      <trkpt lat="49.32606" lon="0.97075">
        <ele>59.1953125</ele>
      </trkpt>
      <trkpt lat="49.32632" lon="0.97121">
        <ele>46.5</ele>
        <time>2012-08-20T14:22:41Z</time>
      </trkpt>
      <trkpt lat="49.32632" lon="0.97121">
        <ele>46.5</ele>
        <time>2012-08-20T14:23:01Z</time>
      </trkpt>
      <trkpt lat="49.32655" lon="0.97126">
        <ele>57</ele>
        <time>2012-08-20T14:23:07Z</time>
      </trkpt>
      <trkpt lat="49.32672" lon="0.97111">
        <ele>58.4</ele>
        <time>2012-08-20T14:23:13Z</time>
      </trkpt>
      <trkpt lat="49.32684" lon="0.97097">
        <ele>64</ele>
        <time>2012-08-20T14:23:17Z</time>
      </trkpt>
      <trkpt lat="49.32696" lon="0.97075">
        <ele>69.5</ele>
        <time>2012-08-20T14:23:25Z</time>
      </trkpt>
      <trkpt lat="49.3272" lon="0.97055">
        <ele>79.9</ele>
        <time>2012-08-20T14:23:42Z</time>
      </trkpt>
      <trkpt lat="49.32734" lon="0.97034">
        <ele>78.5</ele>
        <time>2012-08-20T14:23:53Z</time>
      </trkpt>
      <trkpt lat="49.32749" lon="0.97023">
        <ele>79.6</ele>
        <time>2012-08-20T14:23:59Z</time>
      </trkpt>
      <trkpt lat="49.32763" lon="0.97017">
        <ele>80.3</ele>
        <time>2012-08-20T14:24:03Z</time>
      </trkpt>
      <trkpt lat="49.32779" lon="0.97009">
        <ele>79.4</ele>
        <time>2012-08-20T14:24:07Z</time>
      </trkpt>
      <trkpt lat="49.32802" lon="0.97005">
        <ele>83.8</ele>
        <time>2012-08-20T14:24:13Z</time>
      </trkpt>
      <trkpt lat="49.32828" lon="0.97001">
        <ele>79.8</ele>
        <time>2012-08-20T14:24:22Z</time>
      </trkpt>
      <trkpt lat="49.3284" lon="0.97012">
        <ele>83.6</ele>
        <time>2012-08-20T14:24:25Z</time>
      </trkpt>
      <trkpt lat="49.32857" lon="0.97012">
        <ele>85.3</ele>
        <time>2012-08-20T14:24:31Z</time>
      </trkpt>
      <trkpt lat="49.32874" lon="0.9701">
        <ele>83.3</ele>
        <time>2012-08-20T14:24:51Z</time>
      </trkpt>
      <trkpt lat="49.32874" lon="0.9701">
        <ele>83.3</ele>
        <time>2012-08-20T14:25:11Z</time>
      </trkpt>
      <trkpt lat="49.32905" lon="0.97035">
        <ele>71.4</ele>
        <time>2012-08-20T14:25:16Z</time>
      </trkpt>
      <trkpt lat="49.32914" lon="0.97039">
        <ele>84.8</ele>
        <time>2012-08-20T14:25:36Z</time>
      </trkpt>
      <trkpt lat="49.32914" lon="0.97039">
        <ele>84.8</ele>
        <time>2012-08-20T14:25:56Z</time>
      </trkpt>
      <trkpt lat="49.32948" lon="0.97057">
        <ele>68.8</ele>
        <time>2012-08-20T14:26:12Z</time>
      </trkpt>
      <trkpt lat="49.32967" lon="0.97088">
        <ele>70.6</ele>
        <time>2012-08-20T14:26:19Z</time>
      </trkpt>
      <trkpt lat="49.32959" lon="0.97109">
        <ele>65.6</ele>
        <time>2012-08-20T14:26:27Z</time>
      </trkpt>
      <trkpt lat="49.32947" lon="0.97111">
        <ele>65.8</ele>
        <time>2012-08-20T14:26:47Z</time>
      </trkpt>
      <trkpt lat="49.32947" lon="0.97111">
        <ele>65.8</ele>
        <time>2012-08-20T14:27:07Z</time>
      </trkpt>
      <trkpt lat="49.32947" lon="0.97111">
        <ele>65.8</ele>
        <time>2012-08-20T14:27:28Z</time>
      </trkpt>
      <trkpt lat="49.32947" lon="0.97111">
        <ele>65.8</ele>
        <time>2012-08-20T14:27:48Z</time>
      </trkpt>
      <trkpt lat="49.32947" lon="0.97111">
        <ele>65.8</ele>
        <time>2012-08-20T14:28:08Z</time>
      </trkpt>
      <trkpt lat="49.32947" lon="0.97111">
        <ele>65.8</ele>
        <time>2012-08-20T14:28:28Z</time>
      </trkpt>
      <trkpt lat="49.33016" lon="0.97152">
        <ele>79.6</ele>
        <time>2012-08-20T14:28:36Z</time>
      </trkpt>
      <trkpt lat="49.33042" lon="0.97164">
        <ele>78.8</ele>
        <time>2012-08-20T14:28:47Z</time>
      </trkpt>
      <trkpt lat="49.3305" lon="0.97163">
        <ele>76.1</ele>
        <time>2012-08-20T14:29:07Z</time>
      </trkpt>
      <trkpt lat="49.3305" lon="0.97163">
        <ele>76.1</ele>
        <time>2012-08-20T14:29:27Z</time>
      </trkpt>
      <trkpt lat="49.3305" lon="0.97163">
        <ele>76.1</ele>
        <time>2012-08-20T14:29:47Z</time>
      </trkpt>
      <trkpt lat="49.331" lon="0.97189">
        <ele>72.1</ele>
        <time>2012-08-20T14:29:52Z</time>
      </trkpt>
      <trkpt lat="49.33093" lon="0.9721">
        <ele>70.3</ele>
        <time>2012-08-20T14:29:56Z</time>
      </trkpt>
      <trkpt lat="49.33079" lon="0.97222">
        <ele>64</ele>
        <time>2012-08-20T14:30:01Z</time>
      </trkpt>
      <trkpt lat="49.33085" lon="0.97228">
        <ele>61.5</ele>
        <time>2012-08-20T14:30:22Z</time>
      </trkpt>
      <trkpt lat="49.33099" lon="0.97224">
        <ele>62.5</ele>
        <time>2012-08-20T14:30:25Z</time>
      </trkpt>
      <trkpt lat="49.33121" lon="0.97203">
        <ele>55.2</ele>
        <time>2012-08-20T14:30:33Z</time>
      </trkpt>
      <trkpt lat="49.33136" lon="0.97225">
        <ele>48.2</ele>
        <time>2012-08-20T14:30:40Z</time>
      </trkpt>
      <trkpt lat="49.33135" lon="0.97246">
        <ele>46.5</ele>
        <time>2012-08-20T14:30:45Z</time>
      </trkpt>
      <trkpt lat="49.33125" lon="0.97263">
        <ele>45.4</ele>
        <time>2012-08-20T14:30:50Z</time>
      </trkpt>
      <trkpt lat="49.33098" lon="0.97325">
        <ele>43</ele>
        <time>2012-08-20T14:31:00Z</time>
      </trkpt>
      <trkpt lat="49.33073" lon="0.97359">
        <ele>44</ele>
        <time>2012-08-20T14:31:12Z</time>
      </trkpt>
      <trkpt lat="49.33067" lon="0.9738">
        <ele>40</ele>
        <time>2012-08-20T14:31:28Z</time>
      </trkpt>
      <trkpt lat="49.33101" lon="0.97346">
        <ele>31.7</ele>
        <time>2012-08-20T14:31:40Z</time>
      </trkpt>
      <trkpt lat="49.33115" lon="0.97335">
        <ele>29.3</ele>
        <time>2012-08-20T14:31:44Z</time>
      </trkpt>
      <trkpt lat="49.33136" lon="0.9731">
        <ele>28.7</ele>
        <time>2012-08-20T14:31:52Z</time>
      </trkpt>
      <trkpt lat="49.33143" lon="0.97295">
        <ele>27</ele>
        <time>2012-08-20T14:32:12Z</time>
      </trkpt>
      <trkpt lat="49.33143" lon="0.97295">
        <ele>27</ele>
        <time>2012-08-20T14:32:32Z</time>
      </trkpt>
      <trkpt lat="49.33143" lon="0.97295">
        <ele>27</ele>
        <time>2012-08-20T14:32:52Z</time>
      </trkpt>
      <trkpt lat="49.33143" lon="0.97295">
        <ele>27</ele>
        <time>2012-08-20T14:33:12Z</time>
      </trkpt>
      <trkpt lat="49.33143" lon="0.97295">
        <ele>27</ele>
        <time>2012-08-20T14:33:32Z</time>
      </trkpt>
      <trkpt lat="49.33143" lon="0.97295">
        <ele>27</ele>
        <time>2012-08-20T14:33:52Z</time>
      </trkpt>
      <trkpt lat="49.33143" lon="0.97295">
        <ele>27</ele>
        <time>2012-08-20T14:34:12Z</time>
      </trkpt>
      <trkpt lat="49.33143" lon="0.97295">
        <ele>27</ele>
        <time>2012-08-20T14:34:32Z</time>
      </trkpt>
      <trkpt lat="49.33143" lon="0.97295">
        <ele>27</ele>
        <time>2012-08-20T14:34:52Z</time>
      </trkpt>
      <trkpt lat="49.33143" lon="0.97295">
        <ele>27</ele>
        <time>2012-08-20T14:35:12Z</time>
      </trkpt>
      <trkpt lat="49.33143" lon="0.97295">
        <ele>27</ele>
        <time>2012-08-20T14:36:27Z</time>
      </trkpt>
      <trkpt lat="49.33143" lon="0.97295">
        <ele>27</ele>
        <time>2012-08-20T14:36:47Z</time>
      </trkpt>
      <trkpt lat="49.33143" lon="0.97295">
        <ele>27</ele>
        <time>2012-08-20T14:37:07Z</time>
      </trkpt>
      <trkpt lat="49.33149" lon="0.97171">
        <ele>51.5</ele>
        <time>2012-08-20T14:37:26Z</time>
      </trkpt>
      <trkpt lat="49.33164" lon="0.97174">
        <ele>49.4</ele>
        <time>2012-08-20T14:37:32Z</time>
      </trkpt>
      <trkpt lat="49.33179" lon="0.97181">
        <ele>51</ele>
        <time>2012-08-20T14:37:40Z</time>
      </trkpt>
      <trkpt lat="49.3319" lon="0.97193">
        <ele>54.9</ele>
        <time>2012-08-20T14:37:45Z</time>
      </trkpt>
      <trkpt lat="49.33203" lon="0.97203">
        <ele>52.2</ele>
        <time>2012-08-20T14:37:51Z</time>
      </trkpt>
      <trkpt lat="49.33217" lon="0.9722">
        <ele>46.7</ele>
        <time>2012-08-20T14:38:11Z</time>
      </trkpt>
      <trkpt lat="49.33309" lon="0.97298">
        <ele>56.374512</ele>
        <time>2009-06-28T09:59:39Z</time>
      </trkpt>
      <trkpt lat="49.33342" lon="0.97322">
        <ele>57.335815</ele>
        <time>2009-06-28T09:59:48Z</time>
      </trkpt>
      <trkpt lat="49.3335" lon="0.9733">
        <ele>57.335815</ele>
        <time>2009-06-28T09:59:53Z</time>
      </trkpt>
      <trkpt lat="49.33365" lon="0.97342">
        <ele>57.335815</ele>
        <time>2009-06-28T10:00:00Z</time>
      </trkpt>
      <trkpt lat="49.33388" lon="0.9736">
        <ele>53.971191</ele>
        <time>2009-06-28T10:00:09Z</time>
      </trkpt>
      <trkpt lat="49.33405" lon="0.97373">
        <ele>50.125977</ele>
        <time>2009-06-28T10:00:15Z</time>
      </trkpt>
      <trkpt lat="49.33431" lon="0.97395">
        <ele>45.319214</ele>
        <time>2009-06-28T10:00:24Z</time>
      </trkpt>
      <trkpt lat="49.3344" lon="0.974">
        <ele>45.319214</ele>
        <time>2009-06-28T10:00:29Z</time>
      </trkpt>
      <trkpt lat="49.33453" lon="0.97411">
        <ele>44.838623</ele>
        <time>2009-06-28T10:00:36Z</time>
      </trkpt>
      <trkpt lat="49.33472" lon="0.97428">
        <ele>43.877319</ele>
        <time>2009-06-28T10:00:44Z</time>
      </trkpt>
      <trkpt lat="49.33481" lon="0.97431">
        <ele>45.319214</ele>
        <time>2009-06-28T10:00:47Z</time>
      </trkpt>
      <trkpt lat="49.33504" lon="0.97454">
        <ele>42.435425</ele>
        <time>2009-06-28T10:00:56Z</time>
      </trkpt>
      <trkpt lat="49.33529" lon="0.97472">
        <ele>33.783447</ele>
        <time>2009-06-28T10:01:06Z</time>
      </trkpt>
      <trkpt lat="49.33532" lon="0.97476">
        <ele>31.380127</ele>
        <time>2009-06-28T10:01:08Z</time>
      </trkpt>
      <trkpt lat="49.33535" lon="0.97482">
        <ele>25.612305</ele>
        <time>2009-06-28T10:01:13Z</time>
      </trkpt>
      <trkpt lat="49.33538" lon="0.97495">
        <ele>34.744873</ele>
        <time>2009-06-28T10:01:51Z</time>
      </trkpt>
      <trkpt lat="49.33547" lon="0.97498">
        <ele>35.225464</ele>
        <time>2009-06-28T10:01:57Z</time>
      </trkpt>
      <trkpt lat="49.33563" lon="0.97512">
        <ele>33.783447</ele>
        <time>2009-06-28T10:02:04Z</time>
      </trkpt>
      <trkpt lat="49.33576" lon="0.97516">
        <ele>28.976929</ele>
        <time>2009-06-28T10:02:10Z</time>
      </trkpt>
      <trkpt lat="49.33577" lon="0.97515">
        <ele>28.496216</ele>
        <time>2009-06-28T10:02:11Z</time>
      </trkpt>
      <trkpt lat="49.3359" lon="0.97503">
        <ele>27.534912</ele>
        <time>2009-06-28T10:02:27Z</time>
      </trkpt>
      <trkpt lat="49.34015" lon="0.97826">
        <ele>29.93811</ele>
        <time>2009-06-28T10:05:14Z</time>
      </trkpt>
      <trkpt lat="49.3403" lon="0.97843">
        <ele>30.899536</ele>
        <time>2009-06-28T10:05:22Z</time>
      </trkpt>
      <trkpt lat="49.34043" lon="0.97822">
        <ele>77.8203125</ele>
      </trkpt>
      <trkpt lat="49.34064" lon="0.97783">
        <ele>69.125</ele>
      </trkpt>
      <trkpt lat="49.34051" lon="0.97749">
        <ele>78.79296875</ele>
      </trkpt>
      <trkpt lat="49.34064" lon="0.97656">
        <ele>78.796875</ele>
      </trkpt>
      <trkpt lat="49.34071" lon="0.97594">
        <ele>74.98828125</ele>
      </trkpt>
      <trkpt lat="49.34066" lon="0.97545">
        <ele>72.109375</ele>
      </trkpt>
      <trkpt lat="49.34045" lon="0.97482">
        <ele>67.7734375</ele>
      </trkpt>
      <trkpt lat="49.34002" lon="0.97418">
        <ele>68.171875</ele>
      </trkpt>
      <trkpt lat="49.3397" lon="0.97371">
        <ele>76.06640625</ele>
      </trkpt>
      <trkpt lat="49.33965" lon="0.97336">
        <ele>79.9375</ele>
      </trkpt>
      <trkpt lat="49.33978" lon="0.97286">
        <ele>79.77734375</ele>
      </trkpt>
      <trkpt lat="49.33958" lon="0.97274">
        <ele>89.23046875</ele>
      </trkpt>
      <trkpt lat="49.33944" lon="0.97309">
        <ele>93</ele>
      </trkpt>
      <trkpt lat="49.33936" lon="0.97365">
        <ele>93</ele>
      </trkpt>
      <trkpt lat="49.33947" lon="0.97443">
        <ele>99</ele>
      </trkpt>
      <trkpt lat="49.3396" lon="0.97488">
        <ele>83</ele>
      </trkpt>
      <trkpt lat="49.33964" lon="0.97548">
        <ele>93</ele>
      </trkpt>
      <trkpt lat="49.33954" lon="0.97571">
        <ele>120</ele>
      </trkpt>
      <trkpt lat="49.33941" lon="0.97657">
        <ele>121</ele>
      </trkpt>
      <trkpt lat="49.33929" lon="0.9767">
        <ele>121</ele>
      </trkpt>
      <trkpt lat="49.33928" lon="0.97574">
        <ele>120</ele>
      </trkpt>
      <trkpt lat="49.33913" lon="0.97515">
        <ele>115</ele>
      </trkpt>
      <trkpt lat="49.33873" lon="0.97456">
        <ele>121</ele>
      </trkpt>
      <trkpt lat="49.33857" lon="0.97456">
        <ele>121</ele>
      </trkpt>
      <trkpt lat="49.3384" lon="0.97434">
        <ele>121</ele>
      </trkpt>
      <trkpt lat="49.33843" lon="0.97415">
        <ele>121</ele>
      </trkpt>
      <trkpt lat="49.33839" lon="0.97371">
        <ele>121</ele>
      </trkpt>
      <trkpt lat="49.33842" lon="0.97336">
        <ele>121</ele>
      </trkpt>
      <trkpt lat="49.33863" lon="0.97264">
        <ele>119</ele>
      </trkpt>
      <trkpt lat="49.33904" lon="0.97207">
        <ele>99</ele>
      </trkpt>
      <trkpt lat="49.33904" lon="0.97189">
        <ele>99</ele>
      </trkpt>
      <trkpt lat="49.33876" lon="0.97132">
        <ele>99</ele>
      </trkpt>
      <trkpt lat="49.33866" lon="0.97041">
        <ele>110</ele>
      </trkpt>
      <trkpt lat="49.33866" lon="0.96992">
        <ele>110</ele>
      </trkpt>
      <trkpt lat="49.33862" lon="0.96985">
        <ele>110</ele>
      </trkpt>
      <trkpt lat="49.33875" lon="0.96942">
        <ele>111</ele>
      </trkpt>
      <trkpt lat="49.33901" lon="0.96904">
        <ele>97</ele>
      </trkpt>
      <trkpt lat="49.3391" lon="0.96868">
        <ele>96</ele>
      </trkpt>
      <trkpt lat="49.33902" lon="0.96789">
        <ele>89</ele>
      </trkpt>
      <trkpt lat="49.3391" lon="0.96676">
        <ele>88</ele>
      </trkpt>
      <trkpt lat="49.3391" lon="0.96614">
        <ele>98</ele>
      </trkpt>
      <trkpt lat="49.33931" lon="0.9654">
        <ele>107</ele>
      </trkpt>
      <trkpt lat="49.33925" lon="0.96525">
        <ele>107</ele>
      </trkpt>
      <trkpt lat="49.33928" lon="0.96514">
        <ele>107</ele>
      </trkpt>
      <trkpt lat="49.33946" lon="0.96502">
        <ele>107</ele>
      </trkpt>
      <trkpt lat="49.33949" lon="0.96491">
        <ele>107</ele>
      </trkpt>
      <trkpt lat="49.33945" lon="0.96467">
        <ele>107</ele>
      </trkpt>
      <trkpt lat="49.33955" lon="0.96409">
        <ele>109</ele>
      </trkpt>
      <trkpt lat="49.33965" lon="0.9628">
        <ele>85</ele>
      </trkpt>
      <trkpt lat="49.33972" lon="0.96261">
        <ele>85</ele>
      </trkpt>
      <trkpt lat="49.33979" lon="0.96186">
        <ele>80</ele>
      </trkpt>
      <trkpt lat="49.33975" lon="0.96169">
        <ele>87.85546875</ele>
      </trkpt>
      <trkpt lat="49.33971" lon="0.96159">
        <ele>88.796875</ele>
      </trkpt>
      <trkpt lat="49.33963" lon="0.96176">
        <ele>73.197632</ele>
        <time>2009-06-28T07:06:33Z</time>
      </trkpt>
      <trkpt lat="49.33941" lon="0.96201">
        <ele>71.274902</ele>
        <time>2009-06-28T07:06:39Z</time>
      </trkpt>
      <trkpt lat="49.3393" lon="0.96221">
        <ele>72.236206</ele>
        <time>2009-06-28T07:06:45Z</time>
      </trkpt>
      <trkpt lat="49.33918" lon="0.9623">
        <ele>71.755493</ele>
        <time>2009-06-28T07:06:47Z</time>
      </trkpt>
      <trkpt lat="49.33884" lon="0.96243">
        <ele>72.716919</ele>
        <time>2009-06-28T07:06:52Z</time>
      </trkpt>
      <trkpt lat="49.3385" lon="0.96262">
        <ele>72.236206</ele>
        <time>2009-06-28T07:06:59Z</time>
      </trkpt>
      <trkpt lat="49.3383" lon="0.96283">
        <ele>68.390869</ele>
        <time>2009-06-28T07:07:05Z</time>
      </trkpt>
      <trkpt lat="49.33833" lon="0.9629">
        <ele>67.429688</ele>
        <time>2009-06-28T07:07:07Z</time>
      </trkpt>
      <trkpt lat="49.3384" lon="0.9629">
        <ele>66.948975</ele>
        <time>2009-06-28T07:07:12Z</time>
      </trkpt>
      <trkpt lat="49.33842" lon="0.9629">
        <ele>66.948975</ele>
        <time>2009-06-28T07:07:13Z</time>
      </trkpt>
      <trkpt lat="49.33858" lon="0.96289">
        <ele>66.948975</ele>
        <time>2009-06-28T07:07:19Z</time>
      </trkpt>
      <trkpt lat="49.33861" lon="0.96289">
        <ele>66.948975</ele>
        <time>2009-06-28T07:07:20Z</time>
      </trkpt>
      <trkpt lat="49.33868" lon="0.96299">
        <ele>68.390869</ele>
        <time>2009-06-28T07:07:25Z</time>
      </trkpt>
      <trkpt lat="49.33866" lon="0.96301">
        <ele>68.871582</ele>
        <time>2009-06-28T07:07:26Z</time>
      </trkpt>
      <trkpt lat="49.33853" lon="0.9631">
        <ele>71.755493</ele>
        <time>2009-06-28T07:07:32Z</time>
      </trkpt>
      <trkpt lat="49.33842" lon="0.96319">
        <ele>75.60083</ele>
        <time>2009-06-28T07:07:38Z</time>
      </trkpt>
      <trkpt lat="49.33836" lon="0.96324">
        <ele>76.562134</ele>
        <time>2009-06-28T07:07:41Z</time>
      </trkpt>
      <trkpt lat="49.33825" lon="0.96335">
        <ele>78.484741</ele>
        <time>2009-06-28T07:07:46Z</time>
      </trkpt>
      <trkpt lat="49.33823" lon="0.96338">
        <ele>78.965454</ele>
        <time>2009-06-28T07:07:47Z</time>
      </trkpt>
      <trkpt lat="49.33808" lon="0.96355">
        <ele>82.810791</ele>
        <time>2009-06-28T07:07:54Z</time>
      </trkpt>
      <trkpt lat="49.33801" lon="0.96366">
        <ele>83.771973</ele>
        <time>2009-06-28T07:07:58Z</time>
      </trkpt>
      <trkpt lat="49.33792" lon="0.9638">
        <ele>86.175293</ele>
        <time>2009-06-28T07:08:04Z</time>
      </trkpt>
      <trkpt lat="49.33773" lon="0.96406">
        <ele>84.252686</ele>
        <time>2009-06-28T07:08:11Z</time>
      </trkpt>
      <trkpt lat="49.33762" lon="0.96431">
        <ele>82.810791</ele>
        <time>2009-06-28T07:08:17Z</time>
      </trkpt>
      <trkpt lat="49.3375" lon="0.96436">
        <ele>83.771973</ele>
        <time>2009-06-28T07:08:21Z</time>
      </trkpt>
      <trkpt lat="49.33739" lon="0.96451">
        <ele>83.291382</ele>
        <time>2009-06-28T07:08:26Z</time>
      </trkpt>
      <trkpt lat="49.33739" lon="0.96467">
        <ele>83.291382</ele>
        <time>2009-06-28T07:08:30Z</time>
      </trkpt>
      <trkpt lat="49.33735" lon="0.96481">
        <ele>84.252686</ele>
        <time>2009-06-28T07:08:34Z</time>
      </trkpt>
      <trkpt lat="49.33733" lon="0.96498">
        <ele>85.69458</ele>
        <time>2009-06-28T07:08:39Z</time>
      </trkpt>
      <trkpt lat="49.3373" lon="0.96531">
        <ele>85.69458</ele>
        <time>2009-06-28T07:08:46Z</time>
      </trkpt>
      <trkpt lat="49.33728" lon="0.96549">
        <ele>86.175293</ele>
        <time>2009-06-28T07:08:50Z</time>
      </trkpt>
      <trkpt lat="49.33726" lon="0.96567">
        <ele>84.252686</ele>
        <time>2009-06-28T07:08:55Z</time>
      </trkpt>
      <trkpt lat="49.33721" lon="0.96594">
        <ele>80.407471</ele>
        <time>2009-06-28T07:09:00Z</time>
      </trkpt>
      <trkpt lat="49.33721" lon="0.96619">
        <ele>76.081421</ele>
        <time>2009-06-28T07:09:06Z</time>
      </trkpt>
      <trkpt lat="49.33719" lon="0.96634">
        <ele>75.60083</ele>
        <time>2009-06-28T07:09:11Z</time>
      </trkpt>
      <trkpt lat="49.33719" lon="0.96643">
        <ele>76.081421</ele>
        <time>2009-06-28T07:09:14Z</time>
      </trkpt>
      <trkpt lat="49.3372" lon="0.96654">
        <ele>77.042847</ele>
        <time>2009-06-28T07:09:18Z</time>
      </trkpt>
      <trkpt lat="49.33721" lon="0.9666">
        <ele>78.004028</ele>
        <time>2009-06-28T07:09:20Z</time>
      </trkpt>
      <trkpt lat="49.33721" lon="0.96678">
        <ele>77.042847</ele>
        <time>2009-06-28T07:09:25Z</time>
      </trkpt>
      <trkpt lat="49.33723" lon="0.96692">
        <ele>76.562134</ele>
        <time>2009-06-28T07:09:29Z</time>
      </trkpt>
      <trkpt lat="49.33723" lon="0.96701">
        <ele>76.081421</ele>
        <time>2009-06-28T07:09:31Z</time>
      </trkpt>
      <trkpt lat="49.33724" lon="0.96717">
        <ele>76.081421</ele>
        <time>2009-06-28T07:09:34Z</time>
      </trkpt>
      <trkpt lat="49.33722" lon="0.96734">
        <ele>77.042847</ele>
        <time>2009-06-28T07:09:38Z</time>
      </trkpt>
      <trkpt lat="49.33719" lon="0.96749">
        <ele>78.004028</ele>
        <time>2009-06-28T07:09:42Z</time>
      </trkpt>
      <trkpt lat="49.33718" lon="0.96764">
        <ele>79.926636</ele>
        <time>2009-06-28T07:09:46Z</time>
      </trkpt>
      <trkpt lat="49.33715" lon="0.96781">
        <ele>81.368774</ele>
        <time>2009-06-28T07:09:50Z</time>
      </trkpt>
      <trkpt lat="49.33713" lon="0.96793">
        <ele>83.291382</ele>
        <time>2009-06-28T07:09:54Z</time>
      </trkpt>
      <trkpt lat="49.33712" lon="0.96822">
        <ele>85.69458</ele>
        <time>2009-06-28T07:10:00Z</time>
      </trkpt>
      <trkpt lat="49.33711" lon="0.96847">
        <ele>86.175293</ele>
        <time>2009-06-28T07:10:05Z</time>
      </trkpt>
      <trkpt lat="49.33711" lon="0.96852">
        <ele>86.175293</ele>
        <time>2009-06-28T07:10:06Z</time>
      </trkpt>
      <trkpt lat="49.33708" lon="0.96877">
        <ele>85.213989</ele>
        <time>2009-06-28T07:10:12Z</time>
      </trkpt>
      <trkpt lat="49.33708" lon="0.9688">
        <ele>85.213989</ele>
        <time>2009-06-28T07:10:13Z</time>
      </trkpt>
      <trkpt lat="49.33704" lon="0.96899">
        <ele>83.771973</ele>
        <time>2009-06-28T07:10:19Z</time>
      </trkpt>
      <trkpt lat="49.33706" lon="0.96908">
        <ele>84.733398</ele>
        <time>2009-06-28T07:10:22Z</time>
      </trkpt>
      <trkpt lat="49.33703" lon="0.96944">
        <ele>84.733398</ele>
        <time>2009-06-28T07:10:30Z</time>
      </trkpt>
      <trkpt lat="49.33703" lon="0.96954">
        <ele>85.213989</ele>
        <time>2009-06-28T07:10:33Z</time>
      </trkpt>
      <trkpt lat="49.337" lon="0.96976">
        <ele>82.330078</ele>
        <time>2009-06-28T07:10:39Z</time>
      </trkpt>
      <trkpt lat="49.337" lon="0.96986">
        <ele>80.407471</ele>
        <time>2009-06-28T07:10:42Z</time>
      </trkpt>
      <trkpt lat="49.33698" lon="0.97011">
        <ele>79.926636</ele>
        <time>2009-06-28T07:10:49Z</time>
      </trkpt>
      <trkpt lat="49.33698" lon="0.97029">
        <ele>79.926636</ele>
        <time>2009-06-28T07:10:54Z</time>
      </trkpt>
      <trkpt lat="49.33698" lon="0.9703">
        <ele>79.926636</ele>
        <time>2009-06-28T07:10:55Z</time>
      </trkpt>
      <trkpt lat="49.33695" lon="0.97047">
        <ele>79.926636</ele>
        <time>2009-06-28T07:11:00Z</time>
      </trkpt>
      <trkpt lat="49.33691" lon="0.97071">
        <ele>79.926636</ele>
        <time>2009-06-28T07:11:05Z</time>
      </trkpt>
      <trkpt lat="49.33685" lon="0.97099">
        <ele>83.771973</ele>
        <time>2009-06-28T07:11:11Z</time>
      </trkpt>
      <trkpt lat="49.33684" lon="0.97104">
        <ele>84.252686</ele>
        <time>2009-06-28T07:11:12Z</time>
      </trkpt>
      <trkpt lat="49.33682" lon="0.97108">
        <ele>85.213989</ele>
        <time>2009-06-28T07:11:14Z</time>
      </trkpt>
      <trkpt lat="49.33678" lon="0.97118">
        <ele>84.252686</ele>
        <time>2009-06-28T07:11:16Z</time>
      </trkpt>
      <trkpt lat="49.33675" lon="0.9715">
        <ele>82.330078</ele>
        <time>2009-06-28T07:11:22Z</time>
      </trkpt>
      <trkpt lat="49.33671" lon="0.97175">
        <ele>81.849365</ele>
        <time>2009-06-28T07:11:27Z</time>
      </trkpt>
      <trkpt lat="49.33665" lon="0.9719">
        <ele>82.810791</ele>
        <time>2009-06-28T07:11:31Z</time>
      </trkpt>
      <trkpt lat="49.33663" lon="0.97201">
        <ele>83.771973</ele>
        <time>2009-06-28T07:11:34Z</time>
      </trkpt>
      <trkpt lat="49.3366" lon="0.97224">
        <ele>85.69458</ele>
        <time>2009-06-28T07:11:39Z</time>
      </trkpt>
      <trkpt lat="49.33654" lon="0.97246">
        <ele>86.656006</ele>
        <time>2009-06-28T07:11:43Z</time>
      </trkpt>
      <trkpt lat="49.33655" lon="0.9726">
        <ele>88.098022</ele>
        <time>2009-06-28T07:11:46Z</time>
      </trkpt>
      <trkpt lat="49.33656" lon="0.97285">
        <ele>92.42395</ele>
        <time>2009-06-28T07:11:51Z</time>
      </trkpt>
      <trkpt lat="49.33656" lon="0.97292">
        <ele>93.865845</ele>
        <time>2009-06-28T07:11:53Z</time>
      </trkpt>
      <trkpt lat="49.3366" lon="0.97322">
        <ele>96.749878</ele>
        <time>2009-06-28T07:12:00Z</time>
      </trkpt>
      <trkpt lat="49.33663" lon="0.97345">
        <ele>98.672485</ele>
        <time>2009-06-28T07:12:05Z</time>
      </trkpt>
      <trkpt lat="49.33667" lon="0.97365">
        <ele>98.672485</ele>
        <time>2009-06-28T07:12:10Z</time>
      </trkpt>
      <trkpt lat="49.33671" lon="0.97379">
        <ele>98.191895</ele>
        <time>2009-06-28T07:12:13Z</time>
      </trkpt>
      <trkpt lat="49.33685" lon="0.97412">
        <ele>95.788452</ele>
        <time>2009-06-28T07:12:19Z</time>
      </trkpt>
      <trkpt lat="49.33687" lon="0.97427">
        <ele>95.307739</ele>
        <time>2009-06-28T07:12:22Z</time>
      </trkpt>
      <trkpt lat="49.33688" lon="0.97441">
        <ele>94.827148</ele>
        <time>2009-06-28T07:12:25Z</time>
      </trkpt>
      <trkpt lat="49.3369" lon="0.97462">
        <ele>93.385132</ele>
        <time>2009-06-28T07:12:30Z</time>
      </trkpt>
      <trkpt lat="49.33691" lon="0.97471">
        <ele>92.904541</ele>
        <time>2009-06-28T07:12:32Z</time>
      </trkpt>
      <trkpt lat="49.33693" lon="0.97486">
        <ele>92.904541</ele>
        <time>2009-06-28T07:12:36Z</time>
      </trkpt>
      <trkpt lat="49.33695" lon="0.97494">
        <ele>92.904541</ele>
        <time>2009-06-28T07:12:38Z</time>
      </trkpt>
      <trkpt lat="49.33698" lon="0.97512">
        <ele>91.943237</ele>
        <time>2009-06-28T07:12:42Z</time>
      </trkpt>
      <trkpt lat="49.33702" lon="0.9754">
        <ele>91.943237</ele>
        <time>2009-06-28T07:12:47Z</time>
      </trkpt>
      <trkpt lat="49.33704" lon="0.9755">
        <ele>91.943237</ele>
        <time>2009-06-28T07:12:49Z</time>
      </trkpt>
      <trkpt lat="49.33705" lon="0.97576">
        <ele>93.385132</ele>
        <time>2009-06-28T07:12:55Z</time>
      </trkpt>
      <trkpt lat="49.33706" lon="0.97587">
        <ele>92.904541</ele>
        <time>2009-06-28T07:12:58Z</time>
      </trkpt>
      <trkpt lat="49.33711" lon="0.9761">
        <ele>90.02063</ele>
        <time>2009-06-28T07:13:04Z</time>
      </trkpt>
      <trkpt lat="49.33714" lon="0.97616">
        <ele>89.539917</ele>
        <time>2009-06-28T07:13:06Z</time>
      </trkpt>
      <trkpt lat="49.33715" lon="0.9762">
        <ele>89.059326</ele>
        <time>2009-06-28T07:13:08Z</time>
      </trkpt>
      <trkpt lat="49.33725" lon="0.9764">
        <ele>89.059326</ele>
        <time>2009-06-28T07:13:14Z</time>
      </trkpt>
      <trkpt lat="49.33738" lon="0.97653">
        <ele>89.539917</ele>
        <time>2009-06-28T07:13:19Z</time>
      </trkpt>
      <trkpt lat="49.33749" lon="0.97668">
        <ele>90.501343</ele>
        <time>2009-06-28T07:13:25Z</time>
      </trkpt>
      <trkpt lat="49.33751" lon="0.97672">
        <ele>90.501343</ele>
        <time>2009-06-28T07:13:26Z</time>
      </trkpt>
      <trkpt lat="49.33767" lon="0.97701">
        <ele>90.981934</ele>
        <time>2009-06-28T07:13:32Z</time>
      </trkpt>
      <trkpt lat="49.3377" lon="0.9773">
        <ele>91.462524</ele>
        <time>2009-06-28T07:13:37Z</time>
      </trkpt>
      <trkpt lat="49.3378" lon="0.97755">
        <ele>91.943237</ele>
        <time>2009-06-28T07:13:44Z</time>
      </trkpt>
      <trkpt lat="49.33779" lon="0.97766">
        <ele>91.943237</ele>
        <time>2009-06-28T07:13:48Z</time>
      </trkpt>
      <trkpt lat="49.33777" lon="0.97784">
        <ele>93.385132</ele>
        <time>2009-06-28T07:13:55Z</time>
      </trkpt>
      <trkpt lat="49.33782" lon="0.97796">
        <ele>94.827148</ele>
        <time>2009-06-28T07:14:01Z</time>
      </trkpt>
      <trkpt lat="49.33785" lon="0.9781">
        <ele>96.749878</ele>
        <time>2009-06-28T07:14:08Z</time>
      </trkpt>
      <trkpt lat="49.33783" lon="0.97822">
        <ele>96.269287</ele>
        <time>2009-06-28T07:14:14Z</time>
      </trkpt>
      <trkpt lat="49.33782" lon="0.97831">
        <ele>95.788452</ele>
        <time>2009-06-28T07:14:20Z</time>
      </trkpt>
      <trkpt lat="49.33782" lon="0.97833">
        <ele>95.788452</ele>
        <time>2009-06-28T07:14:21Z</time>
      </trkpt>
      <trkpt lat="49.33776" lon="0.97844">
        <ele>97.230469</ele>
        <time>2009-06-28T07:14:27Z</time>
      </trkpt>
      <trkpt lat="49.33774" lon="0.97854">
        <ele>97.711182</ele>
        <time>2009-06-28T07:14:32Z</time>
      </trkpt>
      <trkpt lat="49.33769" lon="0.97865">
        <ele>97.230469</ele>
        <time>2009-06-28T07:14:39Z</time>
      </trkpt>
      <trkpt lat="49.33768" lon="0.9787">
        <ele>96.269287</ele>
        <time>2009-06-28T07:14:42Z</time>
      </trkpt>
      <trkpt lat="49.33767" lon="0.97874">
        <ele>96.269287</ele>
        <time>2009-06-28T07:14:45Z</time>
      </trkpt>
      <trkpt lat="49.33767" lon="0.97884">
        <ele>96.269287</ele>
        <time>2009-06-28T07:14:49Z</time>
      </trkpt>
      <trkpt lat="49.33768" lon="0.97892">
        <ele>97.711182</ele>
        <time>2009-06-28T07:14:52Z</time>
      </trkpt>
      <trkpt lat="49.33766" lon="0.97902">
        <ele>98.191895</ele>
        <time>2009-06-28T07:14:56Z</time>
      </trkpt>
      <trkpt lat="49.33764" lon="0.97905">
        <ele>98.191895</ele>
        <time>2009-06-28T07:14:58Z</time>
      </trkpt>
      <trkpt lat="49.33763" lon="0.97911">
        <ele>98.672485</ele>
        <time>2009-06-28T07:15:02Z</time>
      </trkpt>
      <trkpt lat="49.33763" lon="0.97922">
        <ele>100.114502</ele>
        <time>2009-06-28T07:15:06Z</time>
      </trkpt>
      <trkpt lat="49.33764" lon="0.97939">
        <ele>102.998291</ele>
        <time>2009-06-28T07:15:11Z</time>
      </trkpt>
      <trkpt lat="49.33757" lon="0.97953">
        <ele>106.363037</ele>
        <time>2009-06-28T07:15:17Z</time>
      </trkpt>
      <trkpt lat="49.3375" lon="0.97965">
        <ele>110.208252</ele>
        <time>2009-06-28T07:15:24Z</time>
      </trkpt>
      <trkpt lat="49.33749" lon="0.97968">
        <ele>110.688843</ele>
        <time>2009-06-28T07:15:26Z</time>
      </trkpt>
      <trkpt lat="49.3374" lon="0.97979">
        <ele>112.611572</ele>
        <time>2009-06-28T07:15:32Z</time>
      </trkpt>
      <trkpt lat="49.33733" lon="0.9799">
        <ele>115.014893</ele>
        <time>2009-06-28T07:15:38Z</time>
      </trkpt>
      <trkpt lat="49.33725" lon="0.98002">
        <ele>115.014893</ele>
        <time>2009-06-28T07:15:44Z</time>
      </trkpt>
      <trkpt lat="49.33722" lon="0.98008">
        <ele>115.014893</ele>
        <time>2009-06-28T07:15:46Z</time>
      </trkpt>
      <trkpt lat="49.3372" lon="0.98014">
        <ele>113.572998</ele>
        <time>2009-06-28T07:15:48Z</time>
      </trkpt>
      <trkpt lat="49.33713" lon="0.98033">
        <ele>115.976196</ele>
        <time>2009-06-28T07:15:54Z</time>
      </trkpt>
      <trkpt lat="49.33712" lon="0.9805">
        <ele>118.379395</ele>
        <time>2009-06-28T07:15:59Z</time>
      </trkpt>
      <trkpt lat="49.33706" lon="0.98069">
        <ele>116.9375</ele>
        <time>2009-06-28T07:16:04Z</time>
      </trkpt>
      <trkpt lat="49.33688" lon="0.98082">
        <ele>119.34082</ele>
        <time>2009-06-28T07:16:09Z</time>
      </trkpt>
      <trkpt lat="49.33679" lon="0.98098">
        <ele>120.782837</ele>
        <time>2009-06-28T07:16:13Z</time>
      </trkpt>
      <trkpt lat="49.33677" lon="0.98105">
        <ele>120.782837</ele>
        <time>2009-06-28T07:16:15Z</time>
      </trkpt>
      <trkpt lat="49.3368" lon="0.98121">
        <ele>121.26355</ele>
        <time>2009-06-28T07:16:18Z</time>
      </trkpt>
      <trkpt lat="49.33687" lon="0.98149">
        <ele>121.26355</ele>
        <time>2009-06-28T07:16:24Z</time>
      </trkpt>
      <trkpt lat="49.33693" lon="0.98168">
        <ele>121.26355</ele>
        <time>2009-06-28T07:16:28Z</time>
      </trkpt>
      <trkpt lat="49.33698" lon="0.98195">
        <ele>122.705444</ele>
        <time>2009-06-28T07:16:33Z</time>
      </trkpt>
      <trkpt lat="49.33707" lon="0.98225">
        <ele>123.186157</ele>
        <time>2009-06-28T07:16:39Z</time>
      </trkpt>
      <trkpt lat="49.33714" lon="0.98249">
        <ele>124.628052</ele>
        <time>2009-06-28T07:16:44Z</time>
      </trkpt>
      <trkpt lat="49.33725" lon="0.9828">
        <ele>126.550659</ele>
        <time>2009-06-28T07:16:50Z</time>
      </trkpt>
      <trkpt lat="49.33726" lon="0.9831">
        <ele>127.511963</ele>
        <time>2009-06-28T07:16:54Z</time>
      </trkpt>
      <trkpt lat="49.33718" lon="0.98355">
        <ele>128.954102</ele>
        <time>2009-06-28T07:17:01Z</time>
      </trkpt>
      <trkpt lat="49.33717" lon="0.98365">
        <ele>128.954102</ele>
        <time>2009-06-28T07:17:03Z</time>
      </trkpt>
      <trkpt lat="49.33717" lon="0.98387">
        <ele>129.434692</ele>
        <time>2009-06-28T07:17:08Z</time>
      </trkpt>
      <trkpt lat="49.33713" lon="0.98404">
        <ele>131.3573</ele>
        <time>2009-06-28T07:17:12Z</time>
      </trkpt>
      <trkpt lat="49.33713" lon="0.98424">
        <ele>132.799316</ele>
        <time>2009-06-28T07:17:17Z</time>
      </trkpt>
      <trkpt lat="49.33707" lon="0.98462">
        <ele>134.721924</ele>
        <time>2009-06-28T07:17:24Z</time>
      </trkpt>
      <trkpt lat="49.33704" lon="0.98498">
        <ele>135.202515</ele>
        <time>2009-06-28T07:17:31Z</time>
      </trkpt>
      <trkpt lat="49.33703" lon="0.98507">
        <ele>135.202515</ele>
        <time>2009-06-28T07:17:35Z</time>
      </trkpt>
      <trkpt lat="49.33703" lon="0.98524">
        <ele>136.16394</ele>
        <time>2009-06-28T07:17:41Z</time>
      </trkpt>
      <trkpt lat="49.33703" lon="0.9855">
        <ele>135.683105</ele>
        <time>2009-06-28T07:17:47Z</time>
      </trkpt>
      <trkpt lat="49.33701" lon="0.98569">
        <ele>134.721924</ele>
        <time>2009-06-28T07:17:53Z</time>
      </trkpt>
      <trkpt lat="49.33701" lon="0.98588">
        <ele>134.241211</ele>
        <time>2009-06-28T07:18:00Z</time>
      </trkpt>
      <trkpt lat="49.33701" lon="0.98618">
        <ele>134.721924</ele>
        <time>2009-06-28T07:18:07Z</time>
      </trkpt>
      <trkpt lat="49.33704" lon="0.98627">
        <ele>135.202515</ele>
        <time>2009-06-28T07:18:09Z</time>
      </trkpt>
      <trkpt lat="49.33707" lon="0.98651">
        <ele>136.16394</ele>
        <time>2009-06-28T07:18:15Z</time>
      </trkpt>
      <trkpt lat="49.33708" lon="0.98656">
        <ele>136.16394</ele>
        <time>2009-06-28T07:18:16Z</time>
      </trkpt>
      <trkpt lat="49.33704" lon="0.98671">
        <ele>137.125244</ele>
        <time>2009-06-28T07:18:21Z</time>
      </trkpt>
      <trkpt lat="49.33701" lon="0.98673">
        <ele>137.125244</ele>
        <time>2009-06-28T07:18:22Z</time>
      </trkpt>
      <trkpt lat="49.33698" lon="0.98676">
        <ele>137.605835</ele>
        <time>2009-06-28T07:18:24Z</time>
      </trkpt>
      <trkpt lat="49.33698" lon="0.9869">
        <ele>138.086548</ele>
        <time>2009-06-28T07:18:29Z</time>
      </trkpt>
      <trkpt lat="49.33703" lon="0.98708">
        <ele>139.047852</ele>
        <time>2009-06-28T07:18:34Z</time>
      </trkpt>
      <trkpt lat="49.33704" lon="0.98712">
        <ele>139.528442</ele>
        <time>2009-06-28T07:18:35Z</time>
      </trkpt>
      <trkpt lat="49.33707" lon="0.98718">
        <ele>140.009155</ele>
        <time>2009-06-28T07:18:37Z</time>
      </trkpt>
      <trkpt lat="49.33713" lon="0.9874">
        <ele>141.45105</ele>
        <time>2009-06-28T07:18:44Z</time>
      </trkpt>
      <trkpt lat="49.33718" lon="0.98753">
        <ele>141.45105</ele>
        <time>2009-06-28T07:18:48Z</time>
      </trkpt>
      <trkpt lat="49.33719" lon="0.98778">
        <ele>142.893066</ele>
        <time>2009-06-28T07:18:54Z</time>
      </trkpt>
      <trkpt lat="49.33717" lon="0.98794">
        <ele>142.893066</ele>
        <time>2009-06-28T07:18:59Z</time>
      </trkpt>
      <trkpt lat="49.33722" lon="0.98806">
        <ele>142.893066</ele>
        <time>2009-06-28T07:19:02Z</time>
      </trkpt>
      <trkpt lat="49.33729" lon="0.98825">
        <ele>143.373657</ele>
        <time>2009-06-28T07:19:07Z</time>
      </trkpt>
      <trkpt lat="49.33735" lon="0.98842">
        <ele>142.893066</ele>
        <time>2009-06-28T07:19:11Z</time>
      </trkpt>
      <trkpt lat="49.33739" lon="0.98863">
        <ele>143.85437</ele>
        <time>2009-06-28T07:19:16Z</time>
      </trkpt>
      <trkpt lat="49.33752" lon="0.98878">
        <ele>144.335205</ele>
        <time>2009-06-28T07:19:21Z</time>
      </trkpt>
      <trkpt lat="49.33758" lon="0.98888">
        <ele>144.815796</ele>
        <time>2009-06-28T07:19:25Z</time>
      </trkpt>
      <trkpt lat="49.33768" lon="0.98907">
        <ele>145.7771</ele>
        <time>2009-06-28T07:19:31Z</time>
      </trkpt>
      <trkpt lat="49.33773" lon="0.98915">
        <ele>145.296387</ele>
        <time>2009-06-28T07:19:34Z</time>
      </trkpt>
      <trkpt lat="49.33782" lon="0.98929">
        <ele>144.815796</ele>
        <time>2009-06-28T07:19:39Z</time>
      </trkpt>
      <trkpt lat="49.3379" lon="0.9895">
        <ele>145.7771</ele>
        <time>2009-06-28T07:19:45Z</time>
      </trkpt>
      <trkpt lat="49.33792" lon="0.98957">
        <ele>145.7771</ele>
        <time>2009-06-28T07:19:47Z</time>
      </trkpt>
      <trkpt lat="49.33795" lon="0.98977">
        <ele>147.699707</ele>
        <time>2009-06-28T07:19:53Z</time>
      </trkpt>
      <trkpt lat="49.33797" lon="0.98992">
        <ele>149.622314</ele>
        <time>2009-06-28T07:19:57Z</time>
      </trkpt>
      <trkpt lat="49.33795" lon="0.99007">
        <ele>151.064209</ele>
        <time>2009-06-28T07:20:01Z</time>
      </trkpt>
      <trkpt lat="49.33797" lon="0.99022">
        <ele>152.025757</ele>
        <time>2009-06-28T07:20:05Z</time>
      </trkpt>
      <trkpt lat="49.33799" lon="0.99039">
        <ele>152.986938</ele>
        <time>2009-06-28T07:20:10Z</time>
      </trkpt>
      <trkpt lat="49.33801" lon="0.99044">
        <ele>152.986938</ele>
        <time>2009-06-28T07:20:11Z</time>
      </trkpt>
      <trkpt lat="49.33803" lon="0.9905">
        <ele>152.986938</ele>
        <time>2009-06-28T07:20:13Z</time>
      </trkpt>
      <trkpt lat="49.33802" lon="0.99069">
        <ele>153.948364</ele>
        <time>2009-06-28T07:20:18Z</time>
      </trkpt>
      <trkpt lat="49.33805" lon="0.99098">
        <ele>153.467651</ele>
        <time>2009-06-28T07:20:25Z</time>
      </trkpt>
      <trkpt lat="49.33805" lon="0.99104">
        <ele>153.948364</ele>
        <time>2009-06-28T07:20:26Z</time>
      </trkpt>
      <trkpt lat="49.33809" lon="0.9912">
        <ele>154.428955</ele>
        <time>2009-06-28T07:20:29Z</time>
      </trkpt>
      <trkpt lat="49.3381" lon="0.99136">
        <ele>153.948364</ele>
        <time>2009-06-28T07:20:34Z</time>
      </trkpt>
      <trkpt lat="49.33809" lon="0.99153">
        <ele>153.467651</ele>
        <time>2009-06-28T07:20:38Z</time>
      </trkpt>
      <trkpt lat="49.33814" lon="0.99181">
        <ele>154.428955</ele>
        <time>2009-06-28T07:20:44Z</time>
      </trkpt>
      <trkpt lat="49.33821" lon="0.99202">
        <ele>153.948364</ele>
        <time>2009-06-28T07:20:49Z</time>
      </trkpt>
      <trkpt lat="49.33821" lon="0.99225">
        <ele>152.506348</ele>
        <time>2009-06-28T07:20:54Z</time>
      </trkpt>
      <trkpt lat="49.33819" lon="0.99251">
        <ele>152.025757</ele>
        <time>2009-06-28T07:21:00Z</time>
      </trkpt>
      <trkpt lat="49.33819" lon="0.99281">
        <ele>153.467651</ele>
        <time>2009-06-28T07:21:07Z</time>
      </trkpt>
      <trkpt lat="49.33817" lon="0.99299">
        <ele>153.948364</ele>
        <time>2009-06-28T07:21:12Z</time>
      </trkpt>
      <trkpt lat="49.33814" lon="0.99308">
        <ele>153.948364</ele>
        <time>2009-06-28T07:21:16Z</time>
      </trkpt>
      <trkpt lat="49.33814" lon="0.99317">
        <ele>153.948364</ele>
        <time>2009-06-28T07:21:19Z</time>
      </trkpt>
      <trkpt lat="49.3381" lon="0.99344">
        <ele>153.948364</ele>
        <time>2009-06-28T07:21:25Z</time>
      </trkpt>
      <trkpt lat="49.33808" lon="0.99354">
        <ele>153.467651</ele>
        <time>2009-06-28T07:21:27Z</time>
      </trkpt>
      <trkpt lat="49.33803" lon="0.99367">
        <ele>152.506348</ele>
        <time>2009-06-28T07:21:32Z</time>
      </trkpt>
      <trkpt lat="49.33804" lon="0.99385">
        <ele>150.583618</ele>
        <time>2009-06-28T07:21:37Z</time>
      </trkpt>
      <trkpt lat="49.338" lon="0.99396">
        <ele>149.622314</ele>
        <time>2009-06-28T07:21:41Z</time>
      </trkpt>
      <trkpt lat="49.33801" lon="0.99415">
        <ele>149.622314</ele>
        <time>2009-06-28T07:21:45Z</time>
      </trkpt>
      <trkpt lat="49.33802" lon="0.99425">
        <ele>148.661011</ele>
        <time>2009-06-28T07:21:47Z</time>
      </trkpt>
      <trkpt lat="49.33798" lon="0.99455">
        <ele>146.257813</ele>
        <time>2009-06-28T07:21:53Z</time>
      </trkpt>
      <trkpt lat="49.33798" lon="0.99482">
        <ele>147.699707</ele>
        <time>2009-06-28T07:21:59Z</time>
      </trkpt>
      <trkpt lat="49.33798" lon="0.99486">
        <ele>148.18042</ele>
        <time>2009-06-28T07:22:00Z</time>
      </trkpt>
      <trkpt lat="49.33793" lon="0.99507">
        <ele>147.699707</ele>
        <time>2009-06-28T07:22:06Z</time>
      </trkpt>
      <trkpt lat="49.33793" lon="0.99524">
        <ele>147.218994</ele>
        <time>2009-06-28T07:22:11Z</time>
      </trkpt>
      <trkpt lat="49.33791" lon="0.99534">
        <ele>146.738403</ele>
        <time>2009-06-28T07:22:14Z</time>
      </trkpt>
      <trkpt lat="49.33789" lon="0.99558">
        <ele>145.7771</ele>
        <time>2009-06-28T07:22:20Z</time>
      </trkpt>
      <trkpt lat="49.33787" lon="0.99568">
        <ele>145.7771</ele>
        <time>2009-06-28T07:22:23Z</time>
      </trkpt>
      <trkpt lat="49.33784" lon="0.99596">
        <ele>146.738403</ele>
        <time>2009-06-28T07:22:29Z</time>
      </trkpt>
      <trkpt lat="49.33783" lon="0.99599">
        <ele>146.257813</ele>
        <time>2009-06-28T07:22:30Z</time>
      </trkpt>
      <trkpt lat="49.33779" lon="0.99615">
        <ele>146.257813</ele>
        <time>2009-06-28T07:22:34Z</time>
      </trkpt>
      <trkpt lat="49.33776" lon="0.99636">
        <ele>145.296387</ele>
        <time>2009-06-28T07:22:39Z</time>
      </trkpt>
      <trkpt lat="49.33764" lon="0.99665">
        <ele>143.373657</ele>
        <time>2009-06-28T07:22:45Z</time>
      </trkpt>
      <trkpt lat="49.33752" lon="0.9967">
        <ele>145.7771</ele>
        <time>2009-06-28T07:22:49Z</time>
      </trkpt>
      <trkpt lat="49.33736" lon="0.99674">
        <ele>147.699707</ele>
        <time>2009-06-28T07:22:55Z</time>
      </trkpt>
      <trkpt lat="49.33728" lon="0.99671">
        <ele>148.661011</ele>
        <time>2009-06-28T07:22:58Z</time>
      </trkpt>
      <trkpt lat="49.33723" lon="0.99679">
        <ele>148.18042</ele>
        <time>2009-06-28T07:23:03Z</time>
      </trkpt>
      <trkpt lat="49.33724" lon="0.99708">
        <ele>146.257813</ele>
        <time>2009-06-28T07:23:09Z</time>
      </trkpt>
      <trkpt lat="49.33727" lon="0.99717">
        <ele>146.257813</ele>
        <time>2009-06-28T07:23:11Z</time>
      </trkpt>
      <trkpt lat="49.33723" lon="0.99733">
        <ele>144.815796</ele>
        <time>2009-06-28T07:23:16Z</time>
      </trkpt>
      <trkpt lat="49.33722" lon="0.99743">
        <ele>143.85437</ele>
        <time>2009-06-28T07:23:18Z</time>
      </trkpt>
      <trkpt lat="49.33723" lon="0.99766">
        <ele>142.893066</ele>
        <time>2009-06-28T07:23:23Z</time>
      </trkpt>
      <trkpt lat="49.33723" lon="0.99775">
        <ele>143.373657</ele>
        <time>2009-06-28T07:23:25Z</time>
      </trkpt>
      <trkpt lat="49.33722" lon="0.99795">
        <ele>143.85437</ele>
        <time>2009-06-28T07:23:30Z</time>
      </trkpt>
      <trkpt lat="49.33722" lon="0.99799">
        <ele>144.335205</ele>
        <time>2009-06-28T07:23:31Z</time>
      </trkpt>
      <trkpt lat="49.33717" lon="0.99833">
        <ele>143.85437</ele>
        <time>2009-06-28T07:23:38Z</time>
      </trkpt>
      <trkpt lat="49.33708" lon="0.99839">
        <ele>144.335205</ele>
        <time>2009-06-28T07:23:43Z</time>
      </trkpt>
      <trkpt lat="49.33704" lon="0.99843">
        <ele>145.7771</ele>
        <time>2009-06-28T07:23:48Z</time>
      </trkpt>
      <trkpt lat="49.33703" lon="0.99848">
        <ele>144.335205</ele>
        <time>2009-06-28T07:23:52Z</time>
      </trkpt>
      <trkpt lat="49.33701" lon="0.99853">
        <ele>143.85437</ele>
        <time>2009-06-28T07:23:55Z</time>
      </trkpt>
      <trkpt lat="49.33692" lon="0.9986">
        <ele>142.412476</ele>
        <time>2009-06-28T07:24:00Z</time>
      </trkpt>
      <trkpt lat="49.33686" lon="0.99873">
        <ele>140.489868</ele>
        <time>2009-06-28T07:24:03Z</time>
      </trkpt>
      <trkpt lat="49.33685" lon="0.99892">
        <ele>140.009155</ele>
        <time>2009-06-28T07:24:06Z</time>
      </trkpt>
      <trkpt lat="49.337" lon="0.99935">
        <ele>138.567261</ele>
        <time>2009-06-28T07:24:12Z</time>
      </trkpt>
      <trkpt lat="49.33709" lon="0.99983">
        <ele>135.683105</ele>
        <time>2009-06-28T07:24:18Z</time>
      </trkpt>
      <trkpt lat="49.33698" lon="1.00053">
        <ele>133.279907</ele>
        <time>2009-06-28T07:24:26Z</time>
      </trkpt>
      <trkpt lat="49.33684" lon="1.0011">
        <ele>133.760498</ele>
        <time>2009-06-28T07:24:33Z</time>
      </trkpt>
      <trkpt lat="49.33662" lon="1.00169">
        <ele>133.760498</ele>
        <time>2009-06-28T07:24:40Z</time>
      </trkpt>
      <trkpt lat="49.33649" lon="1.00204">
        <ele>133.279907</ele>
        <time>2009-06-28T07:24:44Z</time>
      </trkpt>
      <trkpt lat="49.33642" lon="1.00233">
        <ele>131.837891</ele>
        <time>2009-06-28T07:24:47Z</time>
      </trkpt>
      <trkpt lat="49.3364" lon="1.00271">
        <ele>130.876709</ele>
        <time>2009-06-28T07:24:51Z</time>
      </trkpt>
      <trkpt lat="49.33649" lon="1.00306">
        <ele>127.992554</ele>
        <time>2009-06-28T07:24:55Z</time>
      </trkpt>
      <trkpt lat="49.33687" lon="1.0038">
        <ele>125.108765</ele>
        <time>2009-06-28T07:25:05Z</time>
      </trkpt>
      <trkpt lat="49.337" lon="1.00409">
        <ele>123.666748</ele>
        <time>2009-06-28T07:25:09Z</time>
      </trkpt>
      <trkpt lat="49.33706" lon="1.00425">
        <ele>123.186157</ele>
        <time>2009-06-28T07:25:11Z</time>
      </trkpt>
      <trkpt lat="49.33714" lon="1.00491">
        <ele>120.302124</ele>
        <time>2009-06-28T07:25:19Z</time>
      </trkpt>
      <trkpt lat="49.3371" lon="1.00558">
        <ele>118.860107</ele>
        <time>2009-06-28T07:25:27Z</time>
      </trkpt>
      <trkpt lat="49.33703" lon="1.00632">
        <ele>116.456787</ele>
        <time>2009-06-28T07:25:36Z</time>
      </trkpt>
      <trkpt lat="49.33697" lon="1.00702">
        <ele>115.976196</ele>
        <time>2009-06-28T07:25:44Z</time>
      </trkpt>
      <trkpt lat="49.3369" lon="1.00772">
        <ele>115.014893</ele>
        <time>2009-06-28T07:25:51Z</time>
      </trkpt>
      <trkpt lat="49.33692" lon="1.00849">
        <ele>113.572998</ele>
        <time>2009-06-28T07:25:59Z</time>
      </trkpt>
      <trkpt lat="49.33699" lon="1.00896">
        <ele>113.572998</ele>
        <time>2009-06-28T07:26:04Z</time>
      </trkpt>
      <trkpt lat="49.33693" lon="1.00927">
        <ele>113.572998</ele>
        <time>2009-06-28T07:26:08Z</time>
      </trkpt>
      <trkpt lat="49.33683" lon="1.00935">
        <ele>114.53418</ele>
        <time>2009-06-28T07:26:10Z</time>
      </trkpt>
      <trkpt lat="49.33652" lon="1.00944">
        <ele>115.495605</ele>
        <time>2009-06-28T07:26:17Z</time>
      </trkpt>
      <trkpt lat="49.33643" lon="1.00952">
        <ele>115.495605</ele>
        <time>2009-06-28T07:26:20Z</time>
      </trkpt>
      <trkpt lat="49.33626" lon="1.00974">
        <ele>114.53418</ele>
        <time>2009-06-28T07:26:25Z</time>
      </trkpt>
      <trkpt lat="49.33608" lon="1.00988">
        <ele>115.014893</ele>
        <time>2009-06-28T07:26:29Z</time>
      </trkpt>
      <trkpt lat="49.33594" lon="1.00999">
        <ele>115.976196</ele>
        <time>2009-06-28T07:26:32Z</time>
      </trkpt>
      <trkpt lat="49.33583" lon="1.01008">
        <ele>116.456787</ele>
        <time>2009-06-28T07:26:34Z</time>
      </trkpt>
      <trkpt lat="49.33565" lon="1.01021">
        <ele>116.456787</ele>
        <time>2009-06-28T07:26:38Z</time>
      </trkpt>
      <trkpt lat="49.33562" lon="1.01012">
        <ele>133</ele>
        <time>2006-04-02T15:47:50Z</time>
      </trkpt>
      <trkpt lat="49.33542" lon="1.00992">
        <ele>134</ele>
        <time>2006-04-02T15:47:43Z</time>
      </trkpt>
      <trkpt lat="49.33508" lon="1.00972">
        <ele>134</ele>
        <time>2006-04-02T15:47:32Z</time>
      </trkpt>
      <trkpt lat="49.33472" lon="1.00945">
        <ele>134</ele>
        <time>2006-04-02T15:47:19Z</time>
      </trkpt>
      <trkpt lat="49.33443" lon="1.00928">
        <ele>133</ele>
        <time>2006-04-02T15:47:09Z</time>
      </trkpt>
      <trkpt lat="49.33417" lon="1.00912">
        <ele>132</ele>
        <time>2006-04-02T15:47:00Z</time>
      </trkpt>
      <trkpt lat="49.33385" lon="1.00902">
        <ele>131</ele>
        <time>2006-04-02T15:46:50Z</time>
      </trkpt>
      <trkpt lat="49.33373" lon="1.00895">
        <ele>131</ele>
        <time>2006-04-02T15:46:46Z</time>
      </trkpt>
      <trkpt lat="49.33355" lon="1.009">
        <ele>129</ele>
        <time>2006-04-02T15:46:38Z</time>
      </trkpt>
      <trkpt lat="49.3334" lon="1.00897">
        <ele>130</ele>
        <time>2006-04-02T15:46:31Z</time>
      </trkpt>
      <trkpt lat="49.3331" lon="1.00875">
        <ele>129</ele>
        <time>2006-04-02T15:46:17Z</time>
      </trkpt>
      <trkpt lat="49.33285" lon="1.00905">
        <ele>129</ele>
        <time>2006-04-02T15:46:06Z</time>
      </trkpt>
      <trkpt lat="49.33278" lon="1.0092">
        <ele>129</ele>
        <time>2006-04-02T15:46:02Z</time>
      </trkpt>
      <trkpt lat="49.33268" lon="1.00952">
        <ele>128</ele>
        <time>2006-04-02T15:45:53Z</time>
      </trkpt>
      <trkpt lat="49.33268" lon="1.00963">
        <ele>128</ele>
        <time>2006-04-02T15:45:50Z</time>
      </trkpt>
      <trkpt lat="49.3326" lon="1.01007">
        <ele>127</ele>
        <time>2006-04-02T15:45:38Z</time>
      </trkpt>
      <trkpt lat="49.3326" lon="1.01002">
        <ele>127</ele>
        <time>2006-04-02T15:45:12Z</time>
      </trkpt>
      <trkpt lat="49.3326" lon="1.01019">
        <ele>121.5703125</ele>
      </trkpt>
      <trkpt lat="49.33277" lon="1.0101">
        <ele>122.36328125</ele>
      </trkpt>
      <trkpt lat="49.33263" lon="1.01045">
        <ele>121.94921875</ele>
      </trkpt>
      <trkpt lat="49.33254" lon="1.01061">
        <ele>122.4296875</ele>
      </trkpt>
      <trkpt lat="49.33216" lon="1.01128">
        <ele>124.82421875</ele>
      </trkpt>
      <trkpt lat="49.33211" lon="1.01122">
        <ele>111.169556</ele>
        <time>2009-06-28T07:28:50Z</time>
      </trkpt>
      <trkpt lat="49.33206" lon="1.01109">
        <ele>110.688843</ele>
        <time>2009-06-28T07:28:52Z</time>
      </trkpt>
      <trkpt lat="49.33199" lon="1.01089">
        <ele>109.246948</ele>
        <time>2009-06-28T07:28:55Z</time>
      </trkpt>
      <trkpt lat="49.33186" lon="1.01062">
        <ele>107.324341</ele>
        <time>2009-06-28T07:29:00Z</time>
      </trkpt>
      <trkpt lat="49.33168" lon="1.01033">
        <ele>102.037109</ele>
        <time>2009-06-28T07:29:05Z</time>
      </trkpt>
      <trkpt lat="49.33151" lon="1.01018">
        <ele>99.153076</ele>
        <time>2009-06-28T07:29:09Z</time>
      </trkpt>
      <trkpt lat="49.33122" lon="1.00994">
        <ele>97.230469</ele>
        <time>2009-06-28T07:29:14Z</time>
      </trkpt>
      <trkpt lat="49.33099" lon="1.00968">
        <ele>96.749878</ele>
        <time>2009-06-28T07:29:18Z</time>
      </trkpt>
      <trkpt lat="49.33073" lon="1.00929">
        <ele>95.788452</ele>
        <time>2009-06-28T07:29:24Z</time>
      </trkpt>
      <trkpt lat="49.33061" lon="1.00892">
        <ele>94.346558</ele>
        <time>2009-06-28T07:29:29Z</time>
      </trkpt>
      <trkpt lat="49.33055" lon="1.00856">
        <ele>93.865845</ele>
        <time>2009-06-28T07:29:35Z</time>
      </trkpt>
      <trkpt lat="49.33048" lon="1.00834">
        <ele>91.943237</ele>
        <time>2009-06-28T07:29:39Z</time>
      </trkpt>
      <trkpt lat="49.33041" lon="1.00816">
        <ele>90.981934</ele>
        <time>2009-06-28T07:29:42Z</time>
      </trkpt>
      <trkpt lat="49.33036" lon="1.00807">
        <ele>90.981934</ele>
        <time>2009-06-28T07:29:44Z</time>
      </trkpt>
      <trkpt lat="49.3302" lon="1.00779">
        <ele>90.981934</ele>
        <time>2009-06-28T07:29:49Z</time>
      </trkpt>
      <trkpt lat="49.33004" lon="1.00763">
        <ele>90.02063</ele>
        <time>2009-06-28T07:29:53Z</time>
      </trkpt>
      <trkpt lat="49.32982" lon="1.00748">
        <ele>88.578735</ele>
        <time>2009-06-28T07:29:59Z</time>
      </trkpt>
      <trkpt lat="49.3297" lon="1.00741">
        <ele>88.098022</ele>
        <time>2009-06-28T07:30:03Z</time>
      </trkpt>
      <trkpt lat="49.3296" lon="1.00734">
        <ele>87.617188</ele>
        <time>2009-06-28T07:30:08Z</time>
      </trkpt>
      <trkpt lat="49.32956" lon="1.00729">
        <ele>87.617188</ele>
        <time>2009-06-28T07:30:10Z</time>
      </trkpt>
      <trkpt lat="49.32947" lon="1.00716">
        <ele>87.617188</ele>
        <time>2009-06-28T07:30:14Z</time>
      </trkpt>
      <trkpt lat="49.32941" lon="1.007">
        <ele>85.69458</ele>
        <time>2009-06-28T07:30:19Z</time>
      </trkpt>
      <trkpt lat="49.32939" lon="1.00693">
        <ele>84.733398</ele>
        <time>2009-06-28T07:30:21Z</time>
      </trkpt>
      <trkpt lat="49.32931" lon="1.00675">
        <ele>82.330078</ele>
        <time>2009-06-28T07:30:26Z</time>
      </trkpt>
      <trkpt lat="49.3292" lon="1.00667">
        <ele>80.407471</ele>
        <time>2009-06-28T07:30:32Z</time>
      </trkpt>
      <trkpt lat="49.32911" lon="1.0065">
        <ele>81.849365</ele>
        <time>2009-06-28T07:30:38Z</time>
      </trkpt>
      <trkpt lat="49.32908" lon="1.00643">
        <ele>81.368774</ele>
        <time>2009-06-28T07:30:40Z</time>
      </trkpt>
      <trkpt lat="49.32904" lon="1.00621">
        <ele>78.484741</ele>
        <time>2009-06-28T07:30:45Z</time>
      </trkpt>
      <trkpt lat="49.32893" lon="1.00604">
        <ele>75.60083</ele>
        <time>2009-06-28T07:30:51Z</time>
      </trkpt>
      <trkpt lat="49.32893" lon="1.00589">
        <ele>74.158813</ele>
        <time>2009-06-28T07:30:55Z</time>
      </trkpt>
      <trkpt lat="49.32889" lon="1.00571">
        <ele>72.236206</ele>
        <time>2009-06-28T07:30:58Z</time>
      </trkpt>
      <trkpt lat="49.32892" lon="1.00557">
        <ele>70.313477</ele>
        <time>2009-06-28T07:31:00Z</time>
      </trkpt>
      <trkpt lat="49.32892" lon="1.00512">
        <ele>65.50708</ele>
        <time>2009-06-28T07:31:07Z</time>
      </trkpt>
      <trkpt lat="49.32889" lon="1.00494">
        <ele>62.142334</ele>
        <time>2009-06-28T07:31:12Z</time>
      </trkpt>
      <trkpt lat="49.32876" lon="1.00475">
        <ele>61.661743</ele>
        <time>2009-06-28T07:31:17Z</time>
      </trkpt>
      <trkpt lat="49.32869" lon="1.00467">
        <ele>60.700317</ele>
        <time>2009-06-28T07:31:21Z</time>
      </trkpt>
      <trkpt lat="49.32868" lon="1.00461">
        <ele>59.739136</ele>
        <time>2009-06-28T07:31:23Z</time>
      </trkpt>
      <trkpt lat="49.32866" lon="1.00443">
        <ele>54.932373</ele>
        <time>2009-06-28T07:31:28Z</time>
      </trkpt>
      <trkpt lat="49.32861" lon="1.00429">
        <ele>49.645264</ele>
        <time>2009-06-28T07:31:33Z</time>
      </trkpt>
      <trkpt lat="49.32854" lon="1.00419">
        <ele>47.241821</ele>
        <time>2009-06-28T07:31:36Z</time>
      </trkpt>
      <trkpt lat="49.3284" lon="1.00405">
        <ele>43.396606</ele>
        <time>2009-06-28T07:31:41Z</time>
      </trkpt>
      <trkpt lat="49.32829" lon="1.00399">
        <ele>41.473999</ele>
        <time>2009-06-28T07:31:45Z</time>
      </trkpt>
      <trkpt lat="49.32818" lon="1.00389">
        <ele>40.032104</ele>
        <time>2009-06-28T07:31:50Z</time>
      </trkpt>
      <trkpt lat="49.32803" lon="1.00383">
        <ele>38.590088</ele>
        <time>2009-06-28T07:31:56Z</time>
      </trkpt>
      <trkpt lat="49.32791" lon="1.00382">
        <ele>40.512817</ele>
        <time>2009-06-28T07:32:02Z</time>
      </trkpt>
      <trkpt lat="49.32781" lon="1.00379">
        <ele>42.916016</ele>
        <time>2009-06-28T07:32:07Z</time>
      </trkpt>
      <trkpt lat="49.32774" lon="1.00378">
        <ele>45.319214</ele>
        <time>2009-06-28T07:32:10Z</time>
      </trkpt>
      <trkpt lat="49.32764" lon="1.00375">
        <ele>48.203369</ele>
        <time>2009-06-28T07:32:16Z</time>
      </trkpt>
      <trkpt lat="49.32752" lon="1.00376">
        <ele>49.164551</ele>
        <time>2009-06-28T07:32:23Z</time>
      </trkpt>
      <trkpt lat="49.32744" lon="1.00376">
        <ele>50.125977</ele>
        <time>2009-06-28T07:32:27Z</time>
      </trkpt>
      <trkpt lat="49.32738" lon="1.00377">
        <ele>50.606567</ele>
        <time>2009-06-28T07:32:31Z</time>
      </trkpt>
      <trkpt lat="49.32719" lon="1.00377">
        <ele>51.567871</ele>
        <time>2009-06-28T07:32:38Z</time>
      </trkpt>
      <trkpt lat="49.32717" lon="1.00378">
        <ele>51.567871</ele>
        <time>2009-06-28T07:32:39Z</time>
      </trkpt>
      <trkpt lat="49.32707" lon="1.0038">
        <ele>51.087158</ele>
        <time>2009-06-28T07:32:43Z</time>
      </trkpt>
      <trkpt lat="49.32693" lon="1.00386">
        <ele>52.048584</ele>
        <time>2009-06-28T07:32:49Z</time>
      </trkpt>
      <trkpt lat="49.32682" lon="1.00387">
        <ele>52.529175</ele>
        <time>2009-06-28T07:32:54Z</time>
      </trkpt>
      <trkpt lat="49.32671" lon="1.00384">
        <ele>53.009766</ele>
        <time>2009-06-28T07:32:59Z</time>
      </trkpt>
      <trkpt lat="49.3267" lon="1.00384">
        <ele>53.490479</ele>
        <time>2009-06-28T07:33:00Z</time>
      </trkpt>
      <trkpt lat="49.32659" lon="1.00381">
        <ele>55.413086</ele>
        <time>2009-06-28T07:33:07Z</time>
      </trkpt>
      <trkpt lat="49.32657" lon="1.00381">
        <ele>55.413086</ele>
        <time>2009-06-28T07:33:08Z</time>
      </trkpt>
      <trkpt lat="49.32651" lon="1.00384">
        <ele>55.893799</ele>
        <time>2009-06-28T07:33:13Z</time>
      </trkpt>
      <trkpt lat="49.32641" lon="1.00383">
        <ele>57.816528</ele>
        <time>2009-06-28T07:33:19Z</time>
      </trkpt>
      <trkpt lat="49.32633" lon="1.0037">
        <ele>57.816528</ele>
        <time>2009-06-28T07:33:25Z</time>
      </trkpt>
      <trkpt lat="49.32631" lon="1.00367">
        <ele>57.335815</ele>
        <time>2009-06-28T07:33:26Z</time>
      </trkpt>
      <trkpt lat="49.3262" lon="1.00355">
        <ele>56.374512</ele>
        <time>2009-06-28T07:33:31Z</time>
      </trkpt>
      <trkpt lat="49.32602" lon="1.00349">
        <ele>56.855103</ele>
        <time>2009-06-28T07:33:37Z</time>
      </trkpt>
      <trkpt lat="49.326" lon="1.00347">
        <ele>57.335815</ele>
        <time>2009-06-28T07:33:38Z</time>
      </trkpt>
      <trkpt lat="49.32593" lon="1.00348">
        <ele>58.297119</ele>
        <time>2009-06-28T07:33:42Z</time>
      </trkpt>
      <trkpt lat="49.32584" lon="1.00357">
        <ele>57.335815</ele>
        <time>2009-06-28T07:33:47Z</time>
      </trkpt>
      <trkpt lat="49.32575" lon="1.00371">
        <ele>55.413086</ele>
        <time>2009-06-28T07:33:53Z</time>
      </trkpt>
      <trkpt lat="49.32575" lon="1.00379">
        <ele>52.529175</ele>
        <time>2009-06-28T07:33:57Z</time>
      </trkpt>
      <trkpt lat="49.3257" lon="1.00394">
        <ele>48.68396</ele>
        <time>2009-06-28T07:34:02Z</time>
      </trkpt>
      <trkpt lat="49.32569" lon="1.00397">
        <ele>47.722534</ele>
        <time>2009-06-28T07:34:03Z</time>
      </trkpt>
      <trkpt lat="49.32562" lon="1.00413">
        <ele>43.396606</ele>
        <time>2009-06-28T07:34:09Z</time>
      </trkpt>
      <trkpt lat="49.32553" lon="1.00424">
        <ele>40.512817</ele>
        <time>2009-06-28T07:34:14Z</time>
      </trkpt>
      <trkpt lat="49.32541" lon="1.00447">
        <ele>38.109375</ele>
        <time>2009-06-28T07:34:20Z</time>
      </trkpt>
      <trkpt lat="49.32533" lon="1.00456">
        <ele>36.66748</ele>
        <time>2009-06-28T07:34:23Z</time>
      </trkpt>
      <trkpt lat="49.32515" lon="1.00474">
        <ele>35.706055</ele>
        <time>2009-06-28T07:34:29Z</time>
      </trkpt>
      <trkpt lat="49.32503" lon="1.00478">
        <ele>37.148071</ele>
        <time>2009-06-28T07:34:33Z</time>
      </trkpt>
      <trkpt lat="49.32501" lon="1.00475">
        <ele>37.148071</ele>
        <time>2009-06-28T07:34:34Z</time>
      </trkpt>
      <trkpt lat="49.32495" lon="1.00457">
        <ele>34.744873</ele>
        <time>2009-06-28T07:34:37Z</time>
      </trkpt>
      <trkpt lat="49.32489" lon="1.0044">
        <ele>33.302856</ele>
        <time>2009-06-28T07:34:39Z</time>
      </trkpt>
      <trkpt lat="49.3248" lon="1.0042">
        <ele>30.418823</ele>
        <time>2009-06-28T07:34:43Z</time>
      </trkpt>
      <trkpt lat="49.32478" lon="1.0042">
        <ele>29.93811</ele>
        <time>2009-06-28T07:34:48Z</time>
      </trkpt>
      <trkpt lat="49.3248" lon="1.00419">
        <ele>30.899536</ele>
        <time>2009-06-28T07:34:51Z</time>
      </trkpt>
      <trkpt lat="49.32472" lon="1.0041">
        <ele>32.341553</ele>
        <time>2009-06-28T07:34:57Z</time>
      </trkpt>
      <trkpt lat="49.32472" lon="1.00406">
        <ele>32.822266</ele>
        <time>2009-06-28T07:34:58Z</time>
      </trkpt>
      <trkpt lat="49.32468" lon="1.00385">
        <ele>32.341553</ele>
        <time>2009-06-28T07:35:04Z</time>
      </trkpt>
      <trkpt lat="49.32467" lon="1.00383">
        <ele>32.341553</ele>
        <time>2009-06-28T07:35:06Z</time>
      </trkpt>
      <trkpt lat="49.32463" lon="1.00371">
        <ele>31.380127</ele>
        <time>2009-06-28T07:35:10Z</time>
      </trkpt>
      <trkpt lat="49.32463" lon="1.00369">
        <ele>30.899536</ele>
        <time>2009-06-28T07:35:11Z</time>
      </trkpt>
      <trkpt lat="49.32459" lon="1.00354">
        <ele>30.418823</ele>
        <time>2009-06-28T07:35:16Z</time>
      </trkpt>
      <trkpt lat="49.32447" lon="1.00322">
        <ele>30.899536</ele>
        <time>2009-06-28T07:35:24Z</time>
      </trkpt>
      <trkpt lat="49.32441" lon="1.00298">
        <ele>34.744873</ele>
        <time>2009-06-28T07:35:29Z</time>
      </trkpt>
      <trkpt lat="49.32439" lon="1.00291">
        <ele>36.186768</ele>
        <time>2009-06-28T07:35:31Z</time>
      </trkpt>
      <trkpt lat="49.3243" lon="1.00275">
        <ele>38.109375</ele>
        <time>2009-06-28T07:35:38Z</time>
      </trkpt>
      <trkpt lat="49.32427" lon="1.00258">
        <ele>43.396606</ele>
        <time>2009-06-28T07:35:44Z</time>
      </trkpt>
      <trkpt lat="49.32426" lon="1.00252">
        <ele>46.76123</ele>
        <time>2009-06-28T07:35:50Z</time>
      </trkpt>
      <trkpt lat="49.32423" lon="1.00245">
        <ele>51.567871</ele>
        <time>2009-06-28T07:35:56Z</time>
      </trkpt>
      <trkpt lat="49.32419" lon="1.00237">
        <ele>57.335815</ele>
        <time>2009-06-28T07:36:03Z</time>
      </trkpt>
      <trkpt lat="49.32416" lon="1.0023">
        <ele>61.18103</ele>
        <time>2009-06-28T07:36:09Z</time>
      </trkpt>
      <trkpt lat="49.32414" lon="1.00226">
        <ele>65.026367</ele>
        <time>2009-06-28T07:36:17Z</time>
      </trkpt>
      <trkpt lat="49.32412" lon="1.00222">
        <ele>68.390869</ele>
        <time>2009-06-28T07:36:24Z</time>
      </trkpt>
      <trkpt lat="49.32412" lon="1.00217">
        <ele>73.678223</ele>
        <time>2009-06-28T07:36:32Z</time>
      </trkpt>
      <trkpt lat="49.32412" lon="1.00216">
        <ele>74.158813</ele>
        <time>2009-06-28T07:36:33Z</time>
      </trkpt>
      <trkpt lat="49.32409" lon="1.00209">
        <ele>77.523438</ele>
        <time>2009-06-28T07:36:40Z</time>
      </trkpt>
      <trkpt lat="49.32407" lon="1.00203">
        <ele>79.446045</ele>
        <time>2009-06-28T07:36:47Z</time>
      </trkpt>
      <trkpt lat="49.32405" lon="1.00198">
        <ele>80.888184</ele>
        <time>2009-06-28T07:36:52Z</time>
      </trkpt>
      <trkpt lat="49.32402" lon="1.00194">
        <ele>82.330078</ele>
        <time>2009-06-28T07:36:59Z</time>
      </trkpt>
      <trkpt lat="49.32398" lon="1.00192">
        <ele>83.771973</ele>
        <time>2009-06-28T07:37:11Z</time>
      </trkpt>
      <trkpt lat="49.32397" lon="1.00195">
        <ele>86.175293</ele>
        <time>2009-06-28T07:37:21Z</time>
      </trkpt>
      <trkpt lat="49.32392" lon="1.00195">
        <ele>87.136597</ele>
        <time>2009-06-28T07:37:27Z</time>
      </trkpt>
      <trkpt lat="49.32385" lon="1.00202">
        <ele>88.098022</ele>
        <time>2009-06-28T07:37:32Z</time>
      </trkpt>
      <trkpt lat="49.32381" lon="1.00209">
        <ele>88.578735</ele>
        <time>2009-06-28T07:37:36Z</time>
      </trkpt>
      <trkpt lat="49.3238" lon="1.00211">
        <ele>88.578735</ele>
        <time>2009-06-28T07:37:37Z</time>
      </trkpt>
      <trkpt lat="49.32371" lon="1.00212">
        <ele>91.462524</ele>
        <time>2009-06-28T07:37:44Z</time>
      </trkpt>
      <trkpt lat="49.32371" lon="1.00212">
        <ele>91.943237</ele>
        <time>2009-06-28T07:37:46Z</time>
      </trkpt>
      <trkpt lat="49.32368" lon="1.00206">
        <ele>92.904541</ele>
        <time>2009-06-28T07:37:52Z</time>
      </trkpt>
      <trkpt lat="49.32367" lon="1.00203">
        <ele>94.346558</ele>
        <time>2009-06-28T07:37:57Z</time>
      </trkpt>
      <trkpt lat="49.32369" lon="1.00193">
        <ele>96.269287</ele>
        <time>2009-06-28T07:38:05Z</time>
      </trkpt>
      <trkpt lat="49.32371" lon="1.00187">
        <ele>96.749878</ele>
        <time>2009-06-28T07:38:10Z</time>
      </trkpt>
      <trkpt lat="49.3237" lon="1.00182">
        <ele>99.633789</ele>
        <time>2009-06-28T07:38:24Z</time>
      </trkpt>
      <trkpt lat="49.32362" lon="1.00178">
        <ele>96.269287</ele>
        <time>2009-06-28T07:40:04Z</time>
      </trkpt>
      <trkpt lat="49.32363" lon="1.00174">
        <ele>97.230469</ele>
        <time>2009-06-28T07:40:16Z</time>
      </trkpt>
      <trkpt lat="49.32363" lon="1.00172">
        <ele>96.749878</ele>
        <time>2009-06-28T07:40:20Z</time>
      </trkpt>
      <trkpt lat="49.32368" lon="1.0015">
        <ele>94.827148</ele>
        <time>2009-06-28T07:40:24Z</time>
      </trkpt>
      <trkpt lat="49.32373" lon="1.00137">
        <ele>91.943237</ele>
        <time>2009-06-28T07:40:28Z</time>
      </trkpt>
      <trkpt lat="49.32377" lon="1.0014">
        <ele>90.02063</ele>
        <time>2009-06-28T07:40:33Z</time>
      </trkpt>
      <trkpt lat="49.3238" lon="1.0014">
        <ele>90.02063</ele>
        <time>2009-06-28T07:40:35Z</time>
      </trkpt>
      <trkpt lat="49.32387" lon="1.00147">
        <ele>89.539917</ele>
        <time>2009-06-28T07:40:41Z</time>
      </trkpt>
      <trkpt lat="49.32388" lon="1.00148">
        <ele>90.02063</ele>
        <time>2009-06-28T07:40:44Z</time>
      </trkpt>
      <trkpt lat="49.32393" lon="1.00132">
        <ele>89.539917</ele>
        <time>2009-06-28T07:40:49Z</time>
      </trkpt>
      <trkpt lat="49.32394" lon="1.00123">
        <ele>89.059326</ele>
        <time>2009-06-28T07:40:51Z</time>
      </trkpt>
      <trkpt lat="49.32393" lon="1.00097">
        <ele>84.733398</ele>
        <time>2009-06-28T07:40:57Z</time>
      </trkpt>
      <trkpt lat="49.3239" lon="1.00089">
        <ele>83.291382</ele>
        <time>2009-06-28T07:40:59Z</time>
      </trkpt>
      <trkpt lat="49.32383" lon="1.00073">
        <ele>80.888184</ele>
        <time>2009-06-28T07:41:04Z</time>
      </trkpt>
      <trkpt lat="49.32375" lon="1.00061">
        <ele>80.888184</ele>
        <time>2009-06-28T07:41:09Z</time>
      </trkpt>
      <trkpt lat="49.32361" lon="1.0005">
        <ele>80.407471</ele>
        <time>2009-06-28T07:41:15Z</time>
      </trkpt>
      <trkpt lat="49.32344" lon="1.00023">
        <ele>80.407471</ele>
        <time>2009-06-28T07:41:21Z</time>
      </trkpt>
      <trkpt lat="49.32329" lon="0.99999">
        <ele>80.407471</ele>
        <time>2009-06-28T07:41:26Z</time>
      </trkpt>
      <trkpt lat="49.32326" lon="0.99995">
        <ele>80.407471</ele>
        <time>2009-06-28T07:41:27Z</time>
      </trkpt>
      <trkpt lat="49.32311" lon="0.99956">
        <ele>79.446045</ele>
        <time>2009-06-28T07:41:34Z</time>
      </trkpt>
      <trkpt lat="49.32305" lon="0.99939">
        <ele>78.004028</ele>
        <time>2009-06-28T07:41:38Z</time>
      </trkpt>
      <trkpt lat="49.32305" lon="0.99905">
        <ele>74.639526</ele>
        <time>2009-06-28T07:41:42Z</time>
      </trkpt>
      <trkpt lat="49.32303" lon="0.99894">
        <ele>73.678223</ele>
        <time>2009-06-28T07:41:43Z</time>
      </trkpt>
      <trkpt lat="49.32289" lon="0.99841">
        <ele>69.352295</ele>
        <time>2009-06-28T07:41:48Z</time>
      </trkpt>
      <trkpt lat="49.32283" lon="0.99826">
        <ele>68.390869</ele>
        <time>2009-06-28T07:41:50Z</time>
      </trkpt>
      <trkpt lat="49.3227" lon="0.99796">
        <ele>66.948975</ele>
        <time>2009-06-28T07:41:54Z</time>
      </trkpt>
      <trkpt lat="49.32247" lon="0.99765">
        <ele>64.545654</ele>
        <time>2009-06-28T07:41:58Z</time>
      </trkpt>
      <trkpt lat="49.32217" lon="0.99733">
        <ele>62.622925</ele>
        <time>2009-06-28T07:42:02Z</time>
      </trkpt>
      <trkpt lat="49.32194" lon="0.9972">
        <ele>61.18103</ele>
        <time>2009-06-28T07:42:05Z</time>
      </trkpt>
      <trkpt lat="49.32152" lon="0.99701">
        <ele>59.258423</ele>
        <time>2009-06-28T07:42:11Z</time>
      </trkpt>
      <trkpt lat="49.32125" lon="0.99684">
        <ele>59.258423</ele>
        <time>2009-06-28T07:42:16Z</time>
      </trkpt>
      <trkpt lat="49.32099" lon="0.9966">
        <ele>59.739136</ele>
        <time>2009-06-28T07:42:20Z</time>
      </trkpt>
      <trkpt lat="49.32034" lon="0.99621">
        <ele>60.219727</ele>
        <time>2009-06-28T07:42:26Z</time>
      </trkpt>
      <trkpt lat="49.31982" lon="0.99577">
        <ele>56.855103</ele>
        <time>2009-06-28T07:42:32Z</time>
      </trkpt>
      <trkpt lat="49.31957" lon="0.99541">
        <ele>53.009766</ele>
        <time>2009-06-28T07:42:36Z</time>
      </trkpt>
      <trkpt lat="49.31928" lon="0.99512">
        <ele>50.125977</ele>
        <time>2009-06-28T07:42:40Z</time>
      </trkpt>
      <trkpt lat="49.31897" lon="0.99502">
        <ele>46.76123</ele>
        <time>2009-06-28T07:42:44Z</time>
      </trkpt>
      <trkpt lat="49.31873" lon="0.99519">
        <ele>44.838623</ele>
        <time>2009-06-28T07:42:47Z</time>
      </trkpt>
      <trkpt lat="49.31853" lon="0.99533">
        <ele>41.473999</ele>
        <time>2009-06-28T07:42:50Z</time>
      </trkpt>
      <trkpt lat="49.31828" lon="0.99557">
        <ele>38.590088</ele>
        <time>2009-06-28T07:42:54Z</time>
      </trkpt>
      <trkpt lat="49.31807" lon="0.99579">
        <ele>36.186768</ele>
        <time>2009-06-28T07:42:58Z</time>
      </trkpt>
      <trkpt lat="49.31791" lon="0.99597">
        <ele>34.744873</ele>
        <time>2009-06-28T07:43:01Z</time>
      </trkpt>
      <trkpt lat="49.31767" lon="0.99637">
        <ele>31.380127</ele>
        <time>2009-06-28T07:43:06Z</time>
      </trkpt>
      <trkpt lat="49.31759" lon="0.99681">
        <ele>28.976929</ele>
        <time>2009-06-28T07:43:11Z</time>
      </trkpt>
      <trkpt lat="49.31763" lon="0.99695">
        <ele>28.496216</ele>
        <time>2009-06-28T07:43:15Z</time>
      </trkpt>
      <trkpt lat="49.31765" lon="0.99703">
        <ele>30.418823</ele>
        <time>2009-06-28T07:43:18Z</time>
      </trkpt>
      <trkpt lat="49.31773" lon="0.99718">
        <ele>34.26416</ele>
        <time>2009-06-28T07:43:25Z</time>
      </trkpt>
      <trkpt lat="49.31774" lon="0.99721">
        <ele>35.706055</ele>
        <time>2009-06-28T07:43:27Z</time>
      </trkpt>
      <trkpt lat="49.31779" lon="0.99727">
        <ele>37.148071</ele>
        <time>2009-06-28T07:43:32Z</time>
      </trkpt>
      <trkpt lat="49.31782" lon="0.99729">
        <ele>37.148071</ele>
        <time>2009-06-28T07:43:34Z</time>
      </trkpt>
      <trkpt lat="49.31789" lon="0.99742">
        <ele>39.55127</ele>
        <time>2009-06-28T07:43:42Z</time>
      </trkpt>
      <trkpt lat="49.3179" lon="0.99744">
        <ele>40.032104</ele>
        <time>2009-06-28T07:43:43Z</time>
      </trkpt>
      <trkpt lat="49.31793" lon="0.99748">
        <ele>40.512817</ele>
        <time>2009-06-28T07:43:46Z</time>
      </trkpt>
      <trkpt lat="49.318" lon="0.99761">
        <ele>40.032104</ele>
        <time>2009-06-28T07:43:54Z</time>
      </trkpt>
      <trkpt lat="49.31809" lon="0.99773">
        <ele>40.993408</ele>
        <time>2009-06-28T07:44:02Z</time>
      </trkpt>
      <trkpt lat="49.31816" lon="0.99782">
        <ele>42.916016</ele>
        <time>2009-06-28T07:44:08Z</time>
      </trkpt>
      <trkpt lat="49.31823" lon="0.99798">
        <ele>48.203369</ele>
        <time>2009-06-28T07:44:15Z</time>
      </trkpt>
      <trkpt lat="49.31823" lon="0.998">
        <ele>48.68396</ele>
        <time>2009-06-28T07:44:16Z</time>
      </trkpt>
      <trkpt lat="49.31826" lon="0.9981">
        <ele>50.125977</ele>
        <time>2009-06-28T07:44:21Z</time>
      </trkpt>
      <trkpt lat="49.31826" lon="0.99822">
        <ele>51.087158</ele>
        <time>2009-06-28T07:44:26Z</time>
      </trkpt>
      <trkpt lat="49.31846" lon="0.99817">
        <ele>52.5078125</ele>
      </trkpt>
      <trkpt lat="49.31898" lon="0.99834">
        <ele>63.890625</ele>
      </trkpt>
      <trkpt lat="49.31932" lon="0.99842">
        <ele>72.29296875</ele>
      </trkpt>
      <trkpt lat="49.31954" lon="0.99862">
        <ele>77.296875</ele>
      </trkpt>
      <trkpt lat="49.31971" lon="0.99903">
        <ele>82.984375</ele>
      </trkpt>
      <trkpt lat="49.31971" lon="0.99904">
        <ele>83.08203125</ele>
      </trkpt>
      <trkpt lat="49.31989" lon="0.99931">
        <ele>88.69921875</ele>
      </trkpt>
      <trkpt lat="49.32017" lon="0.99911">
        <ele>90.29296875</ele>
      </trkpt>
      <trkpt lat="49.32028" lon="0.99929">
        <ele>92.92578125</ele>
      </trkpt>
      <trkpt lat="49.32049" lon="0.9994">
        <ele>95.92578125</ele>
      </trkpt>
      <trkpt lat="49.32058" lon="0.99931">
        <ele>96.578125</ele>
      </trkpt>
      <trkpt lat="49.32064" lon="0.99898">
        <ele>96.26953125</ele>
      </trkpt>
      <trkpt lat="49.32058" lon="0.99868">
        <ele>93.5546875</ele>
      </trkpt>
      <trkpt lat="49.32126" lon="0.9981">
        <ele>83.54296875</ele>
      </trkpt>
      <trkpt lat="49.32204" lon="0.99745">
        <ele>65.98046875</ele>
      </trkpt>
      <trkpt lat="49.32225" lon="0.99725">
        <ele>59.09765625</ele>
      </trkpt>
      <trkpt lat="49.32233" lon="0.99719">
        <ele>56.671875</ele>
      </trkpt>
      <trkpt lat="49.32238" lon="0.99737">
        <ele>60.77734375</ele>
      </trkpt>
      <trkpt lat="49.32246" lon="0.99747">
        <ele>67.91</ele>
        <time>2012-09-15T10:18:03Z</time>
      </trkpt>
      <trkpt lat="49.32247" lon="0.99749">
        <ele>73.2</ele>
        <time>2012-09-15T10:18:51Z</time>
      </trkpt>
      <trkpt lat="49.32251" lon="0.99757">
        <ele>74.64</ele>
        <time>2012-09-15T10:18:57Z</time>
      </trkpt>
      <trkpt lat="49.32255" lon="0.99753">
        <ele>76.56</ele>
        <time>2012-09-15T10:19:06Z</time>
      </trkpt>
      <trkpt lat="49.32253" lon="0.99744">
        <ele>75.6</ele>
        <time>2012-09-15T10:19:11Z</time>
      </trkpt>
      <trkpt lat="49.3225" lon="0.99716">
        <ele>71.27</ele>
        <time>2012-09-15T10:19:19Z</time>
      </trkpt>
      <trkpt lat="49.32245" lon="0.99704">
        <ele>69.35</ele>
        <time>2012-09-15T10:19:23Z</time>
      </trkpt>
      <trkpt lat="49.32244" lon="0.99658">
        <ele>68.87</ele>
        <time>2012-09-15T10:19:35Z</time>
      </trkpt>
      <trkpt lat="49.32243" lon="0.99637">
        <ele>66.95</ele>
        <time>2012-09-15T10:19:41Z</time>
      </trkpt>
      <trkpt lat="49.32229" lon="0.99618">
        <ele>66.47</ele>
        <time>2012-09-15T10:19:48Z</time>
      </trkpt>
      <trkpt lat="49.32221" lon="0.99608">
        <ele>65.99</ele>
        <time>2012-09-15T10:19:53Z</time>
      </trkpt>
      <trkpt lat="49.32215" lon="0.99597">
        <ele>65.51</ele>
        <time>2012-09-15T10:19:57Z</time>
      </trkpt>
      <trkpt lat="49.32211" lon="0.99597">
        <ele>65.51</ele>
        <time>2012-09-15T10:19:58Z</time>
      </trkpt>
      <trkpt lat="49.32208" lon="0.99595">
        <ele>65.51</ele>
        <time>2012-09-15T10:19:59Z</time>
      </trkpt>
      <trkpt lat="49.32204" lon="0.99593">
        <ele>65.51</ele>
        <time>2012-09-15T10:20:00Z</time>
      </trkpt>
      <trkpt lat="49.32198" lon="0.9959">
        <ele>65.51</ele>
        <time>2012-09-15T10:20:01Z</time>
      </trkpt>
      <trkpt lat="49.32189" lon="0.99586">
        <ele>65.99</ele>
        <time>2012-09-15T10:20:03Z</time>
      </trkpt>
      <trkpt lat="49.32184" lon="0.99584">
        <ele>65.99</ele>
        <time>2012-09-15T10:20:04Z</time>
      </trkpt>
      <trkpt lat="49.32171" lon="0.99577">
        <ele>65.99</ele>
        <time>2012-09-15T10:20:07Z</time>
      </trkpt>
      <trkpt lat="49.3217" lon="0.99575">
        <ele>65.99</ele>
        <time>2012-09-15T10:20:08Z</time>
      </trkpt>
      <trkpt lat="49.32169" lon="0.99571">
        <ele>65.99</ele>
        <time>2012-09-15T10:20:09Z</time>
      </trkpt>
      <trkpt lat="49.32168" lon="0.99566">
        <ele>65.99</ele>
        <time>2012-09-15T10:20:10Z</time>
      </trkpt>
      <trkpt lat="49.32173" lon="0.99565">
        <ele>44.84</ele>
        <time>2012-09-15T10:21:23Z</time>
      </trkpt>
      <trkpt lat="49.32174" lon="0.99563">
        <ele>41.47</ele>
        <time>2012-09-15T10:21:40Z</time>
      </trkpt>
      <trkpt lat="49.32177" lon="0.99558">
        <ele>41.47</ele>
        <time>2012-09-15T10:21:47Z</time>
      </trkpt>
      <trkpt lat="49.32184" lon="0.99557">
        <ele>41.95</ele>
        <time>2012-09-15T10:21:58Z</time>
      </trkpt>
      <trkpt lat="49.32186" lon="0.99557">
        <ele>41.95</ele>
        <time>2012-09-15T10:21:59Z</time>
      </trkpt>
      <trkpt lat="49.32188" lon="0.99555">
        <ele>41.95</ele>
        <time>2012-09-15T10:22:00Z</time>
      </trkpt>
      <trkpt lat="49.32189" lon="0.99554">
        <ele>42.44</ele>
        <time>2012-09-15T10:22:01Z</time>
      </trkpt>
      <trkpt lat="49.32191" lon="0.99553">
        <ele>42.44</ele>
        <time>2012-09-15T10:22:02Z</time>
      </trkpt>
      <trkpt lat="49.32213" lon="0.99555">
        <ele>44.36</ele>
        <time>2012-09-15T10:22:13Z</time>
      </trkpt>
      <trkpt lat="49.32246" lon="0.99563">
        <ele>43.88</ele>
        <time>2012-09-15T10:22:27Z</time>
      </trkpt>
      <trkpt lat="49.32282" lon="0.99571">
        <ele>44.84</ele>
        <time>2012-09-15T10:22:42Z</time>
      </trkpt>
      <trkpt lat="49.32308" lon="0.99578">
        <ele>44.36</ele>
        <time>2012-09-15T10:22:54Z</time>
      </trkpt>
      <trkpt lat="49.32342" lon="0.99588">
        <ele>45.32</ele>
        <time>2012-09-15T10:23:09Z</time>
      </trkpt>
      <trkpt lat="49.3236" lon="0.99594">
        <ele>47.24</ele>
        <time>2012-09-15T10:23:17Z</time>
      </trkpt>
      <trkpt lat="49.32362" lon="0.99596">
        <ele>47.24</ele>
        <time>2012-09-15T10:23:18Z</time>
      </trkpt>
      <trkpt lat="49.32364" lon="0.99597">
        <ele>47.72</ele>
        <time>2012-09-15T10:23:19Z</time>
      </trkpt>
      <trkpt lat="49.32366" lon="0.99598">
        <ele>47.72</ele>
        <time>2012-09-15T10:23:20Z</time>
      </trkpt>
      <trkpt lat="49.32368" lon="0.99599">
        <ele>47.72</ele>
        <time>2012-09-15T10:23:21Z</time>
      </trkpt>
      <trkpt lat="49.3237" lon="0.996">
        <ele>48.2</ele>
        <time>2012-09-15T10:23:22Z</time>
      </trkpt>
      <trkpt lat="49.32372" lon="0.99601">
        <ele>48.2</ele>
        <time>2012-09-15T10:23:23Z</time>
      </trkpt>
      <trkpt lat="49.32397" lon="0.99622">
        <ele>49.16</ele>
        <time>2012-09-15T10:23:36Z</time>
      </trkpt>
      <trkpt lat="49.32425" lon="0.99655">
        <ele>49.65</ele>
        <time>2012-09-15T10:23:52Z</time>
      </trkpt>
      <trkpt lat="49.32444" lon="0.99679">
        <ele>50.13</ele>
        <time>2012-09-15T10:24:04Z</time>
      </trkpt>
      <trkpt lat="49.32445" lon="0.99679">
        <ele>49.65</ele>
        <time>2012-09-15T10:24:05Z</time>
      </trkpt>
      <trkpt lat="49.32448" lon="0.99674">
        <ele>49.16</ele>
        <time>2012-09-15T10:24:08Z</time>
      </trkpt>
      <trkpt lat="49.32449" lon="0.99667">
        <ele>49.16</ele>
        <time>2012-09-15T10:24:14Z</time>
      </trkpt>
      <trkpt lat="49.32443" lon="0.99651">
        <ele>49.16</ele>
        <time>2012-09-15T10:24:23Z</time>
      </trkpt>
      <trkpt lat="49.32434" lon="0.99633">
        <ele>50.13</ele>
        <time>2012-09-15T10:24:32Z</time>
      </trkpt>
      <trkpt lat="49.32432" lon="0.99618">
        <ele>51.09</ele>
        <time>2012-09-15T10:24:40Z</time>
      </trkpt>
      <trkpt lat="49.32432" lon="0.9961">
        <ele>53.01</ele>
        <time>2012-09-15T10:24:53Z</time>
      </trkpt>
      <trkpt lat="49.32436" lon="0.99607">
        <ele>57.82</ele>
        <time>2012-09-15T10:25:09Z</time>
      </trkpt>
      <trkpt lat="49.32445" lon="0.99604">
        <ele>61.18</ele>
        <time>2012-09-15T10:25:23Z</time>
      </trkpt>
      <trkpt lat="49.32452" lon="0.996">
        <ele>63.1</ele>
        <time>2012-09-15T10:25:37Z</time>
      </trkpt>
      <trkpt lat="49.32458" lon="0.99603">
        <ele>65.51</ele>
        <time>2012-09-15T10:25:49Z</time>
      </trkpt>
      <trkpt lat="49.32474" lon="0.99608">
        <ele>68.39</ele>
        <time>2012-09-15T10:26:02Z</time>
      </trkpt>
      <trkpt lat="49.3248" lon="0.99613">
        <ele>68.39</ele>
        <time>2012-09-15T10:26:09Z</time>
      </trkpt>
      <trkpt lat="49.32493" lon="0.99632">
        <ele>68.87</ele>
        <time>2012-09-15T10:26:22Z</time>
      </trkpt>
      <trkpt lat="49.32498" lon="0.99667">
        <ele>65.99</ele>
        <time>2012-09-15T10:26:32Z</time>
      </trkpt>
      <trkpt lat="49.32508" lon="0.997">
        <ele>66.95</ele>
        <time>2012-09-15T10:26:44Z</time>
      </trkpt>
      <trkpt lat="49.32519" lon="0.99762">
        <ele>65.99</ele>
        <time>2012-09-15T10:26:58Z</time>
      </trkpt>
      <trkpt lat="49.32539" lon="0.99828">
        <ele>65.99</ele>
        <time>2012-09-15T10:27:13Z</time>
      </trkpt>
      <trkpt lat="49.32562" lon="0.99883">
        <ele>68.87</ele>
        <time>2012-09-15T10:27:27Z</time>
      </trkpt>
      <trkpt lat="49.32578" lon="0.99912">
        <ele>71.76</ele>
        <time>2012-09-15T10:27:37Z</time>
      </trkpt>
      <trkpt lat="49.3259" lon="0.99941">
        <ele>74.64</ele>
        <time>2012-09-15T10:27:48Z</time>
      </trkpt>
      <trkpt lat="49.32592" lon="0.99946">
        <ele>75.12</ele>
        <time>2012-09-15T10:27:50Z</time>
      </trkpt>
      <trkpt lat="49.32595" lon="0.99951">
        <ele>76.08</ele>
        <time>2012-09-15T10:27:52Z</time>
      </trkpt>
      <trkpt lat="49.32606" lon="0.99977">
        <ele>80.41</ele>
        <time>2012-09-15T10:28:02Z</time>
      </trkpt>
      <trkpt lat="49.32617" lon="0.99988">
        <ele>82.33</ele>
        <time>2012-09-15T10:28:11Z</time>
      </trkpt>
      <trkpt lat="49.32623" lon="0.99993">
        <ele>80.89</ele>
        <time>2012-09-15T10:28:24Z</time>
      </trkpt>
      <trkpt lat="49.32626" lon="1.00001">
        <ele>82.33</ele>
        <time>2012-09-15T10:28:38Z</time>
      </trkpt>
      <trkpt lat="49.32628" lon="1.00003">
        <ele>81.85</ele>
        <time>2012-09-15T10:28:53Z</time>
      </trkpt>
      <trkpt lat="49.32635" lon="1.00008">
        <ele>83.77</ele>
        <time>2012-09-15T10:29:06Z</time>
      </trkpt>
      <trkpt lat="49.32639" lon="1.00012">
        <ele>85.21</ele>
        <time>2012-09-15T10:29:10Z</time>
      </trkpt>
      <trkpt lat="49.32648" lon="1.00018">
        <ele>85.69</ele>
        <time>2012-09-15T10:29:23Z</time>
      </trkpt>
      <trkpt lat="49.32653" lon="1.00024">
        <ele>85.69</ele>
        <time>2012-09-15T10:29:35Z</time>
      </trkpt>
      <trkpt lat="49.32665" lon="1.00033">
        <ele>87.14</ele>
        <time>2012-09-15T10:29:46Z</time>
      </trkpt>
      <trkpt lat="49.32677" lon="1.00043">
        <ele>88.58</ele>
        <time>2012-09-15T10:29:56Z</time>
      </trkpt>
      <trkpt lat="49.3268" lon="1.00042">
        <ele>89.06</ele>
        <time>2012-09-15T10:29:58Z</time>
      </trkpt>
      <trkpt lat="49.32684" lon="1.00038">
        <ele>91.46</ele>
        <time>2012-09-15T10:30:02Z</time>
      </trkpt>
      <trkpt lat="49.32686" lon="1.00034">
        <ele>92.9</ele>
        <time>2012-09-15T10:30:05Z</time>
      </trkpt>
      <trkpt lat="49.32688" lon="1.00026">
        <ele>94.83</ele>
        <time>2012-09-15T10:30:10Z</time>
      </trkpt>
      <trkpt lat="49.32686" lon="1.0002">
        <ele>95.79</ele>
        <time>2012-09-15T10:30:14Z</time>
      </trkpt>
      <trkpt lat="49.32678" lon="1.00012">
        <ele>97.23</ele>
        <time>2012-09-15T10:30:21Z</time>
      </trkpt>
      <trkpt lat="49.32677" lon="1.00009">
        <ele>98.19</ele>
        <time>2012-09-15T10:30:23Z</time>
      </trkpt>
      <trkpt lat="49.32676" lon="1.00004">
        <ele>98.67</ele>
        <time>2012-09-15T10:30:36Z</time>
      </trkpt>
      <trkpt lat="49.32676" lon="1.00005">
        <ele>101.56</ele>
        <time>2012-09-15T10:30:54Z</time>
      </trkpt>
      <trkpt lat="49.3268" lon="0.99999">
        <ele>104.92</ele>
        <time>2012-09-15T10:31:09Z</time>
      </trkpt>
      <trkpt lat="49.32686" lon="0.99994">
        <ele>105.4</ele>
        <time>2012-09-15T10:31:24Z</time>
      </trkpt>
      <trkpt lat="49.3269" lon="0.99987">
        <ele>106.36</ele>
        <time>2012-09-15T10:31:31Z</time>
      </trkpt>
      <trkpt lat="49.32689" lon="0.9997">
        <ele>107.81</ele>
        <time>2012-09-15T10:31:46Z</time>
      </trkpt>
      <trkpt lat="49.32687" lon="0.9996">
        <ele>110.688843</ele>
        <time>2009-06-28T08:31:59Z</time>
      </trkpt>
      <trkpt lat="49.32683" lon="0.99955">
        <ele>108.766235</ele>
        <time>2009-06-28T08:32:02Z</time>
      </trkpt>
      <trkpt lat="49.32682" lon="0.99952">
        <ele>106.363037</ele>
        <time>2009-06-28T08:32:06Z</time>
      </trkpt>
      <trkpt lat="49.32681" lon="0.99946">
        <ele>104.921021</ele>
        <time>2009-06-28T08:32:09Z</time>
      </trkpt>
      <trkpt lat="49.32672" lon="0.99934">
        <ele>103.959717</ele>
        <time>2009-06-28T08:32:15Z</time>
      </trkpt>
      <trkpt lat="49.32667" lon="0.9992">
        <ele>101.556396</ele>
        <time>2009-06-28T08:32:19Z</time>
      </trkpt>
      <trkpt lat="49.32666" lon="0.99905">
        <ele>101.075684</ele>
        <time>2009-06-28T08:32:23Z</time>
      </trkpt>
      <trkpt lat="49.32663" lon="0.99888">
        <ele>97.230469</ele>
        <time>2009-06-28T08:32:29Z</time>
      </trkpt>
      <trkpt lat="49.32662" lon="0.99881">
        <ele>95.307739</ele>
        <time>2009-06-28T08:32:34Z</time>
      </trkpt>
      <trkpt lat="49.32661" lon="0.99878">
        <ele>94.827148</ele>
        <time>2009-06-28T08:32:36Z</time>
      </trkpt>
      <trkpt lat="49.32657" lon="0.99865">
        <ele>92.42395</ele>
        <time>2009-06-28T08:32:42Z</time>
      </trkpt>
      <trkpt lat="49.32655" lon="0.99859">
        <ele>91.943237</ele>
        <time>2009-06-28T08:32:44Z</time>
      </trkpt>
      <trkpt lat="49.32654" lon="0.99852">
        <ele>91.462524</ele>
        <time>2009-06-28T08:32:47Z</time>
      </trkpt>
      <trkpt lat="49.32646" lon="0.99836">
        <ele>91.462524</ele>
        <time>2009-06-28T08:32:53Z</time>
      </trkpt>
      <trkpt lat="49.32643" lon="0.99821">
        <ele>91.943237</ele>
        <time>2009-06-28T08:32:58Z</time>
      </trkpt>
      <trkpt lat="49.32635" lon="0.99792">
        <ele>91.943237</ele>
        <time>2009-06-28T08:33:05Z</time>
      </trkpt>
      <trkpt lat="49.32633" lon="0.99785">
        <ele>90.501343</ele>
        <time>2009-06-28T08:33:09Z</time>
      </trkpt>
      <trkpt lat="49.32633" lon="0.99785">
        <ele>90.981934</ele>
        <time>2009-06-28T08:33:11Z</time>
      </trkpt>
      <trkpt lat="49.32631" lon="0.99774">
        <ele>91.943237</ele>
        <time>2009-06-28T08:33:17Z</time>
      </trkpt>
      <trkpt lat="49.32626" lon="0.9976">
        <ele>91.943237</ele>
        <time>2009-06-28T08:33:22Z</time>
      </trkpt>
      <trkpt lat="49.32624" lon="0.9975">
        <ele>94.827148</ele>
        <time>2009-06-28T08:33:35Z</time>
      </trkpt>
      <trkpt lat="49.32621" lon="0.9974">
        <ele>95.307739</ele>
        <time>2009-06-28T08:33:39Z</time>
      </trkpt>
      <trkpt lat="49.32614" lon="0.9972">
        <ele>93.385132</ele>
        <time>2009-06-28T08:33:45Z</time>
      </trkpt>
      <trkpt lat="49.32612" lon="0.99706">
        <ele>89.539917</ele>
        <time>2009-06-28T08:33:50Z</time>
      </trkpt>
      <trkpt lat="49.32612" lon="0.99701">
        <ele>88.098022</ele>
        <time>2009-06-28T08:33:52Z</time>
      </trkpt>
      <trkpt lat="49.32608" lon="0.99688">
        <ele>88.578735</ele>
        <time>2009-06-28T08:33:56Z</time>
      </trkpt>
      <trkpt lat="49.32605" lon="0.99677">
        <ele>89.059326</ele>
        <time>2009-06-28T08:34:03Z</time>
      </trkpt>
      <trkpt lat="49.32604" lon="0.99668">
        <ele>90.501343</ele>
        <time>2009-06-28T08:34:10Z</time>
      </trkpt>
      <trkpt lat="49.32602" lon="0.99662">
        <ele>92.42395</ele>
        <time>2009-06-28T08:34:16Z</time>
      </trkpt>
      <trkpt lat="49.32601" lon="0.99659">
        <ele>93.385132</ele>
        <time>2009-06-28T08:34:19Z</time>
      </trkpt>
      <trkpt lat="49.32596" lon="0.99651">
        <ele>93.385132</ele>
        <time>2009-06-28T08:34:25Z</time>
      </trkpt>
      <trkpt lat="49.32589" lon="0.9963">
        <ele>91.462524</ele>
        <time>2009-06-28T08:34:31Z</time>
      </trkpt>
      <trkpt lat="49.32587" lon="0.99625">
        <ele>90.981934</ele>
        <time>2009-06-28T08:34:33Z</time>
      </trkpt>
      <trkpt lat="49.32584" lon="0.99598">
        <ele>88.098022</ele>
        <time>2009-06-28T08:34:39Z</time>
      </trkpt>
      <trkpt lat="49.32575" lon="0.99575">
        <ele>88.098022</ele>
        <time>2009-06-28T08:34:44Z</time>
      </trkpt>
      <trkpt lat="49.32568" lon="0.99559">
        <ele>89.059326</ele>
        <time>2009-06-28T08:34:49Z</time>
      </trkpt>
      <trkpt lat="49.32554" lon="0.99533">
        <ele>90.981934</ele>
        <time>2009-06-28T08:34:55Z</time>
      </trkpt>
      <trkpt lat="49.32557" lon="0.99514">
        <ele>91.462524</ele>
        <time>2009-06-28T08:35:00Z</time>
      </trkpt>
      <trkpt lat="49.32557" lon="0.99512">
        <ele>92.42395</ele>
        <time>2009-06-28T08:35:01Z</time>
      </trkpt>
      <trkpt lat="49.32557" lon="0.99509">
        <ele>93.385132</ele>
        <time>2009-06-28T08:35:03Z</time>
      </trkpt>
      <trkpt lat="49.32562" lon="0.995">
        <ele>98.191895</ele>
        <time>2009-06-28T08:35:08Z</time>
      </trkpt>
      <trkpt lat="49.3257" lon="0.9949">
        <ele>103.479004</ele>
        <time>2009-06-28T08:35:16Z</time>
      </trkpt>
      <trkpt lat="49.32579" lon="0.9948">
        <ele>108.285645</ele>
        <time>2009-06-28T08:35:25Z</time>
      </trkpt>
      <trkpt lat="49.32591" lon="0.99475">
        <ele>107.324341</ele>
        <time>2009-06-28T08:35:32Z</time>
      </trkpt>
      <trkpt lat="49.32613" lon="0.99473">
        <ele>105.882446</ele>
        <time>2009-06-28T08:35:39Z</time>
      </trkpt>
      <trkpt lat="49.32628" lon="0.9947">
        <ele>106.363037</ele>
        <time>2009-06-28T08:35:45Z</time>
      </trkpt>
      <trkpt lat="49.32631" lon="0.99467">
        <ele>106.363037</ele>
        <time>2009-06-28T08:35:47Z</time>
      </trkpt>
      <trkpt lat="49.32628" lon="0.99459">
        <ele>106.843628</ele>
        <time>2009-06-28T08:35:51Z</time>
      </trkpt>
      <trkpt lat="49.32608" lon="0.99446">
        <ele>105.401733</ele>
        <time>2009-06-28T08:35:56Z</time>
      </trkpt>
      <trkpt lat="49.32599" lon="0.99432">
        <ele>106.363037</ele>
        <time>2009-06-28T08:36:02Z</time>
      </trkpt>
      <trkpt lat="49.32595" lon="0.99419">
        <ele>108.285645</ele>
        <time>2009-06-28T08:36:06Z</time>
      </trkpt>
      <trkpt lat="49.32587" lon="0.99425">
        <ele>109.246948</ele>
        <time>2009-06-28T08:36:10Z</time>
      </trkpt>
      <trkpt lat="49.32581" lon="0.99428">
        <ele>110.208252</ele>
        <time>2009-06-28T08:36:14Z</time>
      </trkpt>
      <trkpt lat="49.3258" lon="0.99428">
        <ele>110.208252</ele>
        <time>2009-06-28T08:36:15Z</time>
      </trkpt>
      <trkpt lat="49.32574" lon="0.99424">
        <ele>110.208252</ele>
        <time>2009-06-28T08:36:18Z</time>
      </trkpt>
      <trkpt lat="49.32557" lon="0.99411">
        <ele>108.285645</ele>
        <time>2009-06-28T08:36:24Z</time>
      </trkpt>
      <trkpt lat="49.32541" lon="0.99396">
        <ele>107.324341</ele>
        <time>2009-06-28T08:36:30Z</time>
      </trkpt>
      <trkpt lat="49.32537" lon="0.99395">
        <ele>107.324341</ele>
        <time>2009-06-28T08:36:31Z</time>
      </trkpt>
      <trkpt lat="49.3252" lon="0.99381">
        <ele>105.882446</ele>
        <time>2009-06-28T08:36:36Z</time>
      </trkpt>
      <trkpt lat="49.32504" lon="0.99362">
        <ele>104.921021</ele>
        <time>2009-06-28T08:36:41Z</time>
      </trkpt>
      <trkpt lat="49.32487" lon="0.99336">
        <ele>102.5177</ele>
        <time>2009-06-28T08:36:46Z</time>
      </trkpt>
      <trkpt lat="49.32471" lon="0.99313">
        <ele>100.595093</ele>
        <time>2009-06-28T08:36:51Z</time>
      </trkpt>
      <trkpt lat="49.32458" lon="0.99304">
        <ele>99.633789</ele>
        <time>2009-06-28T08:36:54Z</time>
      </trkpt>
      <trkpt lat="49.32431" lon="0.99279">
        <ele>99.633789</ele>
        <time>2009-06-28T08:37:00Z</time>
      </trkpt>
      <trkpt lat="49.32422" lon="0.99255">
        <ele>98.672485</ele>
        <time>2009-06-28T08:37:04Z</time>
      </trkpt>
      <trkpt lat="49.32423" lon="0.99239">
        <ele>96.749878</ele>
        <time>2009-06-28T08:37:08Z</time>
      </trkpt>
      <trkpt lat="49.32439" lon="0.99222">
        <ele>94.346558</ele>
        <time>2009-06-28T08:37:15Z</time>
      </trkpt>
      <trkpt lat="49.32454" lon="0.99208">
        <ele>93.865845</ele>
        <time>2009-06-28T08:37:20Z</time>
      </trkpt>
      <trkpt lat="49.32476" lon="0.99189">
        <ele>92.904541</ele>
        <time>2009-06-28T08:37:25Z</time>
      </trkpt>
      <trkpt lat="49.32501" lon="0.99171">
        <ele>89.059326</ele>
        <time>2009-06-28T08:37:30Z</time>
      </trkpt>
      <trkpt lat="49.32513" lon="0.99155">
        <ele>86.656006</ele>
        <time>2009-06-28T08:37:34Z</time>
      </trkpt>
      <trkpt lat="49.32515" lon="0.99148">
        <ele>84.252686</ele>
        <time>2009-06-28T08:37:41Z</time>
      </trkpt>
      <trkpt lat="49.3251" lon="0.99143">
        <ele>83.291382</ele>
        <time>2009-06-28T08:37:45Z</time>
      </trkpt>
      <trkpt lat="49.32507" lon="0.99139">
        <ele>82.810791</ele>
        <time>2009-06-28T08:37:47Z</time>
      </trkpt>
      <trkpt lat="49.32502" lon="0.99121">
        <ele>81.849365</ele>
        <time>2009-06-28T08:37:51Z</time>
      </trkpt>
      <trkpt lat="49.32502" lon="0.99087">
        <ele>80.407471</ele>
        <time>2009-06-28T08:37:57Z</time>
      </trkpt>
      <trkpt lat="49.32502" lon="0.99081">
        <ele>80.407471</ele>
        <time>2009-06-28T08:37:58Z</time>
      </trkpt>
      <trkpt lat="49.32499" lon="0.99059">
        <ele>78.484741</ele>
        <time>2009-06-28T08:38:04Z</time>
      </trkpt>
      <trkpt lat="49.32491" lon="0.99038">
        <ele>77.523438</ele>
        <time>2009-06-28T08:38:10Z</time>
      </trkpt>
      <trkpt lat="49.32488" lon="0.99031">
        <ele>77.042847</ele>
        <time>2009-06-28T08:38:13Z</time>
      </trkpt>
      <trkpt lat="49.32486" lon="0.99025">
        <ele>76.562134</ele>
        <time>2009-06-28T08:38:15Z</time>
      </trkpt>
      <trkpt lat="49.32482" lon="0.99009">
        <ele>75.120239</ele>
        <time>2009-06-28T08:38:21Z</time>
      </trkpt>
      <trkpt lat="49.32471" lon="0.98994">
        <ele>77.523438</ele>
        <time>2009-06-28T08:38:26Z</time>
      </trkpt>
      <trkpt lat="49.32465" lon="0.98982">
        <ele>78.965454</ele>
        <time>2009-06-28T08:38:32Z</time>
      </trkpt>
      <trkpt lat="49.32448" lon="0.98973">
        <ele>76.562134</ele>
        <time>2009-06-28T08:38:38Z</time>
      </trkpt>
      <trkpt lat="49.32445" lon="0.9897">
        <ele>76.081421</ele>
        <time>2009-06-28T08:38:39Z</time>
      </trkpt>
      <trkpt lat="49.32437" lon="0.98965">
        <ele>74.639526</ele>
        <time>2009-06-28T08:38:41Z</time>
      </trkpt>
      <trkpt lat="49.32421" lon="0.98961">
        <ele>70.313477</ele>
        <time>2009-06-28T08:38:46Z</time>
      </trkpt>
      <trkpt lat="49.3241" lon="0.98947">
        <ele>69.352295</ele>
        <time>2009-06-28T08:38:50Z</time>
      </trkpt>
      <trkpt lat="49.32402" lon="0.98926">
        <ele>68.871582</ele>
        <time>2009-06-28T08:38:55Z</time>
      </trkpt>
      <trkpt lat="49.32395" lon="0.98906">
        <ele>66.948975</ele>
        <time>2009-06-28T08:38:59Z</time>
      </trkpt>
      <trkpt lat="49.32388" lon="0.98886">
        <ele>63.103638</ele>
        <time>2009-06-28T08:39:03Z</time>
      </trkpt>
      <trkpt lat="49.32379" lon="0.9886">
        <ele>54.451782</ele>
        <time>2009-06-28T08:39:08Z</time>
      </trkpt>
      <trkpt lat="49.32377" lon="0.98837">
        <ele>45.799927</ele>
        <time>2009-06-28T08:39:13Z</time>
      </trkpt>
      <trkpt lat="49.32377" lon="0.98829">
        <ele>42.435425</ele>
        <time>2009-06-28T08:39:15Z</time>
      </trkpt>
      <trkpt lat="49.32372" lon="0.98811">
        <ele>37.628662</ele>
        <time>2009-06-28T08:39:20Z</time>
      </trkpt>
      <trkpt lat="49.32373" lon="0.98808">
        <ele>37.628662</ele>
        <time>2009-06-28T08:39:21Z</time>
      </trkpt>
      <trkpt lat="49.32375" lon="0.98792">
        <ele>38.590088</ele>
        <time>2009-06-28T08:39:26Z</time>
      </trkpt>
      <trkpt lat="49.32377" lon="0.98784">
        <ele>39.070679</ele>
        <time>2009-06-28T08:39:28Z</time>
      </trkpt>
      <trkpt lat="49.3238" lon="0.98767">
        <ele>40.512817</ele>
        <time>2009-06-28T08:39:34Z</time>
      </trkpt>
      <trkpt lat="49.32386" lon="0.98748">
        <ele>42.435425</ele>
        <time>2009-06-28T08:39:41Z</time>
      </trkpt>
      <trkpt lat="49.32389" lon="0.98741">
        <ele>43.396606</ele>
        <time>2009-06-28T08:39:44Z</time>
      </trkpt>
      <trkpt lat="49.32393" lon="0.98733">
        <ele>45.319214</ele>
        <time>2009-06-28T08:39:49Z</time>
      </trkpt>
      <trkpt lat="49.32398" lon="0.98715">
        <ele>47.241821</ele>
        <time>2009-06-28T08:39:55Z</time>
      </trkpt>
      <trkpt lat="49.324" lon="0.98708">
        <ele>48.68396</ele>
        <time>2009-06-28T08:39:57Z</time>
      </trkpt>
      <trkpt lat="49.32398" lon="0.98683">
        <ele>52.048584</ele>
        <time>2009-06-28T08:40:02Z</time>
      </trkpt>
      <trkpt lat="49.32397" lon="0.98675">
        <ele>52.048584</ele>
        <time>2009-06-28T08:40:03Z</time>
      </trkpt>
      <trkpt lat="49.32387" lon="0.98637">
        <ele>53.490479</ele>
        <time>2009-06-28T08:40:07Z</time>
      </trkpt>
      <trkpt lat="49.32362" lon="0.98556">
        <ele>53.971191</ele>
        <time>2009-06-28T08:40:13Z</time>
      </trkpt>
      <trkpt lat="49.32354" lon="0.98527">
        <ele>53.971191</ele>
        <time>2009-06-28T08:40:15Z</time>
      </trkpt>
      <trkpt lat="49.32332" lon="0.98451">
        <ele>53.971191</ele>
        <time>2009-06-28T08:40:21Z</time>
      </trkpt>
      <trkpt lat="49.32329" lon="0.9844">
        <ele>53.971191</ele>
        <time>2009-06-28T08:40:22Z</time>
      </trkpt>
      <trkpt lat="49.32315" lon="0.98377">
        <ele>55.056885</ele>
        <time>2012-03-11T10:41:24Z</time>
      </trkpt>
      <trkpt lat="49.32315" lon="0.98369">
        <ele>61</ele>
      </trkpt>
      <trkpt lat="49.32347" lon="0.98328">
        <ele>61</ele>
      </trkpt>
      <trkpt lat="49.32372" lon="0.98308">
        <ele>61</ele>
      </trkpt>
      <trkpt lat="49.32488" lon="0.98304">
        <ele>65</ele>
      </trkpt>
      <trkpt lat="49.32524" lon="0.98281">
        <ele>42</ele>
      </trkpt>
      <trkpt lat="49.32584" lon="0.98288">
        <ele>51</ele>
      </trkpt>
      <trkpt lat="49.32638" lon="0.98266">
        <ele>60</ele>
      </trkpt>
      <trkpt lat="49.32656" lon="0.98239">
        <ele>60</ele>
      </trkpt>
      <trkpt lat="49.32706" lon="0.98189">
        <ele>43</ele>
      </trkpt>
      <trkpt lat="49.32717" lon="0.9816">
        <ele>65</ele>
      </trkpt>
      <trkpt lat="49.32803" lon="0.98059">
        <ele>75</ele>
      </trkpt>
      <trkpt lat="49.32848" lon="0.97995">
        <ele>56</ele>
      </trkpt>
      <trkpt lat="49.32857" lon="0.97956">
        <ele>46</ele>
      </trkpt>
      <trkpt lat="49.32857" lon="0.97934">
        <ele>46</ele>
      </trkpt>
      <trkpt lat="49.32872" lon="0.97895">
        <ele>46</ele>
      </trkpt>
      <trkpt lat="49.32872" lon="0.97859">
        <ele>44</ele>
      </trkpt>
      <trkpt lat="49.32883" lon="0.97821">
        <ele>55</ele>
      </trkpt>
      <trkpt lat="49.32876" lon="0.97763">
        <ele>48</ele>
      </trkpt>
      <trkpt lat="49.32862" lon="0.97725">
        <ele>45</ele>
      </trkpt>
      <trkpt lat="49.32849" lon="0.97716">
        <ele>45</ele>
      </trkpt>
      <trkpt lat="49.32834" lon="0.97724">
        <ele>45</ele>
      </trkpt>
      <trkpt lat="49.32831" lon="0.9774">
        <ele>45</ele>
      </trkpt>
      <trkpt lat="49.32815" lon="0.97698">
        <ele>48</ele>
      </trkpt>
      <trkpt lat="49.32785" lon="0.97649">
        <ele>34</ele>
      </trkpt>
      <trkpt lat="49.32759" lon="0.97575">
        <ele>41</ele>
      </trkpt>
      <trkpt lat="49.32763" lon="0.9747">
        <ele>40</ele>
      </trkpt>
      <trkpt lat="49.32771" lon="0.9747">
        <ele>40</ele>
      </trkpt>
      <trkpt lat="49.32782" lon="0.97449">
        <ele>35</ele>
      </trkpt>
      <trkpt lat="49.32796" lon="0.97461">
        <ele>38</ele>
      </trkpt>
      <trkpt lat="49.32808" lon="0.97505">
        <ele>38</ele>
      </trkpt>
      <trkpt lat="49.32827" lon="0.97529">
        <ele>38</ele>
      </trkpt>
      <trkpt lat="49.32863" lon="0.97649">
        <ele>48</ele>
      </trkpt>
      <trkpt lat="49.32893" lon="0.97693">
        <ele>39</ele>
      </trkpt>
      <trkpt lat="49.32927" lon="0.97775">
        <ele>48</ele>
      </trkpt>
      <trkpt lat="49.32915" lon="0.97772">
        <ele>48</ele>
      </trkpt>
      <trkpt lat="49.32903" lon="0.97782">
        <ele>48</ele>
      </trkpt>
      <trkpt lat="49.32896" lon="0.97772">
        <ele>48</ele>
      </trkpt>
      <trkpt lat="49.32912" lon="0.97801">
        <ele>55</ele>
      </trkpt>
      <trkpt lat="49.32909" lon="0.97834">
        <ele>55</ele>
      </trkpt>
      <trkpt lat="49.32917" lon="0.97879">
        <ele>60</ele>
      </trkpt>
      <trkpt lat="49.3291" lon="0.97898">
        <ele>60</ele>
      </trkpt>
      <trkpt lat="49.32908" lon="0.97932">
        <ele>60</ele>
      </trkpt>
      <trkpt lat="49.329" lon="0.97948">
        <ele>60</ele>
      </trkpt>
      <trkpt lat="49.32904" lon="0.97962">
        <ele>64</ele>
      </trkpt>
      <trkpt lat="49.32932" lon="0.97963">
        <ele>64</ele>
      </trkpt>
      <trkpt lat="49.32932" lon="0.97953">
        <ele>60</ele>
      </trkpt>
      <trkpt lat="49.32937" lon="0.97996">
        <ele>64</ele>
      </trkpt>
      <trkpt lat="49.32958" lon="0.98018">
        <ele>64</ele>
      </trkpt>
      <trkpt lat="49.32959" lon="0.98038">
        <ele>65</ele>
      </trkpt>
      <trkpt lat="49.32953" lon="0.98055">
        <ele>72</ele>
      </trkpt>
      <trkpt lat="49.32958" lon="0.98074">
        <ele>72</ele>
      </trkpt>
      <trkpt lat="49.32941" lon="0.98129">
        <ele>85</ele>
      </trkpt>
      <trkpt lat="49.32944" lon="0.9816">
        <ele>85</ele>
      </trkpt>
      <trkpt lat="49.32958" lon="0.98226">
        <ele>93</ele>
        <time>2012-06-24T09:54:56Z</time>
      </trkpt>
      <trkpt lat="49.32976" lon="0.98317">
        <ele>100</ele>
        <time>2012-06-24T09:55:27Z</time>
      </trkpt>
      <trkpt lat="49.3303" lon="0.98445">
        <ele>113</ele>
        <time>2012-06-24T09:56:19Z</time>
      </trkpt>
      <trkpt lat="49.33036" lon="0.98559">
        <ele>120</ele>
        <time>2012-06-24T09:57:01Z</time>
      </trkpt>
      <trkpt lat="49.33047" lon="0.98645">
        <ele>123</ele>
        <time>2012-06-24T09:57:30Z</time>
      </trkpt>
      <trkpt lat="49.33043" lon="0.98749">
        <ele>124</ele>
        <time>2012-06-24T09:58:14Z</time>
      </trkpt>
      <trkpt lat="49.33" lon="0.98784">
        <ele>128</ele>
        <time>2012-06-24T09:58:50Z</time>
      </trkpt>
      <trkpt lat="49.3295" lon="0.9883">
        <ele>129</ele>
        <time>2012-06-24T09:59:20Z</time>
      </trkpt>
      <trkpt lat="49.32981" lon="0.98978">
        <ele>127</ele>
        <time>2012-06-24T09:59:53Z</time>
      </trkpt>
      <trkpt lat="49.32855" lon="0.99082">
        <ele>126</ele>
        <time>2012-06-24T10:00:38Z</time>
      </trkpt>
      <trkpt lat="49.32686" lon="0.99218">
        <ele>120</ele>
        <time>2012-06-24T10:01:17Z</time>
      </trkpt>
      <trkpt lat="49.32612" lon="0.9929">
        <ele>119</ele>
        <time>2012-06-24T10:01:35Z</time>
      </trkpt>
      <trkpt lat="49.32666" lon="0.99461">
        <ele>116.242271</ele>
      </trkpt>
      <trkpt lat="49.32688" lon="0.99523">
        <ele>118.973656</ele>
      </trkpt>
      <trkpt lat="49.32738" lon="0.99577">
        <ele>121.432365</ele>
      </trkpt>
      <trkpt lat="49.32771" lon="0.99596">
        <ele>122.162636</ele>
      </trkpt>
      <trkpt lat="49.32825" lon="0.99623">
        <ele>123</ele>
      </trkpt>
      <trkpt lat="49.32851" lon="0.99627">
        <ele>123</ele>
      </trkpt>
      <trkpt lat="49.329" lon="0.99629">
        <ele>123.012993</ele>
      </trkpt>
      <trkpt lat="49.3295" lon="0.99629">
        <ele>123.943512</ele>
      </trkpt>
      <trkpt lat="49.32991" lon="0.99664">
        <ele>123.417175</ele>
      </trkpt>
      <trkpt lat="49.33035" lon="0.99686">
        <ele>123.088226</ele>
      </trkpt>
      <trkpt lat="49.33061" lon="0.99657">
        <ele>123.494553</ele>
      </trkpt>
      <trkpt lat="49.33086" lon="0.99643">
        <ele>123.688271</ele>
      </trkpt>
      <trkpt lat="49.33126" lon="0.99608">
        <ele>124.232124</ele>
      </trkpt>
      <trkpt lat="49.33153" lon="0.99591">
        <ele>124.803192</ele>
      </trkpt>
      <trkpt lat="49.33179" lon="0.99579">
        <ele>125</ele>
      </trkpt>
      <trkpt lat="49.33203" lon="0.99607">
        <ele>125</ele>
      </trkpt>
      <trkpt lat="49.3324" lon="0.99694">
        <ele>123.397255</ele>
      </trkpt>
      <trkpt lat="49.3325" lon="0.99727">
        <ele>123.05455</ele>
      </trkpt>
      <trkpt lat="49.33253" lon="0.99771">
        <ele>122.64196</ele>
      </trkpt>
      <trkpt lat="49.33236" lon="0.998">
        <ele>121.58223</ele>
      </trkpt>
      <trkpt lat="49.3321" lon="0.99816">
        <ele>119.653069</ele>
      </trkpt>
      <trkpt lat="49.33176" lon="0.99837">
        <ele>116.625793</ele>
      </trkpt>
      <trkpt lat="49.33146" lon="0.99852">
        <ele>114.167183</ele>
      </trkpt>
      <trkpt lat="49.33103" lon="0.99899">
        <ele>107.266769</ele>
      </trkpt>
      <trkpt lat="49.33072" lon="0.99972">
        <ele>101.723602</ele>
      </trkpt>
      <trkpt lat="49.33057" lon="1.00004">
        <ele>100.086754</ele>
      </trkpt>
      <trkpt lat="49.33049" lon="1.0007">
        <ele>95.458405</ele>
      </trkpt>
      <trkpt lat="49.33046" lon="1.00116">
        <ele>91.386986</ele>
      </trkpt>
      <trkpt lat="49.33045" lon="1.00162">
        <ele>86.915283</ele>
      </trkpt>
      <trkpt lat="49.33066" lon="1.00188">
        <ele>87.738396</ele>
      </trkpt>
      <trkpt lat="49.3308" lon="1.00232">
        <ele>83.639557</ele>
      </trkpt>
      <trkpt lat="49.33093" lon="1.00282">
        <ele>84.198074</ele>
      </trkpt>
      <trkpt lat="49.33117" lon="1.00297">
        <ele>85.299362</ele>
      </trkpt>
      <trkpt lat="49.33153" lon="1.00323">
        <ele>90.001595</ele>
      </trkpt>
      <trkpt lat="49.33227" lon="1.00362">
        <ele>96.453171</ele>
      </trkpt>
      <trkpt lat="49.33252" lon="1.00371">
        <ele>97.351715</ele>
      </trkpt>
      <trkpt lat="49.33303" lon="1.00382">
        <ele>103.627457</ele>
      </trkpt>
      <trkpt lat="49.3333" lon="1.00408">
        <ele>107.497894</ele>
      </trkpt>
      <trkpt lat="49.33359" lon="1.00463">
        <ele>111.874062</ele>
      </trkpt>
      <trkpt lat="49.33373" lon="1.00551">
        <ele>118.942764</ele>
      </trkpt>
      <trkpt lat="49.33383" lon="1.00596">
        <ele>121.238235</ele>
      </trkpt>
      <trkpt lat="49.33407" lon="1.00637">
        <ele>122.889191</ele>
      </trkpt>
      <trkpt lat="49.33396" lon="1.00678">
        <ele>123.981049</ele>
      </trkpt>
      <trkpt lat="49.3336" lon="1.00698">
        <ele>124.53833</ele>
      </trkpt>
      <trkpt lat="49.33314" lon="1.00733">
        <ele>125.498466</ele>
      </trkpt>
      <trkpt lat="49.33292" lon="1.00761">
        <ele>125.951271</ele>
      </trkpt>
      <trkpt lat="49.3326" lon="1.00774">
        <ele>125.569946</ele>
      </trkpt>
      <trkpt lat="49.33202" lon="1.0081">
        <ele>123.13266</ele>
      </trkpt>
      <trkpt lat="49.33175" lon="1.00826">
        <ele>120.368034</ele>
      </trkpt>
      <trkpt lat="49.33155" lon="1.00873">
        <ele>116.16169</ele>
      </trkpt>
      <trkpt lat="49.33196" lon="1.00936">
        <ele>119.957855</ele>
      </trkpt>
      <trkpt lat="49.33209" lon="1.00971">
        <ele>119.817192</ele>
      </trkpt>
      <trkpt lat="49.33252" lon="1.01001">
        <ele>123.595329</ele>
      </trkpt>
      <trkpt lat="49.33263" lon="1.01026">
        <ele>124.396057</ele>
      </trkpt>
      <trkpt lat="49.33251" lon="1.01079">
        <ele>124.513092</ele>
      </trkpt>
      <trkpt lat="49.33201" lon="1.01166">
        <ele>126.686935</ele>
      </trkpt>
      <trkpt lat="49.33177" lon="1.01275">
        <ele>128.086136</ele>
      </trkpt>
      <trkpt lat="49.33129" lon="1.01342">
        <ele>129</ele>
      </trkpt>
      <trkpt lat="49.3308" lon="1.01371">
        <ele>129</ele>
      </trkpt>
      <trkpt lat="49.33043" lon="1.014">
        <ele>128.964157</ele>
      </trkpt>
      <trkpt lat="49.33008" lon="1.01445">
        <ele>128.980423</ele>
      </trkpt>
      <trkpt lat="49.32982" lon="1.01505">
        <ele>128.603714</ele>
      </trkpt>
      <trkpt lat="49.32962" lon="1.01556">
        <ele>128.84317</ele>
      </trkpt>
      <trkpt lat="49.32938" lon="1.01615">
        <ele>128.019867</ele>
      </trkpt>
      <trkpt lat="49.32905" lon="1.01673">
        <ele>128</ele>
      </trkpt>
      <trkpt lat="49.32898" lon="1.01725">
        <ele>128</ele>
      </trkpt>
      <trkpt lat="49.32901" lon="1.01737">
        <ele>119.34082</ele>
        <time>2009-06-28T08:19:35Z</time>
      </trkpt>
      <trkpt lat="49.32906" lon="1.0175">
        <ele>120.302124</ele>
        <time>2009-06-28T08:19:33Z</time>
      </trkpt>
      <trkpt lat="49.32915" lon="1.01778">
        <ele>121.744141</ele>
        <time>2009-06-28T08:19:28Z</time>
      </trkpt>
      <trkpt lat="49.32941" lon="1.01856">
        <ele>123.186157</ele>
        <time>2009-06-28T08:19:17Z</time>
      </trkpt>
      <trkpt lat="49.32958" lon="1.01915">
        <ele>123.186157</ele>
        <time>2009-06-28T08:19:09Z</time>
      </trkpt>
      <trkpt lat="49.32986" lon="1.01997">
        <ele>128</ele>
      </trkpt>
      <trkpt lat="49.33016" lon="1.02086">
        <ele>128</ele>
      </trkpt>
      <trkpt lat="49.33038" lon="1.02169">
        <ele>128</ele>
      </trkpt>
      <trkpt lat="49.33074" lon="1.0228">
        <ele>128</ele>
      </trkpt>
      <trkpt lat="49.33111" lon="1.02379">
        <ele>127</ele>
      </trkpt>
      <trkpt lat="49.33144" lon="1.02475">
        <ele>126.62109375</ele>
      </trkpt>
      <trkpt lat="49.33138" lon="1.02556">
        <ele>126</ele>
      </trkpt>
      <trkpt lat="49.33119" lon="1.02678">
        <ele>126</ele>
      </trkpt>
      <trkpt lat="49.33111" lon="1.02746">
        <ele>125.71484375</ele>
      </trkpt>
      <trkpt lat="49.33097" lon="1.02834">
        <ele>125</ele>
      </trkpt>
      <trkpt lat="49.3309" lon="1.02881">
        <ele>125</ele>
      </trkpt>
      <trkpt lat="49.33081" lon="1.02948">
        <ele>124</ele>
      </trkpt>
      <trkpt lat="49.33063" lon="1.02982">
        <ele>124</ele>
      </trkpt>
      <trkpt lat="49.33057" lon="1.03026">
        <ele>123.21484375</ele>
      </trkpt>
      <trkpt lat="49.3305" lon="1.03065">
        <ele>122.40234375</ele>
      </trkpt>
      <trkpt lat="49.3305" lon="1.03068">
        <ele>122.30859375</ele>
      </trkpt>
      <trkpt lat="49.3305" lon="1.03083">
        <ele>122.0078125</ele>
      </trkpt>
      <trkpt lat="49.33029" lon="1.03179">
        <ele>121</ele>
      </trkpt>
      <trkpt lat="49.33023" lon="1.03218">
        <ele>121</ele>
      </trkpt>
      <trkpt lat="49.33007" lon="1.03263">
        <ele>121.54296875</ele>
      </trkpt>
      <trkpt lat="49.3302" lon="1.03286">
        <ele>121.0859375</ele>
      </trkpt>
      <trkpt lat="49.33014" lon="1.0335">
        <ele>122.23828125</ele>
      </trkpt>
      <trkpt lat="49.3301" lon="1.0336">
        <ele>122.44921875</ele>
      </trkpt>
      <trkpt lat="49.32996" lon="1.03421">
        <ele>122.953125</ele>
      </trkpt>
      <trkpt lat="49.32988" lon="1.03472">
        <ele>124.0625</ele>
      </trkpt>
      <trkpt lat="49.32958" lon="1.0359">
        <ele>125.67578125</ele>
      </trkpt>
      <trkpt lat="49.32954" lon="1.03637">
        <ele>125.2421875</ele>
      </trkpt>
      <trkpt lat="49.32952" lon="1.03648">
        <ele>124.5625</ele>
      </trkpt>
      <trkpt lat="49.32952" lon="1.03648">
        <ele>124.5390625</ele>
      </trkpt>
      <trkpt lat="49.32951" lon="1.03658">
        <ele>123.9921875</ele>
      </trkpt>
      <trkpt lat="49.32933" lon="1.03643">
        <ele>123.3671875</ele>
      </trkpt>
      <trkpt lat="49.32903" lon="1.03616">
        <ele>118.78125</ele>
      </trkpt>
      <trkpt lat="49.32858" lon="1.0363">
        <ele>116.9375</ele>
        <time>2012-09-15T12:43:25Z</time>
      </trkpt>
      <trkpt lat="49.3286" lon="1.03627">
        <ele>116.9375</ele>
        <time>2012-09-15T12:43:33Z</time>
      </trkpt>
      <trkpt lat="49.32864" lon="1.0361">
        <ele>116.9375</ele>
        <time>2012-09-15T12:43:38Z</time>
      </trkpt>
      <trkpt lat="49.32868" lon="1.03571">
        <ele>115.0148926</ele>
        <time>2012-09-15T12:43:46Z</time>
      </trkpt>
      <trkpt lat="49.3287" lon="1.03532">
        <ele>115.9761963</ele>
        <time>2012-09-15T12:43:54Z</time>
      </trkpt>
      <trkpt lat="49.32869" lon="1.03527">
        <ele>116.9375</ele>
        <time>2012-09-15T12:43:59Z</time>
      </trkpt>
      <trkpt lat="49.32858" lon="1.03483">
        <ele>116.4567871</ele>
        <time>2012-09-15T12:44:09Z</time>
      </trkpt>
      <trkpt lat="49.3285" lon="1.0344">
        <ele>115.9761963</ele>
        <time>2012-09-15T12:44:21Z</time>
      </trkpt>
      <trkpt lat="49.32845" lon="1.0342">
        <ele>115.9761963</ele>
        <time>2012-09-15T12:44:26Z</time>
      </trkpt>
      <trkpt lat="49.32845" lon="1.03361">
        <ele>115.9761963</ele>
        <time>2012-09-15T12:44:40Z</time>
      </trkpt>
      <trkpt lat="49.32854" lon="1.03322">
        <ele>116.9375</ele>
        <time>2012-09-15T12:44:49Z</time>
      </trkpt>
      <trkpt lat="49.32857" lon="1.03275">
        <ele>117.8988037</ele>
        <time>2012-09-15T12:44:56Z</time>
      </trkpt>
      <trkpt lat="49.32858" lon="1.03267">
        <ele>117.8988037</ele>
        <time>2012-09-15T12:44:58Z</time>
      </trkpt>
      <trkpt lat="49.32856" lon="1.03231">
        <ele>119.8214111</ele>
        <time>2012-09-15T12:45:07Z</time>
      </trkpt>
      <trkpt lat="49.3285" lon="1.03193">
        <ele>121.2635498</ele>
        <time>2012-09-15T12:45:17Z</time>
      </trkpt>
      <trkpt lat="49.32847" lon="1.03177">
        <ele>122.2247314</ele>
        <time>2012-09-15T12:45:21Z</time>
      </trkpt>
      <trkpt lat="49.32813" lon="1.0313">
        <ele>120.7828369</ele>
        <time>2012-09-15T12:45:35Z</time>
      </trkpt>
      <trkpt lat="49.328" lon="1.03104">
        <ele>116.9375</ele>
        <time>2012-09-15T12:45:43Z</time>
      </trkpt>
      <trkpt lat="49.32798" lon="1.03061">
        <ele>112.1309814</ele>
        <time>2012-09-15T12:45:52Z</time>
      </trkpt>
      <trkpt lat="49.32795" lon="1.02994">
        <ele>111.1695557</ele>
        <time>2012-09-15T12:46:01Z</time>
      </trkpt>
      <trkpt lat="49.32783" lon="1.02959">
        <ele>108.2856445</ele>
        <time>2012-09-15T12:46:07Z</time>
      </trkpt>
      <trkpt lat="49.32773" lon="1.02928">
        <ele>109.7276611</ele>
        <time>2012-09-15T12:46:14Z</time>
      </trkpt>
      <trkpt lat="49.3277" lon="1.02914">
        <ele>107.8050537</ele>
        <time>2012-09-15T12:46:19Z</time>
      </trkpt>
      <trkpt lat="49.32745" lon="1.02875">
        <ele>108.7662354</ele>
        <time>2012-09-15T12:46:32Z</time>
      </trkpt>
      <trkpt lat="49.32745" lon="1.02872">
        <ele>108.2856445</ele>
        <time>2012-09-15T12:46:33Z</time>
      </trkpt>
      <trkpt lat="49.32746" lon="1.02839">
        <ele>110.208252</ele>
        <time>2012-09-15T12:46:45Z</time>
      </trkpt>
      <trkpt lat="49.32747" lon="1.0282">
        <ele>112.1309814</ele>
        <time>2012-09-15T12:48:33Z</time>
      </trkpt>
      <trkpt lat="49.32748" lon="1.02818">
        <ele>112.1309814</ele>
        <time>2012-09-15T12:48:34Z</time>
      </trkpt>
      <trkpt lat="49.32748" lon="1.02805">
        <ele>111.6502686</ele>
        <time>2012-09-15T12:48:49Z</time>
      </trkpt>
      <trkpt lat="49.3275" lon="1.02792">
        <ele>111.6502686</ele>
        <time>2012-09-15T12:49:05Z</time>
      </trkpt>
      <trkpt lat="49.32754" lon="1.02779">
        <ele>109.2469482</ele>
        <time>2012-09-15T12:49:18Z</time>
      </trkpt>
      <trkpt lat="49.32758" lon="1.02763">
        <ele>106.3630371</ele>
        <time>2012-09-15T12:49:32Z</time>
      </trkpt>
      <trkpt lat="49.32762" lon="1.02744">
        <ele>102.0371094</ele>
        <time>2012-09-15T12:49:50Z</time>
      </trkpt>
      <trkpt lat="49.3276" lon="1.02724">
        <ele>102.0371094</ele>
        <time>2012-09-15T12:50:16Z</time>
      </trkpt>
      <trkpt lat="49.3276" lon="1.02715">
        <ele>102.0371094</ele>
        <time>2012-09-15T12:50:24Z</time>
      </trkpt>
      <trkpt lat="49.32759" lon="1.02688">
        <ele>98.6724854</ele>
        <time>2012-09-15T12:50:36Z</time>
      </trkpt>
      <trkpt lat="49.32759" lon="1.02678">
        <ele>97.7111816</ele>
        <time>2012-09-15T12:50:43Z</time>
      </trkpt>
      <trkpt lat="49.32759" lon="1.02666">
        <ele>98.6724854</ele>
        <time>2012-09-15T12:50:52Z</time>
      </trkpt>
      <trkpt lat="49.32754" lon="1.02644">
        <ele>98.1918945</ele>
        <time>2012-09-15T12:51:07Z</time>
      </trkpt>
      <trkpt lat="49.32754" lon="1.02629">
        <ele>99.6337891</ele>
        <time>2012-09-15T12:51:21Z</time>
      </trkpt>
      <trkpt lat="49.3275" lon="1.02604">
        <ele>96.7498779</ele>
        <time>2012-09-15T12:51:40Z</time>
      </trkpt>
      <trkpt lat="49.32748" lon="1.02595">
        <ele>100.114502</ele>
        <time>2012-09-15T12:51:51Z</time>
      </trkpt>
      <trkpt lat="49.32744" lon="1.02576">
        <ele>105.4017334</ele>
        <time>2012-09-15T12:52:09Z</time>
      </trkpt>
      <trkpt lat="49.32741" lon="1.02561">
        <ele>108.2856445</ele>
        <time>2012-09-15T12:52:23Z</time>
      </trkpt>
      <trkpt lat="49.3274" lon="1.02549">
        <ele>112.6115723</ele>
        <time>2012-09-15T12:52:37Z</time>
      </trkpt>
      <trkpt lat="49.32739" lon="1.02533">
        <ele>115.4956055</ele>
        <time>2012-09-15T12:52:50Z</time>
      </trkpt>
      <trkpt lat="49.32737" lon="1.02522">
        <ele>116.9375</ele>
        <time>2012-09-15T12:53:55Z</time>
      </trkpt>
      <trkpt lat="49.32732" lon="1.02477">
        <ele>114.0535889</ele>
        <time>2012-09-15T12:54:03Z</time>
      </trkpt>
      <trkpt lat="49.3272" lon="1.02412">
        <ele>109.2469482</ele>
        <time>2012-09-15T12:54:15Z</time>
      </trkpt>
      <trkpt lat="49.32716" lon="1.02391">
        <ele>110.208252</ele>
        <time>2012-09-15T12:54:20Z</time>
      </trkpt>
      <trkpt lat="49.32714" lon="1.02384">
        <ele>110.208252</ele>
        <time>2012-09-15T12:54:22Z</time>
      </trkpt>
      <trkpt lat="49.32701" lon="1.02353">
        <ele>119.8214111</ele>
        <time>2012-09-15T12:54:36Z</time>
      </trkpt>
      <trkpt lat="49.32699" lon="1.02345">
        <ele>121.2635498</ele>
        <time>2012-09-15T12:54:48Z</time>
      </trkpt>
      <trkpt lat="49.32697" lon="1.02328">
        <ele>119.3408203</ele>
        <time>2012-09-15T12:55:03Z</time>
      </trkpt>
      <trkpt lat="49.32698" lon="1.02326">
        <ele>119.3408203</ele>
        <time>2012-09-15T12:56:13Z</time>
      </trkpt>
      <trkpt lat="49.32695" lon="1.02317">
        <ele>119.3408203</ele>
        <time>2012-09-15T12:56:18Z</time>
      </trkpt>
      <trkpt lat="49.3269" lon="1.02296">
        <ele>117.8988037</ele>
        <time>2012-09-15T12:56:30Z</time>
      </trkpt>
      <trkpt lat="49.32683" lon="1.0228">
        <ele>115.0148926</ele>
        <time>2012-09-15T12:56:49Z</time>
      </trkpt>
      <trkpt lat="49.32684" lon="1.02272">
        <ele>114.5341797</ele>
        <time>2012-09-15T12:56:53Z</time>
      </trkpt>
      <trkpt lat="49.32682" lon="1.02265">
        <ele>112.6115723</ele>
        <time>2012-09-15T12:56:57Z</time>
      </trkpt>
      <trkpt lat="49.32677" lon="1.02246">
        <ele>110.208252</ele>
        <time>2012-09-15T12:57:11Z</time>
      </trkpt>
      <trkpt lat="49.32673" lon="1.02241">
        <ele>109.7276611</ele>
        <time>2012-09-15T12:57:13Z</time>
      </trkpt>
      <trkpt lat="49.3266" lon="1.02205">
        <ele>106.3630371</ele>
        <time>2012-09-15T12:57:23Z</time>
      </trkpt>
      <trkpt lat="49.32655" lon="1.02184">
        <ele>107.8050537</ele>
        <time>2012-09-15T12:57:29Z</time>
      </trkpt>
      <trkpt lat="49.32637" lon="1.02142">
        <ele>108.2856445</ele>
        <time>2012-09-15T12:57:40Z</time>
      </trkpt>
      <trkpt lat="49.3263" lon="1.02119">
        <ele>106.3630371</ele>
        <time>2012-09-15T12:57:44Z</time>
      </trkpt>
      <trkpt lat="49.32621" lon="1.0208">
        <ele>102.0371094</ele>
        <time>2012-09-15T12:57:51Z</time>
      </trkpt>
      <trkpt lat="49.32619" lon="1.02065">
        <ele>101.5563965</ele>
        <time>2012-09-15T12:57:55Z</time>
      </trkpt>
      <trkpt lat="49.3261" lon="1.02038">
        <ele>102.0371094</ele>
        <time>2012-09-15T12:58:03Z</time>
      </trkpt>
      <trkpt lat="49.32609" lon="1.02034">
        <ele>102.0371094</ele>
        <time>2012-09-15T12:58:05Z</time>
      </trkpt>
      <trkpt lat="49.32606" lon="1.02025">
        <ele>102.998291</ele>
        <time>2012-09-15T12:58:17Z</time>
      </trkpt>
      <trkpt lat="49.32602" lon="1.02009">
        <ele>102.5177002</ele>
        <time>2012-09-15T12:58:36Z</time>
      </trkpt>
      <trkpt lat="49.32595" lon="1.01995">
        <ele>103.4790039</ele>
        <time>2012-09-15T12:58:56Z</time>
      </trkpt>
      <trkpt lat="49.32592" lon="1.01985">
        <ele>103.4790039</ele>
        <time>2012-09-15T12:59:17Z</time>
      </trkpt>
      <trkpt lat="49.32589" lon="1.01977">
        <ele>103.9597168</ele>
        <time>2012-09-15T12:59:33Z</time>
      </trkpt>
      <trkpt lat="49.32586" lon="1.01966">
        <ele>104.9210205</ele>
        <time>2012-09-15T12:59:51Z</time>
      </trkpt>
      <trkpt lat="49.32584" lon="1.01958">
        <ele>105.4017334</ele>
        <time>2012-09-15T13:00:09Z</time>
      </trkpt>
      <trkpt lat="49.32582" lon="1.01951">
        <ele>105.4017334</ele>
        <time>2012-09-15T13:00:27Z</time>
      </trkpt>
      <trkpt lat="49.3257" lon="1.0191">
        <ele>102.5177002</ele>
        <time>2012-09-15T13:00:38Z</time>
      </trkpt>
      <trkpt lat="49.32569" lon="1.01906">
        <ele>102.0371094</ele>
        <time>2012-09-15T13:00:39Z</time>
      </trkpt>
      <trkpt lat="49.32568" lon="1.01898">
        <ele>100.5950928</ele>
        <time>2012-09-15T13:00:41Z</time>
      </trkpt>
      <trkpt lat="49.32565" lon="1.01884">
        <ele>98.6724854</ele>
        <time>2012-09-15T13:00:44Z</time>
      </trkpt>
      <trkpt lat="49.32564" lon="1.01868">
        <ele>96.7498779</ele>
        <time>2012-09-15T13:00:48Z</time>
      </trkpt>
      <trkpt lat="49.32559" lon="1.01841">
        <ele>94.8271484</ele>
        <time>2012-09-15T13:00:56Z</time>
      </trkpt>
      <trkpt lat="49.32553" lon="1.01787">
        <ele>96.7498779</ele>
        <time>2012-09-15T13:01:05Z</time>
      </trkpt>
      <trkpt lat="49.32544" lon="1.01767">
        <ele>98.1918945</ele>
        <time>2012-09-15T13:01:08Z</time>
      </trkpt>
      <trkpt lat="49.32519" lon="1.01735">
        <ele>105.8824463</ele>
        <time>2012-09-15T13:01:21Z</time>
      </trkpt>
      <trkpt lat="49.32514" lon="1.01731">
        <ele>106.3630371</ele>
        <time>2012-09-15T13:01:24Z</time>
      </trkpt>
      <trkpt lat="49.32511" lon="1.0173">
        <ele>107.3243408</ele>
        <time>2012-09-15T13:01:40Z</time>
      </trkpt>
      <trkpt lat="49.32511" lon="1.01723">
        <ele>108.2856445</ele>
        <time>2012-09-15T13:01:52Z</time>
      </trkpt>
      <trkpt lat="49.3251" lon="1.0172">
        <ele>108.2856445</ele>
        <time>2012-09-15T13:01:54Z</time>
      </trkpt>
      <trkpt lat="49.3251" lon="1.01715">
        <ele>108.2856445</ele>
        <time>2012-09-15T13:01:57Z</time>
      </trkpt>
      <trkpt lat="49.32511" lon="1.01695">
        <ele>110.6888428</ele>
        <time>2012-09-15T13:02:12Z</time>
      </trkpt>
      <trkpt lat="49.32517" lon="1.01665">
        <ele>112.1309814</ele>
        <time>2012-09-15T13:02:29Z</time>
      </trkpt>
      <trkpt lat="49.32522" lon="1.01646">
        <ele>111.6502686</ele>
        <time>2012-09-15T13:02:35Z</time>
      </trkpt>
      <trkpt lat="49.32521" lon="1.01638">
        <ele>112.1309814</ele>
        <time>2012-09-15T13:02:49Z</time>
      </trkpt>
      <trkpt lat="49.32514" lon="1.01614">
        <ele>112.6115723</ele>
        <time>2012-09-15T13:03:35Z</time>
      </trkpt>
      <trkpt lat="49.32516" lon="1.01605">
        <ele>113.0922852</ele>
        <time>2012-09-15T13:03:38Z</time>
      </trkpt>
      <trkpt lat="49.32512" lon="1.01588">
        <ele>113.572998</ele>
        <time>2012-09-15T13:03:43Z</time>
      </trkpt>
      <trkpt lat="49.3251" lon="1.01571">
        <ele>113.0922852</ele>
        <time>2012-09-15T13:03:48Z</time>
      </trkpt>
      <trkpt lat="49.32485" lon="1.01521">
        <ele>115.0148926</ele>
        <time>2012-09-15T13:04:03Z</time>
      </trkpt>
      <trkpt lat="49.32455" lon="1.01471">
        <ele>116.4567871</ele>
        <time>2012-09-15T13:04:16Z</time>
      </trkpt>
      <trkpt lat="49.32419" lon="1.01422">
        <ele>117.8988037</ele>
        <time>2012-09-15T13:04:29Z</time>
      </trkpt>
      <trkpt lat="49.32408" lon="1.01406">
        <ele>117.8988037</ele>
        <time>2012-09-15T13:04:33Z</time>
      </trkpt>
      <trkpt lat="49.32401" lon="1.01382">
        <ele>117.8988037</ele>
        <time>2012-09-15T13:04:37Z</time>
      </trkpt>
      <trkpt lat="49.32393" lon="1.01357">
        <ele>117.4182129</ele>
        <time>2012-09-15T13:04:41Z</time>
      </trkpt>
      <trkpt lat="49.32383" lon="1.01338">
        <ele>117.8988037</ele>
        <time>2012-09-15T13:04:44Z</time>
      </trkpt>
      <trkpt lat="49.32382" lon="1.01304">
        <ele>116.4567871</ele>
        <time>2012-09-15T13:04:48Z</time>
      </trkpt>
      <trkpt lat="49.32386" lon="1.01272">
        <ele>115.9761963</ele>
        <time>2012-09-15T13:04:53Z</time>
      </trkpt>
      <trkpt lat="49.32392" lon="1.01224">
        <ele>113.0922852</ele>
        <time>2012-09-15T13:05:01Z</time>
      </trkpt>
      <trkpt lat="49.32385" lon="1.01206">
        <ele>112.6115723</ele>
        <time>2012-09-15T13:05:05Z</time>
      </trkpt>
      <trkpt lat="49.3237" lon="1.01194">
        <ele>113.572998</ele>
        <time>2012-09-15T13:05:11Z</time>
      </trkpt>
      <trkpt lat="49.32367" lon="1.01187">
        <ele>114.0535889</ele>
        <time>2012-09-15T13:05:13Z</time>
      </trkpt>
      <trkpt lat="49.32353" lon="1.01147">
        <ele>115.0148926</ele>
        <time>2012-09-15T13:05:23Z</time>
      </trkpt>
      <trkpt lat="49.32349" lon="1.01133">
        <ele>114.5341797</ele>
        <time>2012-09-15T13:05:25Z</time>
      </trkpt>
      <trkpt lat="49.32338" lon="1.01111">
        <ele>113.0922852</ele>
        <time>2012-09-15T13:05:30Z</time>
      </trkpt>
      <trkpt lat="49.32325" lon="1.01101">
        <ele>112.1309814</ele>
        <time>2012-09-15T13:05:34Z</time>
      </trkpt>
      <trkpt lat="49.3229" lon="1.01067">
        <ele>111.6502686</ele>
        <time>2012-09-15T13:05:43Z</time>
      </trkpt>
      <trkpt lat="49.32274" lon="1.01056">
        <ele>112.6115723</ele>
        <time>2012-09-15T13:05:51Z</time>
      </trkpt>
      <trkpt lat="49.32276" lon="1.01056">
        <ele>112.6115723</ele>
        <time>2012-09-15T13:06:00Z</time>
      </trkpt>
      <trkpt lat="49.32277" lon="1.01047">
        <ele>116.4567871</ele>
        <time>2012-09-15T13:06:11Z</time>
      </trkpt>
      <trkpt lat="49.32274" lon="1.01026">
        <ele>115.4956055</ele>
        <time>2012-09-15T13:06:20Z</time>
      </trkpt>
      <trkpt lat="49.32271" lon="1.01011">
        <ele>113.0922852</ele>
        <time>2012-09-15T13:06:26Z</time>
      </trkpt>
      <trkpt lat="49.32266" lon="1.01008">
        <ele>113.0922852</ele>
        <time>2012-09-15T13:06:29Z</time>
      </trkpt>
      <trkpt lat="49.32264" lon="1.01016">
        <ele>111.1695557</ele>
        <time>2012-09-15T13:06:33Z</time>
      </trkpt>
      <trkpt lat="49.32261" lon="1.01019">
        <ele>109.7276611</ele>
        <time>2012-09-15T13:06:47Z</time>
      </trkpt>
      <trkpt lat="49.32256" lon="1.01012">
        <ele>109.2469482</ele>
        <time>2012-09-15T13:06:50Z</time>
      </trkpt>
      <trkpt lat="49.3223" lon="1.00962">
        <ele>109.2469482</ele>
        <time>2012-09-15T13:06:59Z</time>
      </trkpt>
      <trkpt lat="49.32227" lon="1.00958">
        <ele>109.2469482</ele>
        <time>2012-09-15T13:07:19Z</time>
      </trkpt>
      <trkpt lat="49.32227" lon="1.00956">
        <ele>109.2469482</ele>
        <time>2012-09-15T13:07:29Z</time>
      </trkpt>
      <trkpt lat="49.32223" lon="1.0094">
        <ele>107.8050537</ele>
        <time>2012-09-15T13:07:38Z</time>
      </trkpt>
      <trkpt lat="49.32213" lon="1.00918">
        <ele>106.8436279</ele>
        <time>2012-09-15T13:07:52Z</time>
      </trkpt>
      <trkpt lat="49.32208" lon="1.00909">
        <ele>105.4017334</ele>
        <time>2012-09-15T13:07:54Z</time>
      </trkpt>
      <trkpt lat="49.32202" lon="1.00841">
        <ele>97.7111816</ele>
        <time>2012-09-15T13:08:03Z</time>
      </trkpt>
      <trkpt lat="49.32207" lon="1.00812">
        <ele>93.3851318</ele>
        <time>2012-09-15T13:08:08Z</time>
      </trkpt>
      <trkpt lat="49.32209" lon="1.00804">
        <ele>92.904541</ele>
        <time>2012-09-15T13:08:10Z</time>
      </trkpt>
      <trkpt lat="49.32206" lon="1.00795">
        <ele>91.4625244</ele>
        <time>2012-09-15T13:08:13Z</time>
      </trkpt>
      <trkpt lat="49.32209" lon="1.00773">
        <ele>88.0980225</ele>
        <time>2012-09-15T13:08:19Z</time>
      </trkpt>
      <trkpt lat="49.32218" lon="1.00763">
        <ele>85.2139893</ele>
        <time>2012-09-15T13:08:23Z</time>
      </trkpt>
      <trkpt lat="49.32223" lon="1.00756">
        <ele>84.2526855</ele>
        <time>2012-09-15T13:08:28Z</time>
      </trkpt>
      <trkpt lat="49.3221" lon="1.00743">
        <ele>85.2139893</ele>
        <time>2012-09-15T13:08:37Z</time>
      </trkpt>
      <trkpt lat="49.32195" lon="1.00725">
        <ele>83.7719727</ele>
        <time>2012-09-15T13:08:48Z</time>
      </trkpt>
      <trkpt lat="49.32192" lon="1.00721">
        <ele>83.7719727</ele>
        <time>2012-09-15T13:08:50Z</time>
      </trkpt>
      <trkpt lat="49.3218" lon="1.00718">
        <ele>82.3300781</ele>
        <time>2012-09-15T13:08:55Z</time>
      </trkpt>
      <trkpt lat="49.32168" lon="1.00711">
        <ele>81.3687744</ele>
        <time>2012-09-15T13:08:59Z</time>
      </trkpt>
      <trkpt lat="49.32139" lon="1.00717">
        <ele>84.2526855</ele>
        <time>2012-09-15T13:09:07Z</time>
      </trkpt>
      <trkpt lat="49.32109" lon="1.00732">
        <ele>87.1365967</ele>
        <time>2012-09-15T13:09:18Z</time>
      </trkpt>
      <trkpt lat="49.32095" lon="1.00745">
        <ele>88.0980225</ele>
        <time>2012-09-15T13:09:32Z</time>
      </trkpt>
      <trkpt lat="49.32092" lon="1.00751">
        <ele>88.0980225</ele>
        <time>2012-09-15T13:09:34Z</time>
      </trkpt>
      <trkpt lat="49.32077" lon="1.00763">
        <ele>87.1365967</ele>
        <time>2012-09-15T13:09:42Z</time>
      </trkpt>
      <trkpt lat="49.32071" lon="1.00761">
        <ele>86.6560059</ele>
        <time>2012-09-15T13:09:45Z</time>
      </trkpt>
      <trkpt lat="49.32051" lon="1.00765">
        <ele>81.3687744</ele>
        <time>2012-09-15T13:09:53Z</time>
      </trkpt>
      <trkpt lat="49.32048" lon="1.00762">
        <ele>81.3687744</ele>
        <time>2012-09-15T13:09:57Z</time>
      </trkpt>
      <trkpt lat="49.32044" lon="1.00739">
        <ele>78.4847412</ele>
        <time>2012-09-15T13:10:07Z</time>
      </trkpt>
      <trkpt lat="49.32028" lon="1.00702">
        <ele>78.4847412</ele>
        <time>2012-09-15T13:10:19Z</time>
      </trkpt>
      <trkpt lat="49.32014" lon="1.00687">
        <ele>78.0040283</ele>
        <time>2012-09-15T13:10:30Z</time>
      </trkpt>
      <trkpt lat="49.32012" lon="1.00681">
        <ele>76.0814209</ele>
        <time>2012-09-15T13:10:36Z</time>
      </trkpt>
      <trkpt lat="49.32012" lon="1.00655">
        <ele>75.6008301</ele>
        <time>2012-09-15T13:10:50Z</time>
      </trkpt>
      <trkpt lat="49.32011" lon="1.00651">
        <ele>76.0814209</ele>
        <time>2012-09-15T13:10:52Z</time>
      </trkpt>
      <trkpt lat="49.32016" lon="1.00633">
        <ele>76.0814209</ele>
        <time>2012-09-15T13:11:05Z</time>
      </trkpt>
      <trkpt lat="49.32013" lon="1.00622">
        <ele>76.0814209</ele>
        <time>2012-09-15T13:11:19Z</time>
      </trkpt>
      <trkpt lat="49.32006" lon="1.00619">
        <ele>75.6008301</ele>
        <time>2012-09-15T13:11:24Z</time>
      </trkpt>
      <trkpt lat="49.31985" lon="1.00623">
        <ele>75.6008301</ele>
        <time>2012-09-15T13:11:35Z</time>
      </trkpt>
      <trkpt lat="49.31976" lon="1.00621">
        <ele>78.9654541</ele>
        <time>2012-09-15T13:11:46Z</time>
      </trkpt>
      <trkpt lat="49.31972" lon="1.0062">
        <ele>79.4460449</ele>
        <time>2012-09-15T13:11:52Z</time>
      </trkpt>
      <trkpt lat="49.31964" lon="1.00619">
        <ele>78.9654541</ele>
        <time>2012-09-15T13:12:01Z</time>
      </trkpt>
      <trkpt lat="49.31959" lon="1.00601">
        <ele>77.0428467</ele>
        <time>2012-09-15T13:12:09Z</time>
      </trkpt>
      <trkpt lat="49.31964" lon="1.00584">
        <ele>72.7169189</ele>
        <time>2012-09-15T13:12:23Z</time>
      </trkpt>
      <trkpt lat="49.31971" lon="1.00552">
        <ele>66.9489746</ele>
        <time>2012-09-15T13:12:45Z</time>
      </trkpt>
      <trkpt lat="49.31973" lon="1.00533">
        <ele>62.6229248</ele>
        <time>2012-09-15T13:13:03Z</time>
      </trkpt>
      <trkpt lat="49.3197" lon="1.00534">
        <ele>60.7003174</ele>
        <time>2012-09-15T13:13:21Z</time>
      </trkpt>
      <trkpt lat="49.3197" lon="1.0054">
        <ele>60.7003174</ele>
        <time>2012-09-15T13:13:23Z</time>
      </trkpt>
      <trkpt lat="49.31967" lon="1.00544">
        <ele>60.7003174</ele>
        <time>2012-09-15T13:13:29Z</time>
      </trkpt>
      <trkpt lat="49.31962" lon="1.00535">
        <ele>60.2197266</ele>
        <time>2012-09-15T13:13:43Z</time>
      </trkpt>
      <trkpt lat="49.31957" lon="1.00517">
        <ele>60.2197266</ele>
        <time>2012-09-15T13:14:00Z</time>
      </trkpt>
      <trkpt lat="49.31949" lon="1.00515">
        <ele>65.5070801</ele>
        <time>2012-09-15T13:14:14Z</time>
      </trkpt>
      <trkpt lat="49.31942" lon="1.00515">
        <ele>65.9876709</ele>
        <time>2012-09-15T13:14:19Z</time>
      </trkpt>
      <trkpt lat="49.31931" lon="1.00509">
        <ele>68.3908691</ele>
        <time>2012-09-15T13:14:33Z</time>
      </trkpt>
      <trkpt lat="49.31931" lon="1.00508">
        <ele>68.3908691</ele>
        <time>2012-09-15T13:14:36Z</time>
      </trkpt>
      <trkpt lat="49.31918" lon="1.00506">
        <ele>67.4296875</ele>
        <time>2012-09-15T13:14:43Z</time>
      </trkpt>
      <trkpt lat="49.31913" lon="1.00495">
        <ele>66.4682617</ele>
        <time>2012-09-15T13:14:48Z</time>
      </trkpt>
      <trkpt lat="49.3191" lon="1.00485">
        <ele>66.4682617</ele>
        <time>2012-09-15T13:14:52Z</time>
      </trkpt>
      <trkpt lat="49.31912" lon="1.00476">
        <ele>68.871582</ele>
        <time>2012-09-15T13:15:03Z</time>
      </trkpt>
      <trkpt lat="49.31912" lon="1.00472">
        <ele>69.8328857</ele>
        <time>2012-09-15T13:15:06Z</time>
      </trkpt>
      <trkpt lat="49.31916" lon="1.00466">
        <ele>69.8328857</ele>
        <time>2012-09-15T13:15:10Z</time>
      </trkpt>
      <trkpt lat="49.31915" lon="1.00449">
        <ele>71.2749023</ele>
        <time>2012-09-15T13:15:18Z</time>
      </trkpt>
      <trkpt lat="49.31913" lon="1.0044">
        <ele>76.0814209</ele>
        <time>2012-09-15T13:15:24Z</time>
      </trkpt>
      <trkpt lat="49.31912" lon="1.00434">
        <ele>74.6395264</ele>
        <time>2012-09-15T13:15:26Z</time>
      </trkpt>
      <trkpt lat="49.31906" lon="1.00432">
        <ele>73.6782227</ele>
        <time>2012-09-15T13:15:29Z</time>
      </trkpt>
      <trkpt lat="49.31887" lon="1.0042">
        <ele>74.6395264</ele>
        <time>2012-09-15T13:15:45Z</time>
      </trkpt>
      <trkpt lat="49.31882" lon="1.00417">
        <ele>75.6008301</ele>
        <time>2012-09-15T13:16:00Z</time>
      </trkpt>
      <trkpt lat="49.31876" lon="1.00415">
        <ele>76.5621338</ele>
        <time>2012-09-15T13:16:29Z</time>
      </trkpt>
      <trkpt lat="49.31871" lon="1.00405">
        <ele>79.9266357</ele>
        <time>2012-09-15T13:16:58Z</time>
      </trkpt>
      <trkpt lat="49.31862" lon="1.00397">
        <ele>78.4847412</ele>
        <time>2012-09-15T13:17:04Z</time>
      </trkpt>
      <trkpt lat="49.31858" lon="1.00382">
        <ele>75.6008301</ele>
        <time>2012-09-15T13:17:08Z</time>
      </trkpt>
      <trkpt lat="49.31856" lon="1.00367">
        <ele>75.1202393</ele>
        <time>2012-09-15T13:17:12Z</time>
      </trkpt>
      <trkpt lat="49.31854" lon="1.00363">
        <ele>73.6782227</ele>
        <time>2012-09-15T13:17:15Z</time>
      </trkpt>
      <trkpt lat="49.31856" lon="1.00357">
        <ele>72.7169189</ele>
        <time>2012-09-15T13:17:19Z</time>
      </trkpt>
      <trkpt lat="49.31864" lon="1.00354">
        <ele>71.2749023</ele>
        <time>2012-09-15T13:17:25Z</time>
      </trkpt>
      <trkpt lat="49.31867" lon="1.00346">
        <ele>69.8328857</ele>
        <time>2012-09-15T13:17:30Z</time>
      </trkpt>
      <trkpt lat="49.31868" lon="1.00339">
        <ele>68.3908691</ele>
        <time>2012-09-15T13:17:35Z</time>
      </trkpt>
      <trkpt lat="49.31865" lon="1.00338">
        <ele>67.4296875</ele>
        <time>2012-09-15T13:17:38Z</time>
      </trkpt>
      <trkpt lat="49.31836" lon="1.00323">
        <ele>65.5070801</ele>
        <time>2012-09-15T13:17:50Z</time>
      </trkpt>
      <trkpt lat="49.31829" lon="1.00313">
        <ele>65.9876709</ele>
        <time>2012-09-15T13:17:57Z</time>
      </trkpt>
      <trkpt lat="49.31825" lon="1.00307">
        <ele>66.9489746</ele>
        <time>2012-09-15T13:18:03Z</time>
      </trkpt>
      <trkpt lat="49.31819" lon="1.00298">
        <ele>67.4296875</ele>
        <time>2012-09-15T13:18:07Z</time>
      </trkpt>
      <trkpt lat="49.31814" lon="1.00276">
        <ele>68.871582</ele>
        <time>2012-09-15T13:18:16Z</time>
      </trkpt>
      <trkpt lat="49.31801" lon="1.0025">
        <ele>68.3908691</ele>
        <time>2012-09-15T13:18:29Z</time>
      </trkpt>
      <trkpt lat="49.31796" lon="1.00239">
        <ele>69.8328857</ele>
        <time>2012-09-15T13:18:43Z</time>
      </trkpt>
      <trkpt lat="49.3179" lon="1.00231">
        <ele>70.3134766</ele>
        <time>2012-09-15T13:18:54Z</time>
      </trkpt>
      <trkpt lat="49.31777" lon="1.00226">
        <ele>70.3134766</ele>
        <time>2012-09-15T13:19:01Z</time>
      </trkpt>
      <trkpt lat="49.31773" lon="1.00218">
        <ele>70.3134766</ele>
        <time>2012-09-15T13:19:12Z</time>
      </trkpt>
      <trkpt lat="49.31769" lon="1.00215">
        <ele>69.8328857</ele>
        <time>2012-09-15T13:19:15Z</time>
      </trkpt>
      <trkpt lat="49.31763" lon="1.00202">
        <ele>69.8328857</ele>
        <time>2012-09-15T13:19:27Z</time>
      </trkpt>
      <trkpt lat="49.3176" lon="1.00201">
        <ele>70.3134766</ele>
        <time>2012-09-15T13:19:44Z</time>
      </trkpt>
      <trkpt lat="49.31745" lon="1.00195">
        <ele>70.3134766</ele>
        <time>2012-09-15T13:19:50Z</time>
      </trkpt>
      <trkpt lat="49.31742" lon="1.00191">
        <ele>70.3134766</ele>
        <time>2012-09-15T13:19:54Z</time>
      </trkpt>
      <trkpt lat="49.31736" lon="1.00185">
        <ele>71.2749023</ele>
        <time>2012-09-15T13:19:58Z</time>
      </trkpt>
      <trkpt lat="49.31728" lon="1.00164">
        <ele>76.0814209</ele>
        <time>2012-09-15T13:20:08Z</time>
      </trkpt>
      <trkpt lat="49.31727" lon="1.00153">
        <ele>77.5234375</ele>
        <time>2012-09-15T13:20:14Z</time>
      </trkpt>
      <trkpt lat="49.31734" lon="1.00121">
        <ele>79.9266357</ele>
        <time>2012-09-15T13:20:31Z</time>
      </trkpt>
      <trkpt lat="49.31736" lon="1.00117">
        <ele>79.4460449</ele>
        <time>2012-09-15T13:20:34Z</time>
      </trkpt>
      <trkpt lat="49.31752" lon="1.00089">
        <ele>78.9654541</ele>
        <time>2012-09-15T13:20:44Z</time>
      </trkpt>
      <trkpt lat="49.31762" lon="1.00081">
        <ele>78.4847412</ele>
        <time>2012-09-15T13:20:47Z</time>
      </trkpt>
      <trkpt lat="49.31774" lon="1.00062">
        <ele>78.4847412</ele>
        <time>2012-09-15T13:20:52Z</time>
      </trkpt>
      <trkpt lat="49.31788" lon="1.00048">
        <ele>78.0040283</ele>
        <time>2012-09-15T13:20:55Z</time>
      </trkpt>
      <trkpt lat="49.31805" lon="0.99973">
        <ele>77.0428467</ele>
        <time>2012-09-15T13:21:04Z</time>
      </trkpt>
      <trkpt lat="49.3181" lon="0.99936">
        <ele>75.6008301</ele>
        <time>2012-09-15T13:21:08Z</time>
      </trkpt>
      <trkpt lat="49.31811" lon="0.99909">
        <ele>74.6395264</ele>
        <time>2012-09-15T13:21:11Z</time>
      </trkpt>
      <trkpt lat="49.3183" lon="0.99838">
        <ele>73.6782227</ele>
        <time>2012-09-15T13:21:20Z</time>
      </trkpt>
      <trkpt lat="49.31811" lon="0.99789">
        <ele>70.3134766</ele>
        <time>2012-09-15T13:21:31Z</time>
      </trkpt>
      <trkpt lat="49.31775" lon="0.99745">
        <ele>66.4682617</ele>
        <time>2012-09-15T13:21:39Z</time>
      </trkpt>
      <trkpt lat="49.31761" lon="0.99718">
        <ele>63.5843506</ele>
        <time>2012-09-15T13:21:41Z</time>
      </trkpt>
      <trkpt lat="49.3174" lon="0.99664">
        <ele>60.7003174</ele>
        <time>2012-09-15T13:21:47Z</time>
      </trkpt>
      <trkpt lat="49.31737" lon="0.99661">
        <ele>61.6617432</ele>
        <time>2012-09-15T13:22:11Z</time>
      </trkpt>
      <trkpt lat="49.31722" lon="0.9965">
        <ele>58.77771</ele>
        <time>2012-09-15T13:22:20Z</time>
      </trkpt>
      <trkpt lat="49.31721" lon="0.99642">
        <ele>57.8165283</ele>
        <time>2012-09-15T13:22:22Z</time>
      </trkpt>
      <trkpt lat="49.31712" lon="0.99638">
        <ele>57.3358154</ele>
        <time>2012-09-15T13:22:33Z</time>
      </trkpt>
      <trkpt lat="49.31707" lon="0.99636">
        <ele>56.3745117</ele>
        <time>2012-09-15T13:22:49Z</time>
      </trkpt>
      <trkpt lat="49.31707" lon="0.99636">
        <ele>56.3745117</ele>
        <time>2012-09-15T13:22:50Z</time>
      </trkpt>
      <trkpt lat="49.31706" lon="0.99634">
        <ele>54.932373</ele>
        <time>2012-09-15T13:22:56Z</time>
      </trkpt>
      <trkpt lat="49.31708" lon="0.99619">
        <ele>51.5678711</ele>
        <time>2012-09-15T13:23:00Z</time>
      </trkpt>
      <trkpt lat="49.31722" lon="0.99571">
        <ele>43.8773193</ele>
        <time>2012-09-15T13:23:06Z</time>
      </trkpt>
      <trkpt lat="49.31772" lon="0.99496">
        <ele>35.7060547</ele>
        <time>2012-09-15T13:23:17Z</time>
      </trkpt>
      <trkpt lat="49.31779" lon="0.99483">
        <ele>35.2254639</ele>
        <time>2012-09-15T13:23:19Z</time>
      </trkpt>
      <trkpt lat="49.31806" lon="0.99439">
        <ele>32.3415527</ele>
        <time>2012-09-15T13:23:30Z</time>
      </trkpt>
      <trkpt lat="49.31846" lon="0.99404">
        <ele>30.8995361</ele>
        <time>2012-09-15T13:23:44Z</time>
      </trkpt>
      <trkpt lat="49.31869" lon="0.99383">
        <ele>31.8607178</ele>
        <time>2012-09-15T13:23:52Z</time>
      </trkpt>
      <trkpt lat="49.3188" lon="0.99367">
        <ele>31.380127</ele>
        <time>2012-09-15T13:23:56Z</time>
      </trkpt>
      <trkpt lat="49.31903" lon="0.99325">
        <ele>29.9381104</ele>
        <time>2012-09-15T13:24:07Z</time>
      </trkpt>
      <trkpt lat="49.31907" lon="0.99313">
        <ele>28.9769287</ele>
        <time>2012-09-15T13:24:09Z</time>
      </trkpt>
      <trkpt lat="49.31928" lon="0.99262">
        <ele>27.5349121</ele>
        <time>2012-09-15T13:24:17Z</time>
      </trkpt>
      <trkpt lat="49.31976" lon="0.99168">
        <ele>27.0543213</ele>
        <time>2012-09-15T13:24:32Z</time>
      </trkpt>
      <trkpt lat="49.32024" lon="0.99081">
        <ele>27.0543213</ele>
        <time>2012-09-15T13:24:47Z</time>
      </trkpt>
      <trkpt lat="49.3206" lon="0.99006">
        <ele>27.5349121</ele>
        <time>2012-09-15T13:24:59Z</time>
      </trkpt>
      <trkpt lat="49.3208" lon="0.9896">
        <ele>28.0155029</ele>
        <time>2012-09-15T13:25:07Z</time>
      </trkpt>
      <trkpt lat="49.32097" lon="0.98885">
        <ele>31.8607178</ele>
        <time>2012-09-15T13:25:19Z</time>
      </trkpt>
      <trkpt lat="49.32106" lon="0.98839">
        <ele>34.2641602</ele>
        <time>2012-09-15T13:25:31Z</time>
      </trkpt>
      <trkpt lat="49.32117" lon="0.98781">
        <ele>35.2254639</ele>
        <time>2012-09-15T13:25:49Z</time>
      </trkpt>
      <trkpt lat="49.32128" lon="0.98742">
        <ele>37.6286621</ele>
        <time>2012-09-15T13:26:02Z</time>
      </trkpt>
      <trkpt lat="49.32143" lon="0.98722">
        <ele>37.6286621</ele>
        <time>2012-09-15T13:26:12Z</time>
      </trkpt>
      <trkpt lat="49.3217" lon="0.98689">
        <ele>34.2641602</ele>
        <time>2012-09-15T13:26:29Z</time>
      </trkpt>
      <trkpt lat="49.32186" lon="0.9868">
        <ele>32.3415527</ele>
        <time>2012-09-15T13:26:38Z</time>
      </trkpt>
      <trkpt lat="49.32194" lon="0.98657">
        <ele>34.46875</ele>
      </trkpt>
      <trkpt lat="49.32195" lon="0.98619">
        <ele>39.21875</ele>
      </trkpt>
    </trkseg>
  </trk>
</gpx>